<?xml version="1.0" encoding="UTF-8" standalone="no" ?>
<gpx xmlns="http://www.topografix.com/GPX/1/1" xmlns:xsi="http://www.w3.org/2001/XMLSchema-instance" xsi:schemaLocation="http://www.topografix.com/GPX/1/1 http://www.topografix.com/GPX/1/1/gpx.xsd" version="1.1" creator="VisuGPX - https://www.visugpx.com">
  <metadata>
    <name>Randonnée à Lavaur</name>
    <desc><![CDATA[Belle randonnée de 19 km. Découverte de la ville.]]></desc>
  </metadata>
  <trk>
    <name><![CDATA[21 févr. 2013 09:24:56]]></name>
    <cmt><![CDATA[21 févr. 2013 09:24:56]]></cmt>
    <trkseg>
      <trkpt lat="43.69341" lon="1.82612">
        <ele>133</ele>
        <time>2013-02-21T08:24:57Z</time>
      </trkpt>
      <trkpt lat="43.6933" lon="1.82621">
        <ele>133</ele>
        <time>2013-02-21T08:25:06Z</time>
      </trkpt>
      <trkpt lat="43.69323" lon="1.8263">
        <ele>133</ele>
        <time>2013-02-21T08:25:13Z</time>
      </trkpt>
      <trkpt lat="43.69315" lon="1.82637">
        <ele>132</ele>
        <time>2013-02-21T08:25:20Z</time>
      </trkpt>
      <trkpt lat="43.69307" lon="1.82646">
        <ele>132</ele>
        <time>2013-02-21T08:25:29Z</time>
      </trkpt>
      <trkpt lat="43.693" lon="1.82653">
        <ele>135</ele>
        <time>2013-02-21T08:25:34Z</time>
      </trkpt>
      <trkpt lat="43.69292" lon="1.82662">
        <ele>134</ele>
        <time>2013-02-21T08:25:42Z</time>
      </trkpt>
      <trkpt lat="43.69288" lon="1.82666">
        <ele>133</ele>
        <time>2013-02-21T08:25:46Z</time>
      </trkpt>
      <trkpt lat="43.69282" lon="1.82674">
        <ele>134</ele>
        <time>2013-02-21T08:25:53Z</time>
      </trkpt>
      <trkpt lat="43.69275" lon="1.82683">
        <ele>134</ele>
        <time>2013-02-21T08:26:00Z</time>
      </trkpt>
      <trkpt lat="43.69271" lon="1.82686">
        <ele>135</ele>
        <time>2013-02-21T08:26:04Z</time>
      </trkpt>
      <trkpt lat="43.69266" lon="1.82692">
        <ele>134</ele>
        <time>2013-02-21T08:26:09Z</time>
      </trkpt>
      <trkpt lat="43.69259" lon="1.82697">
        <ele>133</ele>
        <time>2013-02-21T08:26:17Z</time>
      </trkpt>
      <trkpt lat="43.69256" lon="1.82702">
        <ele>132</ele>
        <time>2013-02-21T08:26:20Z</time>
      </trkpt>
      <trkpt lat="43.6925" lon="1.82714">
        <ele>131</ele>
        <time>2013-02-21T08:26:27Z</time>
      </trkpt>
      <trkpt lat="43.69247" lon="1.82719">
        <ele>130</ele>
        <time>2013-02-21T08:26:30Z</time>
      </trkpt>
      <trkpt lat="43.69243" lon="1.82724">
        <ele>130</ele>
        <time>2013-02-21T08:26:34Z</time>
      </trkpt>
      <trkpt lat="43.69238" lon="1.8273">
        <ele>129</ele>
        <time>2013-02-21T08:26:38Z</time>
      </trkpt>
      <trkpt lat="43.69235" lon="1.82734">
        <ele>128</ele>
        <time>2013-02-21T08:26:42Z</time>
      </trkpt>
      <trkpt lat="43.6923" lon="1.82738">
        <ele>128</ele>
        <time>2013-02-21T08:26:46Z</time>
      </trkpt>
      <trkpt lat="43.69221" lon="1.82743">
        <ele>127</ele>
        <time>2013-02-21T08:26:56Z</time>
      </trkpt>
      <trkpt lat="43.69212" lon="1.82748">
        <ele>125</ele>
        <time>2013-02-21T08:27:04Z</time>
      </trkpt>
      <trkpt lat="43.69208" lon="1.82753">
        <ele>125</ele>
        <time>2013-02-21T08:27:08Z</time>
      </trkpt>
      <trkpt lat="43.69203" lon="1.82758">
        <ele>125</ele>
        <time>2013-02-21T08:27:12Z</time>
      </trkpt>
      <trkpt lat="43.69199" lon="1.82762">
        <ele>126</ele>
        <time>2013-02-21T08:27:15Z</time>
      </trkpt>
      <trkpt lat="43.69193" lon="1.82768">
        <ele>127</ele>
        <time>2013-02-21T08:27:20Z</time>
      </trkpt>
      <trkpt lat="43.69189" lon="1.82773">
        <ele>128</ele>
        <time>2013-02-21T08:27:24Z</time>
      </trkpt>
      <trkpt lat="43.69184" lon="1.82778">
        <ele>129</ele>
        <time>2013-02-21T08:27:28Z</time>
      </trkpt>
      <trkpt lat="43.6918" lon="1.82782">
        <ele>129</ele>
        <time>2013-02-21T08:27:33Z</time>
      </trkpt>
      <trkpt lat="43.69177" lon="1.82788">
        <ele>130</ele>
        <time>2013-02-21T08:27:38Z</time>
      </trkpt>
      <trkpt lat="43.69173" lon="1.82793">
        <ele>130</ele>
        <time>2013-02-21T08:27:42Z</time>
      </trkpt>
      <trkpt lat="43.69169" lon="1.82797">
        <ele>130</ele>
        <time>2013-02-21T08:27:46Z</time>
      </trkpt>
      <trkpt lat="43.69165" lon="1.82801">
        <ele>130</ele>
        <time>2013-02-21T08:27:50Z</time>
      </trkpt>
      <trkpt lat="43.69162" lon="1.82806">
        <ele>131</ele>
        <time>2013-02-21T08:27:54Z</time>
      </trkpt>
      <trkpt lat="43.69155" lon="1.82815">
        <ele>132</ele>
        <time>2013-02-21T08:28:01Z</time>
      </trkpt>
      <trkpt lat="43.69149" lon="1.82822">
        <ele>130</ele>
        <time>2013-02-21T08:28:08Z</time>
      </trkpt>
      <trkpt lat="43.69145" lon="1.82827">
        <ele>129</ele>
        <time>2013-02-21T08:28:12Z</time>
      </trkpt>
      <trkpt lat="43.69142" lon="1.82832">
        <ele>129</ele>
        <time>2013-02-21T08:28:16Z</time>
      </trkpt>
      <trkpt lat="43.69137" lon="1.82837">
        <ele>130</ele>
        <time>2013-02-21T08:28:21Z</time>
      </trkpt>
      <trkpt lat="43.69133" lon="1.82841">
        <ele>130</ele>
        <time>2013-02-21T08:28:25Z</time>
      </trkpt>
      <trkpt lat="43.69129" lon="1.82846">
        <ele>130</ele>
        <time>2013-02-21T08:28:29Z</time>
      </trkpt>
      <trkpt lat="43.69122" lon="1.82856">
        <ele>130</ele>
        <time>2013-02-21T08:28:39Z</time>
      </trkpt>
      <trkpt lat="43.69115" lon="1.82866">
        <ele>130</ele>
        <time>2013-02-21T08:28:45Z</time>
      </trkpt>
      <trkpt lat="43.69112" lon="1.8287">
        <ele>130</ele>
        <time>2013-02-21T08:28:48Z</time>
      </trkpt>
      <trkpt lat="43.6911" lon="1.82877">
        <ele>131</ele>
        <time>2013-02-21T08:28:51Z</time>
      </trkpt>
      <trkpt lat="43.69106" lon="1.82884">
        <ele>131</ele>
        <time>2013-02-21T08:28:56Z</time>
      </trkpt>
      <trkpt lat="43.69102" lon="1.82888">
        <ele>131</ele>
        <time>2013-02-21T08:28:59Z</time>
      </trkpt>
      <trkpt lat="43.69098" lon="1.82892">
        <ele>131</ele>
        <time>2013-02-21T08:29:03Z</time>
      </trkpt>
      <trkpt lat="43.69094" lon="1.82897">
        <ele>131</ele>
        <time>2013-02-21T08:29:08Z</time>
      </trkpt>
      <trkpt lat="43.69091" lon="1.82903">
        <ele>131</ele>
        <time>2013-02-21T08:29:13Z</time>
      </trkpt>
      <trkpt lat="43.69087" lon="1.82908">
        <ele>131</ele>
        <time>2013-02-21T08:29:17Z</time>
      </trkpt>
      <trkpt lat="43.69084" lon="1.82913">
        <ele>132</ele>
        <time>2013-02-21T08:29:21Z</time>
      </trkpt>
      <trkpt lat="43.6908" lon="1.82918">
        <ele>132</ele>
        <time>2013-02-21T08:29:25Z</time>
      </trkpt>
      <trkpt lat="43.69077" lon="1.82923">
        <ele>131</ele>
        <time>2013-02-21T08:29:29Z</time>
      </trkpt>
      <trkpt lat="43.69074" lon="1.82929">
        <ele>130</ele>
        <time>2013-02-21T08:29:33Z</time>
      </trkpt>
      <trkpt lat="43.6907" lon="1.82933">
        <ele>130</ele>
        <time>2013-02-21T08:29:37Z</time>
      </trkpt>
      <trkpt lat="43.69066" lon="1.82938">
        <ele>131</ele>
        <time>2013-02-21T08:29:42Z</time>
      </trkpt>
      <trkpt lat="43.69063" lon="1.82944">
        <ele>130</ele>
        <time>2013-02-21T08:29:46Z</time>
      </trkpt>
      <trkpt lat="43.69059" lon="1.8295">
        <ele>130</ele>
        <time>2013-02-21T08:29:50Z</time>
      </trkpt>
      <trkpt lat="43.69052" lon="1.8296">
        <ele>130</ele>
        <time>2013-02-21T08:29:59Z</time>
      </trkpt>
      <trkpt lat="43.69044" lon="1.82962">
        <ele>130</ele>
        <time>2013-02-21T08:30:06Z</time>
      </trkpt>
      <trkpt lat="43.69035" lon="1.82958">
        <ele>133</ele>
        <time>2013-02-21T08:30:34Z</time>
      </trkpt>
      <trkpt lat="43.69029" lon="1.82955">
        <ele>133</ele>
        <time>2013-02-21T08:30:38Z</time>
      </trkpt>
      <trkpt lat="43.69023" lon="1.8295">
        <ele>133</ele>
        <time>2013-02-21T08:30:44Z</time>
      </trkpt>
      <trkpt lat="43.69019" lon="1.82946">
        <ele>133</ele>
        <time>2013-02-21T08:30:48Z</time>
      </trkpt>
      <trkpt lat="43.69015" lon="1.82945">
        <ele>132</ele>
        <time>2013-02-21T08:30:55Z</time>
      </trkpt>
      <trkpt lat="43.6901" lon="1.82938">
        <ele>131</ele>
        <time>2013-02-21T08:31:11Z</time>
      </trkpt>
      <trkpt lat="43.69002" lon="1.82931">
        <ele>129</ele>
        <time>2013-02-21T08:31:20Z</time>
      </trkpt>
      <trkpt lat="43.68993" lon="1.82922">
        <ele>129</ele>
        <time>2013-02-21T08:31:28Z</time>
      </trkpt>
      <trkpt lat="43.68987" lon="1.82912">
        <ele>126</ele>
        <time>2013-02-21T08:31:36Z</time>
      </trkpt>
      <trkpt lat="43.68979" lon="1.82906">
        <ele>125</ele>
        <time>2013-02-21T08:31:44Z</time>
      </trkpt>
      <trkpt lat="43.68975" lon="1.829">
        <ele>124</ele>
        <time>2013-02-21T08:31:48Z</time>
      </trkpt>
      <trkpt lat="43.68972" lon="1.82895">
        <ele>124</ele>
        <time>2013-02-21T08:31:51Z</time>
      </trkpt>
      <trkpt lat="43.68967" lon="1.82891">
        <ele>125</ele>
        <time>2013-02-21T08:31:54Z</time>
      </trkpt>
      <trkpt lat="43.68959" lon="1.82884">
        <ele>124</ele>
        <time>2013-02-21T08:32:01Z</time>
      </trkpt>
      <trkpt lat="43.68952" lon="1.82876">
        <ele>125</ele>
        <time>2013-02-21T08:32:07Z</time>
      </trkpt>
      <trkpt lat="43.68946" lon="1.82866">
        <ele>127</ele>
        <time>2013-02-21T08:32:16Z</time>
      </trkpt>
      <trkpt lat="43.68939" lon="1.82858">
        <ele>127</ele>
        <time>2013-02-21T08:32:25Z</time>
      </trkpt>
      <trkpt lat="43.6893" lon="1.8285">
        <ele>128</ele>
        <time>2013-02-21T08:32:33Z</time>
      </trkpt>
      <trkpt lat="43.68923" lon="1.82842">
        <ele>129</ele>
        <time>2013-02-21T08:32:39Z</time>
      </trkpt>
      <trkpt lat="43.68916" lon="1.82832">
        <ele>129</ele>
        <time>2013-02-21T08:32:48Z</time>
      </trkpt>
      <trkpt lat="43.68908" lon="1.82823">
        <ele>131</ele>
        <time>2013-02-21T08:32:55Z</time>
      </trkpt>
      <trkpt lat="43.68899" lon="1.82812">
        <ele>133</ele>
        <time>2013-02-21T08:33:10Z</time>
      </trkpt>
      <trkpt lat="43.68887" lon="1.82807">
        <ele>130</ele>
        <time>2013-02-21T08:33:23Z</time>
      </trkpt>
      <trkpt lat="43.68877" lon="1.82801">
        <ele>129</ele>
        <time>2013-02-21T08:33:33Z</time>
      </trkpt>
      <trkpt lat="43.68869" lon="1.82793">
        <ele>127</ele>
        <time>2013-02-21T08:33:42Z</time>
      </trkpt>
      <trkpt lat="43.68861" lon="1.82782">
        <ele>126</ele>
        <time>2013-02-21T08:33:50Z</time>
      </trkpt>
      <trkpt lat="43.68854" lon="1.82774">
        <ele>126</ele>
        <time>2013-02-21T08:33:56Z</time>
      </trkpt>
      <trkpt lat="43.68847" lon="1.82765">
        <ele>127</ele>
        <time>2013-02-21T08:34:04Z</time>
      </trkpt>
      <trkpt lat="43.68839" lon="1.82757">
        <ele>130</ele>
        <time>2013-02-21T08:34:12Z</time>
      </trkpt>
      <trkpt lat="43.68831" lon="1.82751">
        <ele>131</ele>
        <time>2013-02-21T08:34:20Z</time>
      </trkpt>
      <trkpt lat="43.68823" lon="1.82743">
        <ele>132</ele>
        <time>2013-02-21T08:34:27Z</time>
      </trkpt>
      <trkpt lat="43.68816" lon="1.82734">
        <ele>134</ele>
        <time>2013-02-21T08:34:34Z</time>
      </trkpt>
      <trkpt lat="43.68809" lon="1.82727">
        <ele>133</ele>
        <time>2013-02-21T08:34:41Z</time>
      </trkpt>
      <trkpt lat="43.688" lon="1.82721">
        <ele>135</ele>
        <time>2013-02-21T08:34:49Z</time>
      </trkpt>
      <trkpt lat="43.68792" lon="1.82712">
        <ele>139</ele>
        <time>2013-02-21T08:34:58Z</time>
      </trkpt>
      <trkpt lat="43.68785" lon="1.82704">
        <ele>140</ele>
        <time>2013-02-21T08:35:06Z</time>
      </trkpt>
      <trkpt lat="43.68783" lon="1.82699">
        <ele>141</ele>
        <time>2013-02-21T08:35:30Z</time>
      </trkpt>
      <trkpt lat="43.68775" lon="1.82692">
        <ele>142</ele>
        <time>2013-02-21T08:35:40Z</time>
      </trkpt>
      <trkpt lat="43.68769" lon="1.82691">
        <ele>142</ele>
        <time>2013-02-21T08:35:46Z</time>
      </trkpt>
      <trkpt lat="43.68763" lon="1.8269">
        <ele>142</ele>
        <time>2013-02-21T08:35:51Z</time>
      </trkpt>
      <trkpt lat="43.68755" lon="1.82685">
        <ele>141</ele>
        <time>2013-02-21T08:35:58Z</time>
      </trkpt>
      <trkpt lat="43.68747" lon="1.82679">
        <ele>143</ele>
        <time>2013-02-21T08:36:06Z</time>
      </trkpt>
      <trkpt lat="43.68739" lon="1.82671">
        <ele>144</ele>
        <time>2013-02-21T08:36:16Z</time>
      </trkpt>
      <trkpt lat="43.68733" lon="1.82666">
        <ele>143</ele>
        <time>2013-02-21T08:36:21Z</time>
      </trkpt>
      <trkpt lat="43.68725" lon="1.82658">
        <ele>143</ele>
        <time>2013-02-21T08:36:28Z</time>
      </trkpt>
      <trkpt lat="43.68721" lon="1.82655">
        <ele>143</ele>
        <time>2013-02-21T08:36:32Z</time>
      </trkpt>
      <trkpt lat="43.68716" lon="1.82651">
        <ele>142</ele>
        <time>2013-02-21T08:36:37Z</time>
      </trkpt>
      <trkpt lat="43.68712" lon="1.82648">
        <ele>143</ele>
        <time>2013-02-21T08:36:40Z</time>
      </trkpt>
      <trkpt lat="43.68708" lon="1.82645">
        <ele>143</ele>
        <time>2013-02-21T08:36:43Z</time>
      </trkpt>
      <trkpt lat="43.68704" lon="1.82641">
        <ele>143</ele>
        <time>2013-02-21T08:36:47Z</time>
      </trkpt>
      <trkpt lat="43.68699" lon="1.82636">
        <ele>143</ele>
        <time>2013-02-21T08:36:52Z</time>
      </trkpt>
      <trkpt lat="43.68694" lon="1.8263">
        <ele>143</ele>
        <time>2013-02-21T08:36:59Z</time>
      </trkpt>
      <trkpt lat="43.6869" lon="1.82625">
        <ele>143</ele>
        <time>2013-02-21T08:37:04Z</time>
      </trkpt>
      <trkpt lat="43.68686" lon="1.82621">
        <ele>144</ele>
        <time>2013-02-21T08:37:09Z</time>
      </trkpt>
      <trkpt lat="43.68678" lon="1.82617">
        <ele>144</ele>
        <time>2013-02-21T08:37:17Z</time>
      </trkpt>
      <trkpt lat="43.68673" lon="1.82613">
        <ele>142</ele>
        <time>2013-02-21T08:37:22Z</time>
      </trkpt>
      <trkpt lat="43.68669" lon="1.8261">
        <ele>142</ele>
        <time>2013-02-21T08:37:27Z</time>
      </trkpt>
      <trkpt lat="43.68664" lon="1.82606">
        <ele>141</ele>
        <time>2013-02-21T08:37:32Z</time>
      </trkpt>
      <trkpt lat="43.68661" lon="1.82601">
        <ele>141</ele>
        <time>2013-02-21T08:37:36Z</time>
      </trkpt>
      <trkpt lat="43.68657" lon="1.82597">
        <ele>142</ele>
        <time>2013-02-21T08:37:40Z</time>
      </trkpt>
      <trkpt lat="43.68653" lon="1.82594">
        <ele>142</ele>
        <time>2013-02-21T08:37:45Z</time>
      </trkpt>
      <trkpt lat="43.68649" lon="1.82589">
        <ele>142</ele>
        <time>2013-02-21T08:37:49Z</time>
      </trkpt>
      <trkpt lat="43.68644" lon="1.82584">
        <ele>143</ele>
        <time>2013-02-21T08:37:54Z</time>
      </trkpt>
      <trkpt lat="43.68637" lon="1.82581">
        <ele>143</ele>
        <time>2013-02-21T08:38:00Z</time>
      </trkpt>
      <trkpt lat="43.68633" lon="1.82576">
        <ele>142</ele>
        <time>2013-02-21T08:38:05Z</time>
      </trkpt>
      <trkpt lat="43.68629" lon="1.82573">
        <ele>142</ele>
        <time>2013-02-21T08:38:09Z</time>
      </trkpt>
      <trkpt lat="43.68624" lon="1.82569">
        <ele>141</ele>
        <time>2013-02-21T08:38:13Z</time>
      </trkpt>
      <trkpt lat="43.68619" lon="1.82564">
        <ele>141</ele>
        <time>2013-02-21T08:38:18Z</time>
      </trkpt>
      <trkpt lat="43.68615" lon="1.82561">
        <ele>141</ele>
        <time>2013-02-21T08:38:22Z</time>
      </trkpt>
      <trkpt lat="43.68611" lon="1.82558">
        <ele>141</ele>
        <time>2013-02-21T08:38:25Z</time>
      </trkpt>
      <trkpt lat="43.68607" lon="1.82555">
        <ele>141</ele>
        <time>2013-02-21T08:38:28Z</time>
      </trkpt>
      <trkpt lat="43.68601" lon="1.82549">
        <ele>142</ele>
        <time>2013-02-21T08:38:34Z</time>
      </trkpt>
      <trkpt lat="43.68597" lon="1.82546">
        <ele>142</ele>
        <time>2013-02-21T08:38:38Z</time>
      </trkpt>
      <trkpt lat="43.68593" lon="1.82542">
        <ele>142</ele>
        <time>2013-02-21T08:38:42Z</time>
      </trkpt>
      <trkpt lat="43.68588" lon="1.82538">
        <ele>142</ele>
        <time>2013-02-21T08:38:46Z</time>
      </trkpt>
      <trkpt lat="43.68584" lon="1.82534">
        <ele>142</ele>
        <time>2013-02-21T08:38:51Z</time>
      </trkpt>
      <trkpt lat="43.68579" lon="1.82531">
        <ele>142</ele>
        <time>2013-02-21T08:38:56Z</time>
      </trkpt>
      <trkpt lat="43.68574" lon="1.82528">
        <ele>141</ele>
        <time>2013-02-21T08:39:02Z</time>
      </trkpt>
      <trkpt lat="43.6857" lon="1.82522">
        <ele>141</ele>
        <time>2013-02-21T08:39:07Z</time>
      </trkpt>
      <trkpt lat="43.68567" lon="1.82518">
        <ele>141</ele>
        <time>2013-02-21T08:39:09Z</time>
      </trkpt>
      <trkpt lat="43.68562" lon="1.82514">
        <ele>141</ele>
        <time>2013-02-21T08:39:14Z</time>
      </trkpt>
      <trkpt lat="43.68559" lon="1.8251">
        <ele>140</ele>
        <time>2013-02-21T08:39:17Z</time>
      </trkpt>
      <trkpt lat="43.68554" lon="1.82507">
        <ele>140</ele>
        <time>2013-02-21T08:39:21Z</time>
      </trkpt>
      <trkpt lat="43.68549" lon="1.82503">
        <ele>140</ele>
        <time>2013-02-21T08:39:26Z</time>
      </trkpt>
      <trkpt lat="43.68545" lon="1.82499">
        <ele>140</ele>
        <time>2013-02-21T08:39:31Z</time>
      </trkpt>
      <trkpt lat="43.6854" lon="1.82495">
        <ele>140</ele>
        <time>2013-02-21T08:39:36Z</time>
      </trkpt>
      <trkpt lat="43.68535" lon="1.82491">
        <ele>139</ele>
        <time>2013-02-21T08:39:42Z</time>
      </trkpt>
      <trkpt lat="43.68532" lon="1.82486">
        <ele>140</ele>
        <time>2013-02-21T08:39:47Z</time>
      </trkpt>
      <trkpt lat="43.68528" lon="1.82482">
        <ele>140</ele>
        <time>2013-02-21T08:39:51Z</time>
      </trkpt>
      <trkpt lat="43.68522" lon="1.82475">
        <ele>140</ele>
        <time>2013-02-21T08:39:58Z</time>
      </trkpt>
      <trkpt lat="43.68518" lon="1.8247">
        <ele>140</ele>
        <time>2013-02-21T08:40:02Z</time>
      </trkpt>
      <trkpt lat="43.68516" lon="1.82464">
        <ele>140</ele>
        <time>2013-02-21T08:40:06Z</time>
      </trkpt>
      <trkpt lat="43.68512" lon="1.8246">
        <ele>138</ele>
        <time>2013-02-21T08:40:11Z</time>
      </trkpt>
      <trkpt lat="43.68508" lon="1.82454">
        <ele>137</ele>
        <time>2013-02-21T08:40:16Z</time>
      </trkpt>
      <trkpt lat="43.68503" lon="1.82443">
        <ele>138</ele>
        <time>2013-02-21T08:40:29Z</time>
      </trkpt>
      <trkpt lat="43.68502" lon="1.82435">
        <ele>136</ele>
        <time>2013-02-21T08:40:37Z</time>
      </trkpt>
      <trkpt lat="43.685" lon="1.82426">
        <ele>144</ele>
        <time>2013-02-21T08:41:04Z</time>
      </trkpt>
      <trkpt lat="43.68496" lon="1.82421">
        <ele>140</ele>
        <time>2013-02-21T08:41:11Z</time>
      </trkpt>
      <trkpt lat="43.68492" lon="1.82417">
        <ele>140</ele>
        <time>2013-02-21T08:41:14Z</time>
      </trkpt>
      <trkpt lat="43.68486" lon="1.82414">
        <ele>138</ele>
        <time>2013-02-21T08:41:19Z</time>
      </trkpt>
      <trkpt lat="43.68482" lon="1.82413">
        <ele>137</ele>
        <time>2013-02-21T08:41:23Z</time>
      </trkpt>
      <trkpt lat="43.68472" lon="1.82412">
        <ele>137</ele>
        <time>2013-02-21T08:41:31Z</time>
      </trkpt>
      <trkpt lat="43.68463" lon="1.82407">
        <ele>138</ele>
        <time>2013-02-21T08:41:41Z</time>
      </trkpt>
      <trkpt lat="43.68458" lon="1.82406">
        <ele>139</ele>
        <time>2013-02-21T08:41:45Z</time>
      </trkpt>
      <trkpt lat="43.68453" lon="1.82406">
        <ele>140</ele>
        <time>2013-02-21T08:41:48Z</time>
      </trkpt>
      <trkpt lat="43.68447" lon="1.82404">
        <ele>142</ele>
        <time>2013-02-21T08:41:52Z</time>
      </trkpt>
      <trkpt lat="43.68443" lon="1.82402">
        <ele>142</ele>
        <time>2013-02-21T08:41:56Z</time>
      </trkpt>
      <trkpt lat="43.68437" lon="1.82402">
        <ele>142</ele>
        <time>2013-02-21T08:42:01Z</time>
      </trkpt>
      <trkpt lat="43.68432" lon="1.82401">
        <ele>142</ele>
        <time>2013-02-21T08:42:04Z</time>
      </trkpt>
      <trkpt lat="43.68428" lon="1.82399">
        <ele>143</ele>
        <time>2013-02-21T08:42:08Z</time>
      </trkpt>
      <trkpt lat="43.68424" lon="1.82396">
        <ele>144</ele>
        <time>2013-02-21T08:42:12Z</time>
      </trkpt>
      <trkpt lat="43.68419" lon="1.82393">
        <ele>144</ele>
        <time>2013-02-21T08:42:17Z</time>
      </trkpt>
      <trkpt lat="43.68414" lon="1.82391">
        <ele>145</ele>
        <time>2013-02-21T08:42:21Z</time>
      </trkpt>
      <trkpt lat="43.6841" lon="1.82388">
        <ele>145</ele>
        <time>2013-02-21T08:42:25Z</time>
      </trkpt>
      <trkpt lat="43.68406" lon="1.82384">
        <ele>145</ele>
        <time>2013-02-21T08:42:32Z</time>
      </trkpt>
      <trkpt lat="43.684" lon="1.82383">
        <ele>145</ele>
        <time>2013-02-21T08:42:36Z</time>
      </trkpt>
      <trkpt lat="43.68395" lon="1.82381">
        <ele>144</ele>
        <time>2013-02-21T08:42:42Z</time>
      </trkpt>
      <trkpt lat="43.6839" lon="1.82379">
        <ele>144</ele>
        <time>2013-02-21T08:42:46Z</time>
      </trkpt>
      <trkpt lat="43.68384" lon="1.82376">
        <ele>145</ele>
        <time>2013-02-21T08:42:51Z</time>
      </trkpt>
      <trkpt lat="43.6838" lon="1.82372">
        <ele>145</ele>
        <time>2013-02-21T08:42:56Z</time>
      </trkpt>
      <trkpt lat="43.68376" lon="1.82369">
        <ele>145</ele>
        <time>2013-02-21T08:43:01Z</time>
      </trkpt>
      <trkpt lat="43.6837" lon="1.82365">
        <ele>144</ele>
        <time>2013-02-21T08:43:07Z</time>
      </trkpt>
      <trkpt lat="43.68365" lon="1.82362">
        <ele>145</ele>
        <time>2013-02-21T08:43:12Z</time>
      </trkpt>
      <trkpt lat="43.68359" lon="1.8236">
        <ele>144</ele>
        <time>2013-02-21T08:43:17Z</time>
      </trkpt>
      <trkpt lat="43.68354" lon="1.82358">
        <ele>144</ele>
        <time>2013-02-21T08:43:22Z</time>
      </trkpt>
      <trkpt lat="43.68349" lon="1.82356">
        <ele>144</ele>
        <time>2013-02-21T08:43:27Z</time>
      </trkpt>
      <trkpt lat="43.68345" lon="1.82354">
        <ele>144</ele>
        <time>2013-02-21T08:43:31Z</time>
      </trkpt>
      <trkpt lat="43.6834" lon="1.82351">
        <ele>145</ele>
        <time>2013-02-21T08:43:35Z</time>
      </trkpt>
      <trkpt lat="43.68335" lon="1.8235">
        <ele>146</ele>
        <time>2013-02-21T08:43:40Z</time>
      </trkpt>
      <trkpt lat="43.68325" lon="1.82348">
        <ele>146</ele>
        <time>2013-02-21T08:43:48Z</time>
      </trkpt>
      <trkpt lat="43.68318" lon="1.82345">
        <ele>145</ele>
        <time>2013-02-21T08:43:53Z</time>
      </trkpt>
      <trkpt lat="43.68313" lon="1.82344">
        <ele>144</ele>
        <time>2013-02-21T08:43:57Z</time>
      </trkpt>
      <trkpt lat="43.68307" lon="1.82341">
        <ele>144</ele>
        <time>2013-02-21T08:44:02Z</time>
      </trkpt>
      <trkpt lat="43.68302" lon="1.8234">
        <ele>144</ele>
        <time>2013-02-21T08:44:06Z</time>
      </trkpt>
      <trkpt lat="43.68298" lon="1.82339">
        <ele>144</ele>
        <time>2013-02-21T08:44:10Z</time>
      </trkpt>
      <trkpt lat="43.68293" lon="1.82338">
        <ele>143</ele>
        <time>2013-02-21T08:44:15Z</time>
      </trkpt>
      <trkpt lat="43.68287" lon="1.82338">
        <ele>143</ele>
        <time>2013-02-21T08:44:20Z</time>
      </trkpt>
      <trkpt lat="43.68282" lon="1.82337">
        <ele>143</ele>
        <time>2013-02-21T08:44:25Z</time>
      </trkpt>
      <trkpt lat="43.68277" lon="1.82336">
        <ele>142</ele>
        <time>2013-02-21T08:44:29Z</time>
      </trkpt>
      <trkpt lat="43.68271" lon="1.82335">
        <ele>142</ele>
        <time>2013-02-21T08:44:34Z</time>
      </trkpt>
      <trkpt lat="43.68263" lon="1.82334">
        <ele>142</ele>
        <time>2013-02-21T08:44:40Z</time>
      </trkpt>
      <trkpt lat="43.68259" lon="1.82332">
        <ele>142</ele>
        <time>2013-02-21T08:44:46Z</time>
      </trkpt>
      <trkpt lat="43.68254" lon="1.82331">
        <ele>144</ele>
        <time>2013-02-21T08:44:49Z</time>
      </trkpt>
      <trkpt lat="43.68249" lon="1.8233">
        <ele>144</ele>
        <time>2013-02-21T08:44:53Z</time>
      </trkpt>
      <trkpt lat="43.68243" lon="1.8233">
        <ele>144</ele>
        <time>2013-02-21T08:44:57Z</time>
      </trkpt>
      <trkpt lat="43.68238" lon="1.8233">
        <ele>143</ele>
        <time>2013-02-21T08:45:02Z</time>
      </trkpt>
      <trkpt lat="43.68231" lon="1.82332">
        <ele>143</ele>
        <time>2013-02-21T08:45:07Z</time>
      </trkpt>
      <trkpt lat="43.68226" lon="1.82333">
        <ele>143</ele>
        <time>2013-02-21T08:45:12Z</time>
      </trkpt>
      <trkpt lat="43.68221" lon="1.82334">
        <ele>143</ele>
        <time>2013-02-21T08:45:18Z</time>
      </trkpt>
      <trkpt lat="43.68216" lon="1.82335">
        <ele>142</ele>
        <time>2013-02-21T08:45:22Z</time>
      </trkpt>
      <trkpt lat="43.6821" lon="1.82336">
        <ele>142</ele>
        <time>2013-02-21T08:45:28Z</time>
      </trkpt>
      <trkpt lat="43.68204" lon="1.82337">
        <ele>142</ele>
        <time>2013-02-21T08:45:33Z</time>
      </trkpt>
      <trkpt lat="43.68198" lon="1.82339">
        <ele>142</ele>
        <time>2013-02-21T08:45:37Z</time>
      </trkpt>
      <trkpt lat="43.68194" lon="1.8234">
        <ele>143</ele>
        <time>2013-02-21T08:45:41Z</time>
      </trkpt>
      <trkpt lat="43.68188" lon="1.82341">
        <ele>143</ele>
        <time>2013-02-21T08:45:45Z</time>
      </trkpt>
      <trkpt lat="43.68183" lon="1.82342">
        <ele>143</ele>
        <time>2013-02-21T08:45:50Z</time>
      </trkpt>
      <trkpt lat="43.68179" lon="1.82344">
        <ele>143</ele>
        <time>2013-02-21T08:45:56Z</time>
      </trkpt>
      <trkpt lat="43.68174" lon="1.82346">
        <ele>143</ele>
        <time>2013-02-21T08:46:00Z</time>
      </trkpt>
      <trkpt lat="43.68169" lon="1.82348">
        <ele>143</ele>
        <time>2013-02-21T08:46:04Z</time>
      </trkpt>
      <trkpt lat="43.68159" lon="1.82351">
        <ele>144</ele>
        <time>2013-02-21T08:46:10Z</time>
      </trkpt>
      <trkpt lat="43.68155" lon="1.82353">
        <ele>145</ele>
        <time>2013-02-21T08:46:16Z</time>
      </trkpt>
      <trkpt lat="43.68149" lon="1.82354">
        <ele>145</ele>
        <time>2013-02-21T08:46:20Z</time>
      </trkpt>
      <trkpt lat="43.68144" lon="1.82355">
        <ele>143</ele>
        <time>2013-02-21T08:46:25Z</time>
      </trkpt>
      <trkpt lat="43.68139" lon="1.82355">
        <ele>143</ele>
        <time>2013-02-21T08:46:31Z</time>
      </trkpt>
      <trkpt lat="43.68135" lon="1.82359">
        <ele>143</ele>
        <time>2013-02-21T08:46:36Z</time>
      </trkpt>
      <trkpt lat="43.68131" lon="1.82362">
        <ele>142</ele>
        <time>2013-02-21T08:46:40Z</time>
      </trkpt>
      <trkpt lat="43.68124" lon="1.82364">
        <ele>142</ele>
        <time>2013-02-21T08:46:46Z</time>
      </trkpt>
      <trkpt lat="43.68117" lon="1.82366">
        <ele>141</ele>
        <time>2013-02-21T08:46:52Z</time>
      </trkpt>
      <trkpt lat="43.68108" lon="1.82371">
        <ele>140</ele>
        <time>2013-02-21T08:47:00Z</time>
      </trkpt>
      <trkpt lat="43.681" lon="1.82378">
        <ele>141</ele>
        <time>2013-02-21T08:47:07Z</time>
      </trkpt>
      <trkpt lat="43.68091" lon="1.82379">
        <ele>142</ele>
        <time>2013-02-21T08:47:15Z</time>
      </trkpt>
      <trkpt lat="43.68081" lon="1.82384">
        <ele>141</ele>
        <time>2013-02-21T08:47:24Z</time>
      </trkpt>
      <trkpt lat="43.68072" lon="1.8239">
        <ele>141</ele>
        <time>2013-02-21T08:47:33Z</time>
      </trkpt>
      <trkpt lat="43.68063" lon="1.82396">
        <ele>141</ele>
        <time>2013-02-21T08:47:41Z</time>
      </trkpt>
      <trkpt lat="43.68054" lon="1.82401">
        <ele>141</ele>
        <time>2013-02-21T08:47:49Z</time>
      </trkpt>
      <trkpt lat="43.68049" lon="1.82404">
        <ele>140</ele>
        <time>2013-02-21T08:47:54Z</time>
      </trkpt>
      <trkpt lat="43.68045" lon="1.82408">
        <ele>140</ele>
        <time>2013-02-21T08:47:58Z</time>
      </trkpt>
      <trkpt lat="43.68041" lon="1.82411">
        <ele>139</ele>
        <time>2013-02-21T08:48:01Z</time>
      </trkpt>
      <trkpt lat="43.68036" lon="1.82413">
        <ele>138</ele>
        <time>2013-02-21T08:48:05Z</time>
      </trkpt>
      <trkpt lat="43.68027" lon="1.82419">
        <ele>140</ele>
        <time>2013-02-21T08:48:16Z</time>
      </trkpt>
      <trkpt lat="43.68022" lon="1.82423">
        <ele>139</ele>
        <time>2013-02-21T08:48:20Z</time>
      </trkpt>
      <trkpt lat="43.68014" lon="1.8243">
        <ele>139</ele>
        <time>2013-02-21T08:48:26Z</time>
      </trkpt>
      <trkpt lat="43.68009" lon="1.82434">
        <ele>140</ele>
        <time>2013-02-21T08:48:30Z</time>
      </trkpt>
      <trkpt lat="43.68005" lon="1.82437">
        <ele>140</ele>
        <time>2013-02-21T08:48:34Z</time>
      </trkpt>
      <trkpt lat="43.68" lon="1.82438">
        <ele>140</ele>
        <time>2013-02-21T08:48:39Z</time>
      </trkpt>
      <trkpt lat="43.6799" lon="1.82444">
        <ele>140</ele>
        <time>2013-02-21T08:48:49Z</time>
      </trkpt>
      <trkpt lat="43.67986" lon="1.82447">
        <ele>139</ele>
        <time>2013-02-21T08:48:53Z</time>
      </trkpt>
      <trkpt lat="43.67981" lon="1.82451">
        <ele>139</ele>
        <time>2013-02-21T08:48:58Z</time>
      </trkpt>
      <trkpt lat="43.67977" lon="1.82455">
        <ele>141</ele>
        <time>2013-02-21T08:49:03Z</time>
      </trkpt>
      <trkpt lat="43.67969" lon="1.82464">
        <ele>142</ele>
        <time>2013-02-21T08:49:11Z</time>
      </trkpt>
      <trkpt lat="43.6796" lon="1.8247">
        <ele>141</ele>
        <time>2013-02-21T08:49:18Z</time>
      </trkpt>
      <trkpt lat="43.67954" lon="1.82476">
        <ele>140</ele>
        <time>2013-02-21T08:49:23Z</time>
      </trkpt>
      <trkpt lat="43.6795" lon="1.82481">
        <ele>140</ele>
        <time>2013-02-21T08:49:27Z</time>
      </trkpt>
      <trkpt lat="43.67946" lon="1.82485">
        <ele>140</ele>
        <time>2013-02-21T08:49:31Z</time>
      </trkpt>
      <trkpt lat="43.67941" lon="1.8249">
        <ele>140</ele>
        <time>2013-02-21T08:49:36Z</time>
      </trkpt>
      <trkpt lat="43.67937" lon="1.82494">
        <ele>141</ele>
        <time>2013-02-21T08:49:41Z</time>
      </trkpt>
      <trkpt lat="43.67933" lon="1.82498">
        <ele>141</ele>
        <time>2013-02-21T08:49:46Z</time>
      </trkpt>
      <trkpt lat="43.67929" lon="1.82502">
        <ele>141</ele>
        <time>2013-02-21T08:49:50Z</time>
      </trkpt>
      <trkpt lat="43.67925" lon="1.82505">
        <ele>141</ele>
        <time>2013-02-21T08:49:54Z</time>
      </trkpt>
      <trkpt lat="43.6792" lon="1.82509">
        <ele>141</ele>
        <time>2013-02-21T08:50:00Z</time>
      </trkpt>
      <trkpt lat="43.67916" lon="1.82513">
        <ele>141</ele>
        <time>2013-02-21T08:50:04Z</time>
      </trkpt>
      <trkpt lat="43.67911" lon="1.82514">
        <ele>140</ele>
        <time>2013-02-21T08:50:08Z</time>
      </trkpt>
      <trkpt lat="43.67902" lon="1.8252">
        <ele>140</ele>
        <time>2013-02-21T08:50:18Z</time>
      </trkpt>
      <trkpt lat="43.67893" lon="1.82521">
        <ele>141</ele>
        <time>2013-02-21T08:50:31Z</time>
      </trkpt>
      <trkpt lat="43.67883" lon="1.82521">
        <ele>141</ele>
        <time>2013-02-21T08:50:40Z</time>
      </trkpt>
      <trkpt lat="43.67874" lon="1.82523">
        <ele>141</ele>
        <time>2013-02-21T08:50:50Z</time>
      </trkpt>
      <trkpt lat="43.67864" lon="1.82525">
        <ele>141</ele>
        <time>2013-02-21T08:50:59Z</time>
      </trkpt>
      <trkpt lat="43.67854" lon="1.8253">
        <ele>142</ele>
        <time>2013-02-21T08:51:04Z</time>
      </trkpt>
      <trkpt lat="43.67849" lon="1.82532">
        <ele>142</ele>
        <time>2013-02-21T08:51:06Z</time>
      </trkpt>
      <trkpt lat="43.67844" lon="1.82535">
        <ele>142</ele>
        <time>2013-02-21T08:51:09Z</time>
      </trkpt>
      <trkpt lat="43.67836" lon="1.82537">
        <ele>143</ele>
        <time>2013-02-21T08:51:15Z</time>
      </trkpt>
      <trkpt lat="43.67832" lon="1.82537">
        <ele>143</ele>
        <time>2013-02-21T08:51:19Z</time>
      </trkpt>
      <trkpt lat="43.67826" lon="1.82537">
        <ele>143</ele>
        <time>2013-02-21T08:51:23Z</time>
      </trkpt>
      <trkpt lat="43.67822" lon="1.82539">
        <ele>142</ele>
        <time>2013-02-21T08:51:26Z</time>
      </trkpt>
      <trkpt lat="43.67815" lon="1.8254">
        <ele>142</ele>
        <time>2013-02-21T08:51:31Z</time>
      </trkpt>
      <trkpt lat="43.6781" lon="1.82542">
        <ele>142</ele>
        <time>2013-02-21T08:51:37Z</time>
      </trkpt>
      <trkpt lat="43.67805" lon="1.82542">
        <ele>141</ele>
        <time>2013-02-21T08:51:42Z</time>
      </trkpt>
      <trkpt lat="43.67798" lon="1.82542">
        <ele>142</ele>
        <time>2013-02-21T08:51:49Z</time>
      </trkpt>
      <trkpt lat="43.67794" lon="1.82545">
        <ele>141</ele>
        <time>2013-02-21T08:51:55Z</time>
      </trkpt>
      <trkpt lat="43.67784" lon="1.82553">
        <ele>140</ele>
        <time>2013-02-21T08:52:07Z</time>
      </trkpt>
      <trkpt lat="43.67777" lon="1.8256">
        <ele>140</ele>
        <time>2013-02-21T08:52:14Z</time>
      </trkpt>
      <trkpt lat="43.67768" lon="1.82566">
        <ele>141</ele>
        <time>2013-02-21T08:52:23Z</time>
      </trkpt>
      <trkpt lat="43.6776" lon="1.82574">
        <ele>143</ele>
        <time>2013-02-21T08:52:31Z</time>
      </trkpt>
      <trkpt lat="43.67752" lon="1.82582">
        <ele>143</ele>
        <time>2013-02-21T08:52:41Z</time>
      </trkpt>
      <trkpt lat="43.67744" lon="1.8259">
        <ele>144</ele>
        <time>2013-02-21T08:52:52Z</time>
      </trkpt>
      <trkpt lat="43.67735" lon="1.82596">
        <ele>145</ele>
        <time>2013-02-21T08:53:01Z</time>
      </trkpt>
      <trkpt lat="43.67727" lon="1.82605">
        <ele>144</ele>
        <time>2013-02-21T08:53:11Z</time>
      </trkpt>
      <trkpt lat="43.67719" lon="1.82611">
        <ele>145</ele>
        <time>2013-02-21T08:53:18Z</time>
      </trkpt>
      <trkpt lat="43.67711" lon="1.82618">
        <ele>146</ele>
        <time>2013-02-21T08:53:26Z</time>
      </trkpt>
      <trkpt lat="43.67704" lon="1.82628">
        <ele>146</ele>
        <time>2013-02-21T08:53:33Z</time>
      </trkpt>
      <trkpt lat="43.67697" lon="1.82637">
        <ele>146</ele>
        <time>2013-02-21T08:53:39Z</time>
      </trkpt>
      <trkpt lat="43.67689" lon="1.82644">
        <ele>146</ele>
        <time>2013-02-21T08:53:48Z</time>
      </trkpt>
      <trkpt lat="43.67682" lon="1.82651">
        <ele>145</ele>
        <time>2013-02-21T08:53:56Z</time>
      </trkpt>
      <trkpt lat="43.67677" lon="1.82657">
        <ele>145</ele>
        <time>2013-02-21T08:54:01Z</time>
      </trkpt>
      <trkpt lat="43.67672" lon="1.82661">
        <ele>145</ele>
        <time>2013-02-21T08:54:05Z</time>
      </trkpt>
      <trkpt lat="43.67668" lon="1.82665">
        <ele>145</ele>
        <time>2013-02-21T08:54:10Z</time>
      </trkpt>
      <trkpt lat="43.6766" lon="1.82671">
        <ele>145</ele>
        <time>2013-02-21T08:54:18Z</time>
      </trkpt>
      <trkpt lat="43.67652" lon="1.82678">
        <ele>146</ele>
        <time>2013-02-21T08:54:26Z</time>
      </trkpt>
      <trkpt lat="43.67645" lon="1.82682">
        <ele>146</ele>
        <time>2013-02-21T08:54:33Z</time>
      </trkpt>
      <trkpt lat="43.6764" lon="1.82686">
        <ele>146</ele>
        <time>2013-02-21T08:54:37Z</time>
      </trkpt>
      <trkpt lat="43.67635" lon="1.82688">
        <ele>146</ele>
        <time>2013-02-21T08:54:41Z</time>
      </trkpt>
      <trkpt lat="43.6763" lon="1.82689">
        <ele>146</ele>
        <time>2013-02-21T08:54:45Z</time>
      </trkpt>
      <trkpt lat="43.67624" lon="1.82689">
        <ele>146</ele>
        <time>2013-02-21T08:54:49Z</time>
      </trkpt>
      <trkpt lat="43.6762" lon="1.82689">
        <ele>146</ele>
        <time>2013-02-21T08:54:54Z</time>
      </trkpt>
      <trkpt lat="43.67615" lon="1.8269">
        <ele>146</ele>
        <time>2013-02-21T08:54:58Z</time>
      </trkpt>
      <trkpt lat="43.67609" lon="1.82689">
        <ele>146</ele>
        <time>2013-02-21T08:55:03Z</time>
      </trkpt>
      <trkpt lat="43.67604" lon="1.82688">
        <ele>147</ele>
        <time>2013-02-21T08:55:07Z</time>
      </trkpt>
      <trkpt lat="43.67599" lon="1.82687">
        <ele>147</ele>
        <time>2013-02-21T08:55:11Z</time>
      </trkpt>
      <trkpt lat="43.67595" lon="1.82685">
        <ele>147</ele>
        <time>2013-02-21T08:55:15Z</time>
      </trkpt>
      <trkpt lat="43.6759" lon="1.82683">
        <ele>147</ele>
        <time>2013-02-21T08:55:19Z</time>
      </trkpt>
      <trkpt lat="43.67585" lon="1.82681">
        <ele>147</ele>
        <time>2013-02-21T08:55:24Z</time>
      </trkpt>
      <trkpt lat="43.6758" lon="1.82679">
        <ele>147</ele>
        <time>2013-02-21T08:55:29Z</time>
      </trkpt>
      <trkpt lat="43.67575" lon="1.82677">
        <ele>146</ele>
        <time>2013-02-21T08:55:36Z</time>
      </trkpt>
      <trkpt lat="43.67569" lon="1.82676">
        <ele>146</ele>
        <time>2013-02-21T08:55:40Z</time>
      </trkpt>
      <trkpt lat="43.67565" lon="1.82675">
        <ele>145</ele>
        <time>2013-02-21T08:55:44Z</time>
      </trkpt>
      <trkpt lat="43.6756" lon="1.82674">
        <ele>145</ele>
        <time>2013-02-21T08:55:49Z</time>
      </trkpt>
      <trkpt lat="43.67554" lon="1.82673">
        <ele>145</ele>
        <time>2013-02-21T08:55:53Z</time>
      </trkpt>
      <trkpt lat="43.67549" lon="1.82671">
        <ele>144</ele>
        <time>2013-02-21T08:55:57Z</time>
      </trkpt>
      <trkpt lat="43.67544" lon="1.8267">
        <ele>143</ele>
        <time>2013-02-21T08:56:01Z</time>
      </trkpt>
      <trkpt lat="43.67539" lon="1.82669">
        <ele>144</ele>
        <time>2013-02-21T08:56:06Z</time>
      </trkpt>
      <trkpt lat="43.67533" lon="1.82667">
        <ele>145</ele>
        <time>2013-02-21T08:56:10Z</time>
      </trkpt>
      <trkpt lat="43.67524" lon="1.82668">
        <ele>146</ele>
        <time>2013-02-21T08:56:18Z</time>
      </trkpt>
      <trkpt lat="43.67514" lon="1.82666">
        <ele>147</ele>
        <time>2013-02-21T08:56:27Z</time>
      </trkpt>
      <trkpt lat="43.67504" lon="1.82662">
        <ele>147</ele>
        <time>2013-02-21T08:56:33Z</time>
      </trkpt>
      <trkpt lat="43.675" lon="1.82663">
        <ele>148</ele>
        <time>2013-02-21T08:56:38Z</time>
      </trkpt>
      <trkpt lat="43.67494" lon="1.82663">
        <ele>148</ele>
        <time>2013-02-21T08:56:42Z</time>
      </trkpt>
      <trkpt lat="43.67489" lon="1.82662">
        <ele>148</ele>
        <time>2013-02-21T08:56:46Z</time>
      </trkpt>
      <trkpt lat="43.67484" lon="1.8266">
        <ele>148</ele>
        <time>2013-02-21T08:56:52Z</time>
      </trkpt>
      <trkpt lat="43.67479" lon="1.82659">
        <ele>148</ele>
        <time>2013-02-21T08:56:56Z</time>
      </trkpt>
      <trkpt lat="43.67474" lon="1.82658">
        <ele>148</ele>
        <time>2013-02-21T08:57:01Z</time>
      </trkpt>
      <trkpt lat="43.67469" lon="1.82657">
        <ele>148</ele>
        <time>2013-02-21T08:57:05Z</time>
      </trkpt>
      <trkpt lat="43.67464" lon="1.82656">
        <ele>148</ele>
        <time>2013-02-21T08:57:09Z</time>
      </trkpt>
      <trkpt lat="43.67459" lon="1.82654">
        <ele>147</ele>
        <time>2013-02-21T08:57:13Z</time>
      </trkpt>
      <trkpt lat="43.67454" lon="1.82653">
        <ele>147</ele>
        <time>2013-02-21T08:57:18Z</time>
      </trkpt>
      <trkpt lat="43.67448" lon="1.82652">
        <ele>148</ele>
        <time>2013-02-21T08:57:23Z</time>
      </trkpt>
      <trkpt lat="43.67443" lon="1.8265">
        <ele>147</ele>
        <time>2013-02-21T08:57:27Z</time>
      </trkpt>
      <trkpt lat="43.67434" lon="1.82646">
        <ele>147</ele>
        <time>2013-02-21T08:57:38Z</time>
      </trkpt>
      <trkpt lat="43.67428" lon="1.82642">
        <ele>148</ele>
        <time>2013-02-21T08:57:44Z</time>
      </trkpt>
      <trkpt lat="43.67424" lon="1.8264">
        <ele>148</ele>
        <time>2013-02-21T08:57:47Z</time>
      </trkpt>
      <trkpt lat="43.67414" lon="1.82634">
        <ele>146</ele>
        <time>2013-02-21T08:57:55Z</time>
      </trkpt>
      <trkpt lat="43.6741" lon="1.82632">
        <ele>144</ele>
        <time>2013-02-21T08:57:59Z</time>
      </trkpt>
      <trkpt lat="43.674" lon="1.82626">
        <ele>144</ele>
        <time>2013-02-21T08:58:07Z</time>
      </trkpt>
      <trkpt lat="43.67396" lon="1.82622">
        <ele>145</ele>
        <time>2013-02-21T08:58:10Z</time>
      </trkpt>
      <trkpt lat="43.67392" lon="1.82619">
        <ele>146</ele>
        <time>2013-02-21T08:58:15Z</time>
      </trkpt>
      <trkpt lat="43.67388" lon="1.82616">
        <ele>147</ele>
        <time>2013-02-21T08:58:19Z</time>
      </trkpt>
      <trkpt lat="43.6738" lon="1.82609">
        <ele>148</ele>
        <time>2013-02-21T08:58:27Z</time>
      </trkpt>
      <trkpt lat="43.67372" lon="1.82602">
        <ele>149</ele>
        <time>2013-02-21T08:58:34Z</time>
      </trkpt>
      <trkpt lat="43.67363" lon="1.82597">
        <ele>149</ele>
        <time>2013-02-21T08:58:44Z</time>
      </trkpt>
      <trkpt lat="43.67357" lon="1.82594">
        <ele>148</ele>
        <time>2013-02-21T08:58:48Z</time>
      </trkpt>
      <trkpt lat="43.67348" lon="1.82589">
        <ele>150</ele>
        <time>2013-02-21T08:58:57Z</time>
      </trkpt>
      <trkpt lat="43.67341" lon="1.82584">
        <ele>150</ele>
        <time>2013-02-21T08:59:04Z</time>
      </trkpt>
      <trkpt lat="43.67337" lon="1.82581">
        <ele>150</ele>
        <time>2013-02-21T08:59:08Z</time>
      </trkpt>
      <trkpt lat="43.67333" lon="1.82578">
        <ele>150</ele>
        <time>2013-02-21T08:59:12Z</time>
      </trkpt>
      <trkpt lat="43.67329" lon="1.82575">
        <ele>149</ele>
        <time>2013-02-21T08:59:16Z</time>
      </trkpt>
      <trkpt lat="43.67324" lon="1.82572">
        <ele>149</ele>
        <time>2013-02-21T08:59:20Z</time>
      </trkpt>
      <trkpt lat="43.67315" lon="1.82569">
        <ele>149</ele>
        <time>2013-02-21T08:59:28Z</time>
      </trkpt>
      <trkpt lat="43.67306" lon="1.82566">
        <ele>149</ele>
        <time>2013-02-21T08:59:36Z</time>
      </trkpt>
      <trkpt lat="43.67301" lon="1.82565">
        <ele>149</ele>
        <time>2013-02-21T08:59:40Z</time>
      </trkpt>
      <trkpt lat="43.67296" lon="1.82564">
        <ele>149</ele>
        <time>2013-02-21T08:59:44Z</time>
      </trkpt>
      <trkpt lat="43.67291" lon="1.82564">
        <ele>148</ele>
        <time>2013-02-21T08:59:48Z</time>
      </trkpt>
      <trkpt lat="43.67282" lon="1.82561">
        <ele>149</ele>
        <time>2013-02-21T08:59:56Z</time>
      </trkpt>
      <trkpt lat="43.67278" lon="1.82561">
        <ele>149</ele>
        <time>2013-02-21T09:00:00Z</time>
      </trkpt>
      <trkpt lat="43.67273" lon="1.8256">
        <ele>149</ele>
        <time>2013-02-21T09:00:05Z</time>
      </trkpt>
      <trkpt lat="43.67264" lon="1.82559">
        <ele>148</ele>
        <time>2013-02-21T09:00:14Z</time>
      </trkpt>
      <trkpt lat="43.67259" lon="1.82556">
        <ele>148</ele>
        <time>2013-02-21T09:00:19Z</time>
      </trkpt>
      <trkpt lat="43.6725" lon="1.82556">
        <ele>147</ele>
        <time>2013-02-21T09:00:28Z</time>
      </trkpt>
      <trkpt lat="43.6724" lon="1.82554">
        <ele>146</ele>
        <time>2013-02-21T09:00:36Z</time>
      </trkpt>
      <trkpt lat="43.67231" lon="1.8255">
        <ele>147</ele>
        <time>2013-02-21T09:00:45Z</time>
      </trkpt>
      <trkpt lat="43.67219" lon="1.8254">
        <ele>148</ele>
        <time>2013-02-21T09:01:00Z</time>
      </trkpt>
      <trkpt lat="43.67209" lon="1.82541">
        <ele>148</ele>
        <time>2013-02-21T09:01:06Z</time>
      </trkpt>
      <trkpt lat="43.67199" lon="1.82543">
        <ele>149</ele>
        <time>2013-02-21T09:01:13Z</time>
      </trkpt>
      <trkpt lat="43.67189" lon="1.82544">
        <ele>149</ele>
        <time>2013-02-21T09:01:19Z</time>
      </trkpt>
      <trkpt lat="43.6718" lon="1.82541">
        <ele>152</ele>
        <time>2013-02-21T09:01:30Z</time>
      </trkpt>
      <trkpt lat="43.6717" lon="1.82539">
        <ele>155</ele>
        <time>2013-02-21T09:01:41Z</time>
      </trkpt>
      <trkpt lat="43.67161" lon="1.82535">
        <ele>157</ele>
        <time>2013-02-21T09:01:49Z</time>
      </trkpt>
      <trkpt lat="43.6715" lon="1.82533">
        <ele>157</ele>
        <time>2013-02-21T09:01:58Z</time>
      </trkpt>
      <trkpt lat="43.67144" lon="1.82533">
        <ele>157</ele>
        <time>2013-02-21T09:02:11Z</time>
      </trkpt>
      <trkpt lat="43.67141" lon="1.82535">
        <ele>156</ele>
        <time>2013-02-21T09:03:02Z</time>
      </trkpt>
      <trkpt lat="43.67133" lon="1.82536">
        <ele>165</ele>
        <time>2013-02-21T09:04:44Z</time>
      </trkpt>
      <trkpt lat="43.67128" lon="1.82546">
        <ele>168</ele>
        <time>2013-02-21T09:04:52Z</time>
      </trkpt>
      <trkpt lat="43.67123" lon="1.82561">
        <ele>168</ele>
        <time>2013-02-21T09:05:06Z</time>
      </trkpt>
      <trkpt lat="43.67117" lon="1.82565">
        <ele>158</ele>
        <time>2013-02-21T09:05:26Z</time>
      </trkpt>
      <trkpt lat="43.67107" lon="1.82563">
        <ele>157</ele>
        <time>2013-02-21T09:05:45Z</time>
      </trkpt>
      <trkpt lat="43.67098" lon="1.82566">
        <ele>159</ele>
        <time>2013-02-21T09:05:53Z</time>
      </trkpt>
      <trkpt lat="43.6709" lon="1.82572">
        <ele>160</ele>
        <time>2013-02-21T09:06:01Z</time>
      </trkpt>
      <trkpt lat="43.67081" lon="1.82577">
        <ele>160</ele>
        <time>2013-02-21T09:06:12Z</time>
      </trkpt>
      <trkpt lat="43.67071" lon="1.82582">
        <ele>161</ele>
        <time>2013-02-21T09:06:26Z</time>
      </trkpt>
      <trkpt lat="43.67058" lon="1.82589">
        <ele>164</ele>
        <time>2013-02-21T09:06:42Z</time>
      </trkpt>
      <trkpt lat="43.67049" lon="1.82594">
        <ele>165</ele>
        <time>2013-02-21T09:06:52Z</time>
      </trkpt>
      <trkpt lat="43.67041" lon="1.82601">
        <ele>166</ele>
        <time>2013-02-21T09:07:01Z</time>
      </trkpt>
      <trkpt lat="43.67033" lon="1.826">
        <ele>167</ele>
        <time>2013-02-21T09:07:20Z</time>
      </trkpt>
      <trkpt lat="43.67023" lon="1.82611">
        <ele>168</ele>
        <time>2013-02-21T09:07:35Z</time>
      </trkpt>
      <trkpt lat="43.67017" lon="1.8262">
        <ele>165</ele>
        <time>2013-02-21T09:07:49Z</time>
      </trkpt>
      <trkpt lat="43.6701" lon="1.82629">
        <ele>165</ele>
        <time>2013-02-21T09:07:54Z</time>
      </trkpt>
      <trkpt lat="43.67005" lon="1.8264">
        <ele>167</ele>
        <time>2013-02-21T09:08:05Z</time>
      </trkpt>
      <trkpt lat="43.66998" lon="1.82649">
        <ele>169</ele>
        <time>2013-02-21T09:08:21Z</time>
      </trkpt>
      <trkpt lat="43.66993" lon="1.82653">
        <ele>169</ele>
        <time>2013-02-21T09:08:31Z</time>
      </trkpt>
      <trkpt lat="43.66988" lon="1.82662">
        <ele>169</ele>
        <time>2013-02-21T09:08:42Z</time>
      </trkpt>
      <trkpt lat="43.66986" lon="1.82668">
        <ele>170</ele>
        <time>2013-02-21T09:08:49Z</time>
      </trkpt>
      <trkpt lat="43.66982" lon="1.82674">
        <ele>172</ele>
        <time>2013-02-21T09:09:05Z</time>
      </trkpt>
      <trkpt lat="43.66979" lon="1.82679">
        <ele>173</ele>
        <time>2013-02-21T09:09:11Z</time>
      </trkpt>
      <trkpt lat="43.66974" lon="1.8269">
        <ele>174</ele>
        <time>2013-02-21T09:09:19Z</time>
      </trkpt>
      <trkpt lat="43.66971" lon="1.82695">
        <ele>175</ele>
        <time>2013-02-21T09:09:24Z</time>
      </trkpt>
      <trkpt lat="43.66965" lon="1.82702">
        <ele>176</ele>
        <time>2013-02-21T09:09:33Z</time>
      </trkpt>
      <trkpt lat="43.66959" lon="1.82711">
        <ele>177</ele>
        <time>2013-02-21T09:09:41Z</time>
      </trkpt>
      <trkpt lat="43.66955" lon="1.82715">
        <ele>178</ele>
        <time>2013-02-21T09:09:46Z</time>
      </trkpt>
      <trkpt lat="43.66949" lon="1.82725">
        <ele>178</ele>
        <time>2013-02-21T09:10:00Z</time>
      </trkpt>
      <trkpt lat="43.66942" lon="1.82734">
        <ele>180</ele>
        <time>2013-02-21T09:10:14Z</time>
      </trkpt>
      <trkpt lat="43.66936" lon="1.82743">
        <ele>179</ele>
        <time>2013-02-21T09:10:25Z</time>
      </trkpt>
      <trkpt lat="43.66933" lon="1.82748">
        <ele>178</ele>
        <time>2013-02-21T09:10:31Z</time>
      </trkpt>
      <trkpt lat="43.66927" lon="1.82759">
        <ele>178</ele>
        <time>2013-02-21T09:10:41Z</time>
      </trkpt>
      <trkpt lat="43.66922" lon="1.8277">
        <ele>179</ele>
        <time>2013-02-21T09:10:49Z</time>
      </trkpt>
      <trkpt lat="43.66919" lon="1.82776">
        <ele>179</ele>
        <time>2013-02-21T09:10:53Z</time>
      </trkpt>
      <trkpt lat="43.66917" lon="1.82781">
        <ele>180</ele>
        <time>2013-02-21T09:10:57Z</time>
      </trkpt>
      <trkpt lat="43.66912" lon="1.82788">
        <ele>178</ele>
        <time>2013-02-21T09:11:03Z</time>
      </trkpt>
      <trkpt lat="43.6691" lon="1.82794">
        <ele>179</ele>
        <time>2013-02-21T09:11:07Z</time>
      </trkpt>
      <trkpt lat="43.66904" lon="1.82803">
        <ele>179</ele>
        <time>2013-02-21T09:11:18Z</time>
      </trkpt>
      <trkpt lat="43.66901" lon="1.82809">
        <ele>179</ele>
        <time>2013-02-21T09:11:26Z</time>
      </trkpt>
      <trkpt lat="43.66894" lon="1.82819">
        <ele>180</ele>
        <time>2013-02-21T09:11:39Z</time>
      </trkpt>
      <trkpt lat="43.66889" lon="1.8283">
        <ele>177</ele>
        <time>2013-02-21T09:11:47Z</time>
      </trkpt>
      <trkpt lat="43.66883" lon="1.82839">
        <ele>176</ele>
        <time>2013-02-21T09:11:56Z</time>
      </trkpt>
      <trkpt lat="43.66877" lon="1.82847">
        <ele>179</ele>
        <time>2013-02-21T09:12:03Z</time>
      </trkpt>
      <trkpt lat="43.66873" lon="1.82852">
        <ele>181</ele>
        <time>2013-02-21T09:12:07Z</time>
      </trkpt>
      <trkpt lat="43.6687" lon="1.82858">
        <ele>183</ele>
        <time>2013-02-21T09:12:11Z</time>
      </trkpt>
      <trkpt lat="43.66866" lon="1.82864">
        <ele>185</ele>
        <time>2013-02-21T09:12:16Z</time>
      </trkpt>
      <trkpt lat="43.66863" lon="1.8287">
        <ele>186</ele>
        <time>2013-02-21T09:12:20Z</time>
      </trkpt>
      <trkpt lat="43.66861" lon="1.82875">
        <ele>185</ele>
        <time>2013-02-21T09:12:24Z</time>
      </trkpt>
      <trkpt lat="43.66857" lon="1.82881">
        <ele>185</ele>
        <time>2013-02-21T09:12:29Z</time>
      </trkpt>
      <trkpt lat="43.66854" lon="1.82888">
        <ele>184</ele>
        <time>2013-02-21T09:12:36Z</time>
      </trkpt>
      <trkpt lat="43.6685" lon="1.82893">
        <ele>184</ele>
        <time>2013-02-21T09:12:40Z</time>
      </trkpt>
      <trkpt lat="43.66847" lon="1.82898">
        <ele>185</ele>
        <time>2013-02-21T09:12:46Z</time>
      </trkpt>
      <trkpt lat="43.66844" lon="1.82904">
        <ele>186</ele>
        <time>2013-02-21T09:12:51Z</time>
      </trkpt>
      <trkpt lat="43.66841" lon="1.82909">
        <ele>184</ele>
        <time>2013-02-21T09:12:56Z</time>
      </trkpt>
      <trkpt lat="43.66838" lon="1.82914">
        <ele>183</ele>
        <time>2013-02-21T09:13:02Z</time>
      </trkpt>
      <trkpt lat="43.66835" lon="1.82919">
        <ele>182</ele>
        <time>2013-02-21T09:13:08Z</time>
      </trkpt>
      <trkpt lat="43.66832" lon="1.82924">
        <ele>182</ele>
        <time>2013-02-21T09:13:12Z</time>
      </trkpt>
      <trkpt lat="43.66829" lon="1.8293">
        <ele>181</ele>
        <time>2013-02-21T09:13:17Z</time>
      </trkpt>
      <trkpt lat="43.66826" lon="1.82936">
        <ele>180</ele>
        <time>2013-02-21T09:13:22Z</time>
      </trkpt>
      <trkpt lat="43.66824" lon="1.82942">
        <ele>180</ele>
        <time>2013-02-21T09:13:26Z</time>
      </trkpt>
      <trkpt lat="43.6682" lon="1.82946">
        <ele>182</ele>
        <time>2013-02-21T09:13:30Z</time>
      </trkpt>
      <trkpt lat="43.66817" lon="1.82952">
        <ele>184</ele>
        <time>2013-02-21T09:13:36Z</time>
      </trkpt>
      <trkpt lat="43.66814" lon="1.82957">
        <ele>185</ele>
        <time>2013-02-21T09:13:40Z</time>
      </trkpt>
      <trkpt lat="43.66811" lon="1.82963">
        <ele>186</ele>
        <time>2013-02-21T09:13:44Z</time>
      </trkpt>
      <trkpt lat="43.66808" lon="1.82968">
        <ele>186</ele>
        <time>2013-02-21T09:13:48Z</time>
      </trkpt>
      <trkpt lat="43.66805" lon="1.82973">
        <ele>185</ele>
        <time>2013-02-21T09:13:54Z</time>
      </trkpt>
      <trkpt lat="43.66802" lon="1.82979">
        <ele>185</ele>
        <time>2013-02-21T09:13:58Z</time>
      </trkpt>
      <trkpt lat="43.66799" lon="1.82984">
        <ele>185</ele>
        <time>2013-02-21T09:14:03Z</time>
      </trkpt>
      <trkpt lat="43.66797" lon="1.8299">
        <ele>184</ele>
        <time>2013-02-21T09:14:07Z</time>
      </trkpt>
      <trkpt lat="43.66794" lon="1.82995">
        <ele>184</ele>
        <time>2013-02-21T09:14:11Z</time>
      </trkpt>
      <trkpt lat="43.6679" lon="1.83">
        <ele>183</ele>
        <time>2013-02-21T09:14:17Z</time>
      </trkpt>
      <trkpt lat="43.66787" lon="1.83005">
        <ele>185</ele>
        <time>2013-02-21T09:14:23Z</time>
      </trkpt>
      <trkpt lat="43.66785" lon="1.83011">
        <ele>184</ele>
        <time>2013-02-21T09:14:29Z</time>
      </trkpt>
      <trkpt lat="43.66781" lon="1.83017">
        <ele>184</ele>
        <time>2013-02-21T09:14:34Z</time>
      </trkpt>
      <trkpt lat="43.66778" lon="1.83023">
        <ele>184</ele>
        <time>2013-02-21T09:14:39Z</time>
      </trkpt>
      <trkpt lat="43.66775" lon="1.8303">
        <ele>184</ele>
        <time>2013-02-21T09:14:44Z</time>
      </trkpt>
      <trkpt lat="43.66771" lon="1.83038">
        <ele>184</ele>
        <time>2013-02-21T09:14:49Z</time>
      </trkpt>
      <trkpt lat="43.66768" lon="1.83043">
        <ele>184</ele>
        <time>2013-02-21T09:14:55Z</time>
      </trkpt>
      <trkpt lat="43.66765" lon="1.83048">
        <ele>185</ele>
        <time>2013-02-21T09:15:01Z</time>
      </trkpt>
      <trkpt lat="43.66762" lon="1.83053">
        <ele>185</ele>
        <time>2013-02-21T09:15:06Z</time>
      </trkpt>
      <trkpt lat="43.66759" lon="1.83058">
        <ele>186</ele>
        <time>2013-02-21T09:15:12Z</time>
      </trkpt>
      <trkpt lat="43.6675" lon="1.83065">
        <ele>191</ele>
        <time>2013-02-21T09:15:25Z</time>
      </trkpt>
      <trkpt lat="43.66748" lon="1.83071">
        <ele>190</ele>
        <time>2013-02-21T09:15:34Z</time>
      </trkpt>
      <trkpt lat="43.66745" lon="1.83081">
        <ele>189</ele>
        <time>2013-02-21T09:15:52Z</time>
      </trkpt>
      <trkpt lat="43.66742" lon="1.83086">
        <ele>189</ele>
        <time>2013-02-21T09:15:57Z</time>
      </trkpt>
      <trkpt lat="43.66738" lon="1.83096">
        <ele>188</ele>
        <time>2013-02-21T09:16:03Z</time>
      </trkpt>
      <trkpt lat="43.66736" lon="1.83103">
        <ele>188</ele>
        <time>2013-02-21T09:16:07Z</time>
      </trkpt>
      <trkpt lat="43.66731" lon="1.83112">
        <ele>186</ele>
        <time>2013-02-21T09:16:14Z</time>
      </trkpt>
      <trkpt lat="43.66727" lon="1.83115">
        <ele>187</ele>
        <time>2013-02-21T09:16:18Z</time>
      </trkpt>
      <trkpt lat="43.66724" lon="1.8312">
        <ele>187</ele>
        <time>2013-02-21T09:16:23Z</time>
      </trkpt>
      <trkpt lat="43.66717" lon="1.8313">
        <ele>189</ele>
        <time>2013-02-21T09:16:35Z</time>
      </trkpt>
      <trkpt lat="43.66709" lon="1.83137">
        <ele>193</ele>
        <time>2013-02-21T09:16:49Z</time>
      </trkpt>
      <trkpt lat="43.66702" lon="1.83146">
        <ele>194</ele>
        <time>2013-02-21T09:16:54Z</time>
      </trkpt>
      <trkpt lat="43.66699" lon="1.83151">
        <ele>194</ele>
        <time>2013-02-21T09:16:57Z</time>
      </trkpt>
      <trkpt lat="43.66696" lon="1.83158">
        <ele>194</ele>
        <time>2013-02-21T09:17:03Z</time>
      </trkpt>
      <trkpt lat="43.6669" lon="1.83168">
        <ele>195</ele>
        <time>2013-02-21T09:17:14Z</time>
      </trkpt>
      <trkpt lat="43.66686" lon="1.83174">
        <ele>195</ele>
        <time>2013-02-21T09:17:21Z</time>
      </trkpt>
      <trkpt lat="43.66682" lon="1.83179">
        <ele>195</ele>
        <time>2013-02-21T09:17:25Z</time>
      </trkpt>
      <trkpt lat="43.66678" lon="1.83187">
        <ele>194</ele>
        <time>2013-02-21T09:17:32Z</time>
      </trkpt>
      <trkpt lat="43.66675" lon="1.83192">
        <ele>194</ele>
        <time>2013-02-21T09:17:37Z</time>
      </trkpt>
      <trkpt lat="43.66668" lon="1.83201">
        <ele>193</ele>
        <time>2013-02-21T09:17:46Z</time>
      </trkpt>
      <trkpt lat="43.66665" lon="1.83206">
        <ele>193</ele>
        <time>2013-02-21T09:17:50Z</time>
      </trkpt>
      <trkpt lat="43.66662" lon="1.83211">
        <ele>193</ele>
        <time>2013-02-21T09:17:54Z</time>
      </trkpt>
      <trkpt lat="43.66658" lon="1.83218">
        <ele>193</ele>
        <time>2013-02-21T09:18:01Z</time>
      </trkpt>
      <trkpt lat="43.66655" lon="1.83222">
        <ele>193</ele>
        <time>2013-02-21T09:18:06Z</time>
      </trkpt>
      <trkpt lat="43.66651" lon="1.83226">
        <ele>193</ele>
        <time>2013-02-21T09:18:11Z</time>
      </trkpt>
      <trkpt lat="43.66648" lon="1.83237">
        <ele>193</ele>
        <time>2013-02-21T09:18:22Z</time>
      </trkpt>
      <trkpt lat="43.66645" lon="1.83245">
        <ele>192</ele>
        <time>2013-02-21T09:18:28Z</time>
      </trkpt>
      <trkpt lat="43.66642" lon="1.83251">
        <ele>192</ele>
        <time>2013-02-21T09:18:32Z</time>
      </trkpt>
      <trkpt lat="43.66639" lon="1.83256">
        <ele>192</ele>
        <time>2013-02-21T09:18:35Z</time>
      </trkpt>
      <trkpt lat="43.66636" lon="1.83262">
        <ele>192</ele>
        <time>2013-02-21T09:18:40Z</time>
      </trkpt>
      <trkpt lat="43.6663" lon="1.83272">
        <ele>193</ele>
        <time>2013-02-21T09:18:48Z</time>
      </trkpt>
      <trkpt lat="43.66624" lon="1.83281">
        <ele>193</ele>
        <time>2013-02-21T09:18:57Z</time>
      </trkpt>
      <trkpt lat="43.66619" lon="1.83289">
        <ele>192</ele>
        <time>2013-02-21T09:19:03Z</time>
      </trkpt>
      <trkpt lat="43.66614" lon="1.83295">
        <ele>192</ele>
        <time>2013-02-21T09:19:10Z</time>
      </trkpt>
      <trkpt lat="43.66604" lon="1.833">
        <ele>196</ele>
        <time>2013-02-21T09:19:23Z</time>
      </trkpt>
      <trkpt lat="43.66599" lon="1.83301">
        <ele>196</ele>
        <time>2013-02-21T09:19:27Z</time>
      </trkpt>
      <trkpt lat="43.66594" lon="1.83303">
        <ele>195</ele>
        <time>2013-02-21T09:19:32Z</time>
      </trkpt>
      <trkpt lat="43.6659" lon="1.83305">
        <ele>195</ele>
        <time>2013-02-21T09:19:36Z</time>
      </trkpt>
      <trkpt lat="43.66585" lon="1.83307">
        <ele>193</ele>
        <time>2013-02-21T09:19:41Z</time>
      </trkpt>
      <trkpt lat="43.66576" lon="1.83311">
        <ele>194</ele>
        <time>2013-02-21T09:19:47Z</time>
      </trkpt>
      <trkpt lat="43.66567" lon="1.83315">
        <ele>194</ele>
        <time>2013-02-21T09:19:57Z</time>
      </trkpt>
      <trkpt lat="43.66561" lon="1.83318">
        <ele>194</ele>
        <time>2013-02-21T09:20:02Z</time>
      </trkpt>
      <trkpt lat="43.66556" lon="1.8332">
        <ele>195</ele>
        <time>2013-02-21T09:20:07Z</time>
      </trkpt>
      <trkpt lat="43.66551" lon="1.83322">
        <ele>195</ele>
        <time>2013-02-21T09:20:12Z</time>
      </trkpt>
      <trkpt lat="43.66547" lon="1.83325">
        <ele>196</ele>
        <time>2013-02-21T09:20:16Z</time>
      </trkpt>
      <trkpt lat="43.66543" lon="1.83329">
        <ele>196</ele>
        <time>2013-02-21T09:20:20Z</time>
      </trkpt>
      <trkpt lat="43.66539" lon="1.83333">
        <ele>196</ele>
        <time>2013-02-21T09:20:24Z</time>
      </trkpt>
      <trkpt lat="43.66531" lon="1.83339">
        <ele>194</ele>
        <time>2013-02-21T09:20:38Z</time>
      </trkpt>
      <trkpt lat="43.66523" lon="1.83348">
        <ele>195</ele>
        <time>2013-02-21T09:20:46Z</time>
      </trkpt>
      <trkpt lat="43.66517" lon="1.83356">
        <ele>195</ele>
        <time>2013-02-21T09:20:55Z</time>
      </trkpt>
      <trkpt lat="43.66513" lon="1.8336">
        <ele>196</ele>
        <time>2013-02-21T09:21:00Z</time>
      </trkpt>
      <trkpt lat="43.66509" lon="1.83364">
        <ele>195</ele>
        <time>2013-02-21T09:21:04Z</time>
      </trkpt>
      <trkpt lat="43.66505" lon="1.83368">
        <ele>195</ele>
        <time>2013-02-21T09:21:08Z</time>
      </trkpt>
      <trkpt lat="43.66502" lon="1.83373">
        <ele>195</ele>
        <time>2013-02-21T09:21:12Z</time>
      </trkpt>
      <trkpt lat="43.66498" lon="1.83378">
        <ele>195</ele>
        <time>2013-02-21T09:21:17Z</time>
      </trkpt>
      <trkpt lat="43.66494" lon="1.83382">
        <ele>197</ele>
        <time>2013-02-21T09:21:21Z</time>
      </trkpt>
      <trkpt lat="43.6649" lon="1.83387">
        <ele>196</ele>
        <time>2013-02-21T09:21:27Z</time>
      </trkpt>
      <trkpt lat="43.66486" lon="1.83392">
        <ele>193</ele>
        <time>2013-02-21T09:21:34Z</time>
      </trkpt>
      <trkpt lat="43.66482" lon="1.83397">
        <ele>192</ele>
        <time>2013-02-21T09:21:40Z</time>
      </trkpt>
      <trkpt lat="43.66474" lon="1.83403">
        <ele>192</ele>
        <time>2013-02-21T09:21:51Z</time>
      </trkpt>
      <trkpt lat="43.66464" lon="1.8341">
        <ele>192</ele>
        <time>2013-02-21T09:22:04Z</time>
      </trkpt>
      <trkpt lat="43.66458" lon="1.83419">
        <ele>192</ele>
        <time>2013-02-21T09:22:13Z</time>
      </trkpt>
      <trkpt lat="43.66449" lon="1.83424">
        <ele>194</ele>
        <time>2013-02-21T09:22:20Z</time>
      </trkpt>
      <trkpt lat="43.6644" lon="1.83426">
        <ele>197</ele>
        <time>2013-02-21T09:22:30Z</time>
      </trkpt>
      <trkpt lat="43.66429" lon="1.83424">
        <ele>198</ele>
        <time>2013-02-21T09:22:39Z</time>
      </trkpt>
      <trkpt lat="43.66417" lon="1.83413">
        <ele>201</ele>
        <time>2013-02-21T09:22:58Z</time>
      </trkpt>
      <trkpt lat="43.66405" lon="1.83418">
        <ele>203</ele>
        <time>2013-02-21T09:23:10Z</time>
      </trkpt>
      <trkpt lat="43.66396" lon="1.83422">
        <ele>202</ele>
        <time>2013-02-21T09:23:19Z</time>
      </trkpt>
      <trkpt lat="43.66385" lon="1.83426">
        <ele>203</ele>
        <time>2013-02-21T09:23:30Z</time>
      </trkpt>
      <trkpt lat="43.66375" lon="1.83429">
        <ele>204</ele>
        <time>2013-02-21T09:23:42Z</time>
      </trkpt>
      <trkpt lat="43.66369" lon="1.8343">
        <ele>205</ele>
        <time>2013-02-21T09:23:55Z</time>
      </trkpt>
      <trkpt lat="43.66359" lon="1.83427">
        <ele>205</ele>
        <time>2013-02-21T09:24:02Z</time>
      </trkpt>
      <trkpt lat="43.66351" lon="1.83434">
        <ele>206</ele>
        <time>2013-02-21T09:24:09Z</time>
      </trkpt>
      <trkpt lat="43.66342" lon="1.83438">
        <ele>205</ele>
        <time>2013-02-21T09:24:18Z</time>
      </trkpt>
      <trkpt lat="43.66335" lon="1.83441">
        <ele>207</ele>
        <time>2013-02-21T09:24:36Z</time>
      </trkpt>
      <trkpt lat="43.66332" lon="1.83443">
        <ele>210</ele>
        <time>2013-02-21T09:29:12Z</time>
      </trkpt>
      <trkpt lat="43.66329" lon="1.83447">
        <ele>211</ele>
        <time>2013-02-21T09:32:12Z</time>
      </trkpt>
      <trkpt lat="43.66323" lon="1.83451">
        <ele>209</ele>
        <time>2013-02-21T09:34:04Z</time>
      </trkpt>
      <trkpt lat="43.66317" lon="1.83456">
        <ele>210</ele>
        <time>2013-02-21T09:34:20Z</time>
      </trkpt>
      <trkpt lat="43.66307" lon="1.83464">
        <ele>212</ele>
        <time>2013-02-21T09:34:29Z</time>
      </trkpt>
      <trkpt lat="43.66298" lon="1.83461">
        <ele>215</ele>
        <time>2013-02-21T09:34:40Z</time>
      </trkpt>
      <trkpt lat="43.6629" lon="1.83466">
        <ele>213</ele>
        <time>2013-02-21T09:34:56Z</time>
      </trkpt>
      <trkpt lat="43.66286" lon="1.83469">
        <ele>212</ele>
        <time>2013-02-21T09:35:01Z</time>
      </trkpt>
      <trkpt lat="43.66277" lon="1.83473">
        <ele>210</ele>
        <time>2013-02-21T09:35:10Z</time>
      </trkpt>
      <trkpt lat="43.66268" lon="1.83477">
        <ele>210</ele>
        <time>2013-02-21T09:35:20Z</time>
      </trkpt>
      <trkpt lat="43.66258" lon="1.83482">
        <ele>209</ele>
        <time>2013-02-21T09:35:34Z</time>
      </trkpt>
      <trkpt lat="43.66253" lon="1.83487">
        <ele>209</ele>
        <time>2013-02-21T09:35:51Z</time>
      </trkpt>
      <trkpt lat="43.66248" lon="1.83487">
        <ele>209</ele>
        <time>2013-02-21T09:35:57Z</time>
      </trkpt>
      <trkpt lat="43.66238" lon="1.83491">
        <ele>207</ele>
        <time>2013-02-21T09:36:05Z</time>
      </trkpt>
      <trkpt lat="43.6623" lon="1.83497">
        <ele>206</ele>
        <time>2013-02-21T09:36:17Z</time>
      </trkpt>
      <trkpt lat="43.66218" lon="1.83504">
        <ele>206</ele>
        <time>2013-02-21T09:36:31Z</time>
      </trkpt>
      <trkpt lat="43.6621" lon="1.8351">
        <ele>206</ele>
        <time>2013-02-21T09:36:38Z</time>
      </trkpt>
      <trkpt lat="43.66201" lon="1.83518">
        <ele>207</ele>
        <time>2013-02-21T09:36:47Z</time>
      </trkpt>
      <trkpt lat="43.66192" lon="1.83526">
        <ele>206</ele>
        <time>2013-02-21T09:36:54Z</time>
      </trkpt>
      <trkpt lat="43.66183" lon="1.8353">
        <ele>204</ele>
        <time>2013-02-21T09:37:07Z</time>
      </trkpt>
      <trkpt lat="43.66169" lon="1.83535">
        <ele>202</ele>
        <time>2013-02-21T09:37:25Z</time>
      </trkpt>
      <trkpt lat="43.6616" lon="1.83542">
        <ele>206</ele>
        <time>2013-02-21T09:37:31Z</time>
      </trkpt>
      <trkpt lat="43.6615" lon="1.83547">
        <ele>211</ele>
        <time>2013-02-21T09:37:38Z</time>
      </trkpt>
      <trkpt lat="43.66142" lon="1.83552">
        <ele>214</ele>
        <time>2013-02-21T09:37:50Z</time>
      </trkpt>
      <trkpt lat="43.66133" lon="1.83567">
        <ele>217</ele>
        <time>2013-02-21T09:38:15Z</time>
      </trkpt>
      <trkpt lat="43.66125" lon="1.83574">
        <ele>213</ele>
        <time>2013-02-21T09:38:25Z</time>
      </trkpt>
      <trkpt lat="43.66113" lon="1.83582">
        <ele>210</ele>
        <time>2013-02-21T09:38:45Z</time>
      </trkpt>
      <trkpt lat="43.66105" lon="1.83587">
        <ele>209</ele>
        <time>2013-02-21T09:38:54Z</time>
      </trkpt>
      <trkpt lat="43.66097" lon="1.83594">
        <ele>209</ele>
        <time>2013-02-21T09:39:05Z</time>
      </trkpt>
      <trkpt lat="43.66089" lon="1.83602">
        <ele>212</ele>
        <time>2013-02-21T09:39:13Z</time>
      </trkpt>
      <trkpt lat="43.66081" lon="1.8361">
        <ele>213</ele>
        <time>2013-02-21T09:39:21Z</time>
      </trkpt>
      <trkpt lat="43.66074" lon="1.83618">
        <ele>213</ele>
        <time>2013-02-21T09:39:32Z</time>
      </trkpt>
      <trkpt lat="43.66066" lon="1.83626">
        <ele>214</ele>
        <time>2013-02-21T09:39:39Z</time>
      </trkpt>
      <trkpt lat="43.66058" lon="1.83634">
        <ele>214</ele>
        <time>2013-02-21T09:39:55Z</time>
      </trkpt>
      <trkpt lat="43.66048" lon="1.83645">
        <ele>215</ele>
        <time>2013-02-21T09:40:09Z</time>
      </trkpt>
      <trkpt lat="43.6604" lon="1.83652">
        <ele>216</ele>
        <time>2013-02-21T09:40:17Z</time>
      </trkpt>
      <trkpt lat="43.66031" lon="1.83657">
        <ele>218</ele>
        <time>2013-02-21T09:40:24Z</time>
      </trkpt>
      <trkpt lat="43.66021" lon="1.8366">
        <ele>218</ele>
        <time>2013-02-21T09:40:37Z</time>
      </trkpt>
      <trkpt lat="43.66013" lon="1.83664">
        <ele>219</ele>
        <time>2013-02-21T09:40:44Z</time>
      </trkpt>
      <trkpt lat="43.66003" lon="1.83663">
        <ele>220</ele>
        <time>2013-02-21T09:40:50Z</time>
      </trkpt>
      <trkpt lat="43.65993" lon="1.8366">
        <ele>219</ele>
        <time>2013-02-21T09:40:59Z</time>
      </trkpt>
      <trkpt lat="43.65985" lon="1.83654">
        <ele>214</ele>
        <time>2013-02-21T09:41:08Z</time>
      </trkpt>
      <trkpt lat="43.65975" lon="1.8365">
        <ele>211</ele>
        <time>2013-02-21T09:41:16Z</time>
      </trkpt>
      <trkpt lat="43.65968" lon="1.83648">
        <ele>208</ele>
        <time>2013-02-21T09:41:25Z</time>
      </trkpt>
      <trkpt lat="43.65963" lon="1.83644">
        <ele>207</ele>
        <time>2013-02-21T09:41:32Z</time>
      </trkpt>
      <trkpt lat="43.65955" lon="1.83636">
        <ele>209</ele>
        <time>2013-02-21T09:41:40Z</time>
      </trkpt>
      <trkpt lat="43.65947" lon="1.83629">
        <ele>211</ele>
        <time>2013-02-21T09:41:48Z</time>
      </trkpt>
      <trkpt lat="43.65939" lon="1.83619">
        <ele>212</ele>
        <time>2013-02-21T09:41:57Z</time>
      </trkpt>
      <trkpt lat="43.65931" lon="1.83611">
        <ele>212</ele>
        <time>2013-02-21T09:42:05Z</time>
      </trkpt>
      <trkpt lat="43.65921" lon="1.836">
        <ele>216</ele>
        <time>2013-02-21T09:42:21Z</time>
      </trkpt>
      <trkpt lat="43.65916" lon="1.83589">
        <ele>215</ele>
        <time>2013-02-21T09:42:31Z</time>
      </trkpt>
      <trkpt lat="43.65908" lon="1.83583">
        <ele>212</ele>
        <time>2013-02-21T09:42:39Z</time>
      </trkpt>
      <trkpt lat="43.65899" lon="1.8357">
        <ele>206</ele>
        <time>2013-02-21T09:42:51Z</time>
      </trkpt>
      <trkpt lat="43.65892" lon="1.83559">
        <ele>203</ele>
        <time>2013-02-21T09:42:58Z</time>
      </trkpt>
      <trkpt lat="43.65889" lon="1.83552">
        <ele>202</ele>
        <time>2013-02-21T09:43:12Z</time>
      </trkpt>
      <trkpt lat="43.65883" lon="1.83543">
        <ele>204</ele>
        <time>2013-02-21T09:43:16Z</time>
      </trkpt>
      <trkpt lat="43.65877" lon="1.83532">
        <ele>209</ele>
        <time>2013-02-21T09:43:28Z</time>
      </trkpt>
      <trkpt lat="43.6587" lon="1.83523">
        <ele>211</ele>
        <time>2013-02-21T09:43:34Z</time>
      </trkpt>
      <trkpt lat="43.65864" lon="1.83513">
        <ele>214</ele>
        <time>2013-02-21T09:43:41Z</time>
      </trkpt>
      <trkpt lat="43.65857" lon="1.83504">
        <ele>216</ele>
        <time>2013-02-21T09:43:48Z</time>
      </trkpt>
      <trkpt lat="43.6585" lon="1.83493">
        <ele>220</ele>
        <time>2013-02-21T09:43:59Z</time>
      </trkpt>
      <trkpt lat="43.65845" lon="1.83481">
        <ele>222</ele>
        <time>2013-02-21T09:44:06Z</time>
      </trkpt>
      <trkpt lat="43.65839" lon="1.8347">
        <ele>221</ele>
        <time>2013-02-21T09:44:17Z</time>
      </trkpt>
      <trkpt lat="43.65834" lon="1.8346">
        <ele>219</ele>
        <time>2013-02-21T09:44:25Z</time>
      </trkpt>
      <trkpt lat="43.65829" lon="1.83445">
        <ele>218</ele>
        <time>2013-02-21T09:44:43Z</time>
      </trkpt>
      <trkpt lat="43.65824" lon="1.83433">
        <ele>215</ele>
        <time>2013-02-21T09:44:53Z</time>
      </trkpt>
      <trkpt lat="43.65818" lon="1.83424">
        <ele>216</ele>
        <time>2013-02-21T09:45:00Z</time>
      </trkpt>
      <trkpt lat="43.65815" lon="1.83415">
        <ele>214</ele>
        <time>2013-02-21T09:45:11Z</time>
      </trkpt>
      <trkpt lat="43.65811" lon="1.83407">
        <ele>212</ele>
        <time>2013-02-21T09:45:18Z</time>
      </trkpt>
      <trkpt lat="43.65808" lon="1.83401">
        <ele>212</ele>
        <time>2013-02-21T09:45:23Z</time>
      </trkpt>
      <trkpt lat="43.65803" lon="1.83392">
        <ele>212</ele>
        <time>2013-02-21T09:45:31Z</time>
      </trkpt>
      <trkpt lat="43.658" lon="1.83387">
        <ele>213</ele>
        <time>2013-02-21T09:45:37Z</time>
      </trkpt>
      <trkpt lat="43.65792" lon="1.83374">
        <ele>213</ele>
        <time>2013-02-21T09:45:55Z</time>
      </trkpt>
      <trkpt lat="43.65789" lon="1.83366">
        <ele>213</ele>
        <time>2013-02-21T09:46:03Z</time>
      </trkpt>
      <trkpt lat="43.65787" lon="1.8336">
        <ele>213</ele>
        <time>2013-02-21T09:46:08Z</time>
      </trkpt>
      <trkpt lat="43.65784" lon="1.83354">
        <ele>214</ele>
        <time>2013-02-21T09:46:13Z</time>
      </trkpt>
      <trkpt lat="43.65779" lon="1.83344">
        <ele>216</ele>
        <time>2013-02-21T09:46:24Z</time>
      </trkpt>
      <trkpt lat="43.65774" lon="1.83326">
        <ele>211</ele>
        <time>2013-02-21T09:46:47Z</time>
      </trkpt>
      <trkpt lat="43.65771" lon="1.83321">
        <ele>212</ele>
        <time>2013-02-21T09:46:54Z</time>
      </trkpt>
      <trkpt lat="43.65765" lon="1.83311">
        <ele>216</ele>
        <time>2013-02-21T09:47:07Z</time>
      </trkpt>
      <trkpt lat="43.65764" lon="1.83305">
        <ele>217</ele>
        <time>2013-02-21T09:47:14Z</time>
      </trkpt>
      <trkpt lat="43.6576" lon="1.83301">
        <ele>219</ele>
        <time>2013-02-21T09:47:18Z</time>
      </trkpt>
      <trkpt lat="43.65757" lon="1.83295">
        <ele>220</ele>
        <time>2013-02-21T09:47:24Z</time>
      </trkpt>
      <trkpt lat="43.65754" lon="1.83289">
        <ele>221</ele>
        <time>2013-02-21T09:47:30Z</time>
      </trkpt>
      <trkpt lat="43.65749" lon="1.83282">
        <ele>223</ele>
        <time>2013-02-21T09:47:38Z</time>
      </trkpt>
      <trkpt lat="43.65746" lon="1.83276">
        <ele>224</ele>
        <time>2013-02-21T09:47:43Z</time>
      </trkpt>
      <trkpt lat="43.65742" lon="1.83271">
        <ele>225</ele>
        <time>2013-02-21T09:47:48Z</time>
      </trkpt>
      <trkpt lat="43.6574" lon="1.83265">
        <ele>226</ele>
        <time>2013-02-21T09:47:53Z</time>
      </trkpt>
      <trkpt lat="43.65736" lon="1.83254">
        <ele>227</ele>
        <time>2013-02-21T09:48:03Z</time>
      </trkpt>
      <trkpt lat="43.65732" lon="1.8325">
        <ele>228</ele>
        <time>2013-02-21T09:48:07Z</time>
      </trkpt>
      <trkpt lat="43.65725" lon="1.8324">
        <ele>229</ele>
        <time>2013-02-21T09:48:16Z</time>
      </trkpt>
      <trkpt lat="43.6572" lon="1.83228">
        <ele>229</ele>
        <time>2013-02-21T09:48:26Z</time>
      </trkpt>
      <trkpt lat="43.65712" lon="1.83217">
        <ele>230</ele>
        <time>2013-02-21T09:48:38Z</time>
      </trkpt>
      <trkpt lat="43.6571" lon="1.83212">
        <ele>230</ele>
        <time>2013-02-21T09:48:41Z</time>
      </trkpt>
      <trkpt lat="43.65703" lon="1.83209">
        <ele>230</ele>
        <time>2013-02-21T09:48:51Z</time>
      </trkpt>
      <trkpt lat="43.65695" lon="1.83215">
        <ele>231</ele>
        <time>2013-02-21T09:49:01Z</time>
      </trkpt>
      <trkpt lat="43.65691" lon="1.83225">
        <ele>233</ele>
        <time>2013-02-21T09:49:11Z</time>
      </trkpt>
      <trkpt lat="43.6569" lon="1.83232">
        <ele>232</ele>
        <time>2013-02-21T09:49:17Z</time>
      </trkpt>
      <trkpt lat="43.65687" lon="1.83239">
        <ele>230</ele>
        <time>2013-02-21T09:49:23Z</time>
      </trkpt>
      <trkpt lat="43.65684" lon="1.83244">
        <ele>227</ele>
        <time>2013-02-21T09:49:30Z</time>
      </trkpt>
      <trkpt lat="43.65676" lon="1.83253">
        <ele>229</ele>
        <time>2013-02-21T09:49:39Z</time>
      </trkpt>
      <trkpt lat="43.65668" lon="1.83259">
        <ele>229</ele>
        <time>2013-02-21T09:49:49Z</time>
      </trkpt>
      <trkpt lat="43.65659" lon="1.8327">
        <ele>227</ele>
        <time>2013-02-21T09:49:57Z</time>
      </trkpt>
      <trkpt lat="43.65652" lon="1.83279">
        <ele>227</ele>
        <time>2013-02-21T09:50:07Z</time>
      </trkpt>
      <trkpt lat="43.65644" lon="1.83286">
        <ele>228</ele>
        <time>2013-02-21T09:50:19Z</time>
      </trkpt>
      <trkpt lat="43.65637" lon="1.83295">
        <ele>228</ele>
        <time>2013-02-21T09:50:29Z</time>
      </trkpt>
      <trkpt lat="43.65629" lon="1.83301">
        <ele>228</ele>
        <time>2013-02-21T09:50:37Z</time>
      </trkpt>
      <trkpt lat="43.65621" lon="1.83309">
        <ele>226</ele>
        <time>2013-02-21T09:50:47Z</time>
      </trkpt>
      <trkpt lat="43.6561" lon="1.83315">
        <ele>223</ele>
        <time>2013-02-21T09:50:58Z</time>
      </trkpt>
      <trkpt lat="43.65602" lon="1.83321">
        <ele>225</ele>
        <time>2013-02-21T09:51:10Z</time>
      </trkpt>
      <trkpt lat="43.65596" lon="1.83331">
        <ele>225</ele>
        <time>2013-02-21T09:51:18Z</time>
      </trkpt>
      <trkpt lat="43.65588" lon="1.83336">
        <ele>227</ele>
        <time>2013-02-21T09:51:26Z</time>
      </trkpt>
      <trkpt lat="43.65583" lon="1.83338">
        <ele>228</ele>
        <time>2013-02-21T09:51:32Z</time>
      </trkpt>
      <trkpt lat="43.65578" lon="1.83339">
        <ele>228</ele>
        <time>2013-02-21T09:51:37Z</time>
      </trkpt>
      <trkpt lat="43.65571" lon="1.83347">
        <ele>228</ele>
        <time>2013-02-21T09:51:50Z</time>
      </trkpt>
      <trkpt lat="43.65563" lon="1.83355">
        <ele>229</ele>
        <time>2013-02-21T09:51:58Z</time>
      </trkpt>
      <trkpt lat="43.65557" lon="1.83364">
        <ele>229</ele>
        <time>2013-02-21T09:52:09Z</time>
      </trkpt>
      <trkpt lat="43.6555" lon="1.83375">
        <ele>230</ele>
        <time>2013-02-21T09:52:17Z</time>
      </trkpt>
      <trkpt lat="43.65546" lon="1.83382">
        <ele>229</ele>
        <time>2013-02-21T09:52:24Z</time>
      </trkpt>
      <trkpt lat="43.65542" lon="1.83388">
        <ele>230</ele>
        <time>2013-02-21T09:52:30Z</time>
      </trkpt>
      <trkpt lat="43.65535" lon="1.83397">
        <ele>232</ele>
        <time>2013-02-21T09:52:41Z</time>
      </trkpt>
      <trkpt lat="43.65528" lon="1.83407">
        <ele>234</ele>
        <time>2013-02-21T09:52:50Z</time>
      </trkpt>
      <trkpt lat="43.65521" lon="1.83415">
        <ele>233</ele>
        <time>2013-02-21T09:53:00Z</time>
      </trkpt>
      <trkpt lat="43.65514" lon="1.83422">
        <ele>231</ele>
        <time>2013-02-21T09:53:08Z</time>
      </trkpt>
      <trkpt lat="43.65506" lon="1.8343">
        <ele>231</ele>
        <time>2013-02-21T09:53:19Z</time>
      </trkpt>
      <trkpt lat="43.65498" lon="1.83442">
        <ele>228</ele>
        <time>2013-02-21T09:53:36Z</time>
      </trkpt>
      <trkpt lat="43.65492" lon="1.83451">
        <ele>228</ele>
        <time>2013-02-21T09:53:49Z</time>
      </trkpt>
      <trkpt lat="43.65486" lon="1.83462">
        <ele>226</ele>
        <time>2013-02-21T09:53:56Z</time>
      </trkpt>
      <trkpt lat="43.6548" lon="1.83472">
        <ele>225</ele>
        <time>2013-02-21T09:54:07Z</time>
      </trkpt>
      <trkpt lat="43.65473" lon="1.83485">
        <ele>224</ele>
        <time>2013-02-21T09:54:15Z</time>
      </trkpt>
      <trkpt lat="43.65464" lon="1.83495">
        <ele>227</ele>
        <time>2013-02-21T09:54:29Z</time>
      </trkpt>
      <trkpt lat="43.65454" lon="1.83502">
        <ele>228</ele>
        <time>2013-02-21T09:54:37Z</time>
      </trkpt>
      <trkpt lat="43.65437" lon="1.83516">
        <ele>218</ele>
        <time>2013-02-21T09:55:01Z</time>
      </trkpt>
      <trkpt lat="43.65425" lon="1.83513">
        <ele>217</ele>
        <time>2013-02-21T09:55:09Z</time>
      </trkpt>
      <trkpt lat="43.65416" lon="1.83511">
        <ele>218</ele>
        <time>2013-02-21T09:55:17Z</time>
      </trkpt>
      <trkpt lat="43.65404" lon="1.83516">
        <ele>221</ele>
        <time>2013-02-21T09:55:33Z</time>
      </trkpt>
      <trkpt lat="43.65394" lon="1.8352">
        <ele>223</ele>
        <time>2013-02-21T09:55:41Z</time>
      </trkpt>
      <trkpt lat="43.6538" lon="1.83524">
        <ele>223</ele>
        <time>2013-02-21T09:55:55Z</time>
      </trkpt>
      <trkpt lat="43.65364" lon="1.83527">
        <ele>221</ele>
        <time>2013-02-21T09:56:09Z</time>
      </trkpt>
      <trkpt lat="43.65352" lon="1.83534">
        <ele>221</ele>
        <time>2013-02-21T09:56:15Z</time>
      </trkpt>
      <trkpt lat="43.65343" lon="1.83535">
        <ele>223</ele>
        <time>2013-02-21T09:56:21Z</time>
      </trkpt>
      <trkpt lat="43.65334" lon="1.83536">
        <ele>224</ele>
        <time>2013-02-21T09:56:26Z</time>
      </trkpt>
      <trkpt lat="43.65328" lon="1.83534">
        <ele>225</ele>
        <time>2013-02-21T09:56:41Z</time>
      </trkpt>
      <trkpt lat="43.6532" lon="1.83541">
        <ele>224</ele>
        <time>2013-02-21T09:57:02Z</time>
      </trkpt>
      <trkpt lat="43.65314" lon="1.83552">
        <ele>224</ele>
        <time>2013-02-21T09:57:13Z</time>
      </trkpt>
      <trkpt lat="43.65311" lon="1.83563">
        <ele>225</ele>
        <time>2013-02-21T09:57:23Z</time>
      </trkpt>
      <trkpt lat="43.6531" lon="1.83578">
        <ele>224</ele>
        <time>2013-02-21T09:57:40Z</time>
      </trkpt>
      <trkpt lat="43.6531" lon="1.83592">
        <ele>222</ele>
        <time>2013-02-21T09:57:47Z</time>
      </trkpt>
      <trkpt lat="43.65309" lon="1.8361">
        <ele>219</ele>
        <time>2013-02-21T09:57:59Z</time>
      </trkpt>
      <trkpt lat="43.65308" lon="1.83624">
        <ele>218</ele>
        <time>2013-02-21T09:58:06Z</time>
      </trkpt>
      <trkpt lat="43.65307" lon="1.83637">
        <ele>216</ele>
        <time>2013-02-21T09:58:17Z</time>
      </trkpt>
      <trkpt lat="43.65302" lon="1.83653">
        <ele>216</ele>
        <time>2013-02-21T09:58:25Z</time>
      </trkpt>
      <trkpt lat="43.65298" lon="1.83666">
        <ele>216</ele>
        <time>2013-02-21T09:58:31Z</time>
      </trkpt>
      <trkpt lat="43.65296" lon="1.83679">
        <ele>216</ele>
        <time>2013-02-21T09:58:39Z</time>
      </trkpt>
      <trkpt lat="43.65298" lon="1.83697">
        <ele>212</ele>
        <time>2013-02-21T09:58:57Z</time>
      </trkpt>
      <trkpt lat="43.65297" lon="1.83713">
        <ele>211</ele>
        <time>2013-02-21T09:59:04Z</time>
      </trkpt>
      <trkpt lat="43.65299" lon="1.83726">
        <ele>205</ele>
        <time>2013-02-21T09:59:25Z</time>
      </trkpt>
      <trkpt lat="43.65299" lon="1.83732">
        <ele>204</ele>
        <time>2013-02-21T09:59:36Z</time>
      </trkpt>
      <trkpt lat="43.65295" lon="1.83745">
        <ele>205</ele>
        <time>2013-02-21T09:59:46Z</time>
      </trkpt>
      <trkpt lat="43.65293" lon="1.83759">
        <ele>205</ele>
        <time>2013-02-21T09:59:49Z</time>
      </trkpt>
      <trkpt lat="43.65289" lon="1.83776">
        <ele>205</ele>
        <time>2013-02-21T09:59:54Z</time>
      </trkpt>
      <trkpt lat="43.65287" lon="1.83789">
        <ele>205</ele>
        <time>2013-02-21T10:00:01Z</time>
      </trkpt>
      <trkpt lat="43.65276" lon="1.83801">
        <ele>202</ele>
        <time>2013-02-21T10:00:17Z</time>
      </trkpt>
      <trkpt lat="43.65269" lon="1.83809">
        <ele>197</ele>
        <time>2013-02-21T10:00:29Z</time>
      </trkpt>
      <trkpt lat="43.65264" lon="1.8382">
        <ele>195</ele>
        <time>2013-02-21T10:00:38Z</time>
      </trkpt>
      <trkpt lat="43.6526" lon="1.83832">
        <ele>194</ele>
        <time>2013-02-21T10:00:49Z</time>
      </trkpt>
      <trkpt lat="43.65256" lon="1.83843">
        <ele>195</ele>
        <time>2013-02-21T10:00:56Z</time>
      </trkpt>
      <trkpt lat="43.65255" lon="1.83856">
        <ele>196</ele>
        <time>2013-02-21T10:01:03Z</time>
      </trkpt>
      <trkpt lat="43.65256" lon="1.83869">
        <ele>198</ele>
        <time>2013-02-21T10:01:11Z</time>
      </trkpt>
      <trkpt lat="43.65262" lon="1.83882">
        <ele>201</ele>
        <time>2013-02-21T10:01:28Z</time>
      </trkpt>
      <trkpt lat="43.65264" lon="1.83895">
        <ele>200</ele>
        <time>2013-02-21T10:01:33Z</time>
      </trkpt>
      <trkpt lat="43.65265" lon="1.83909">
        <ele>199</ele>
        <time>2013-02-21T10:01:37Z</time>
      </trkpt>
      <trkpt lat="43.65263" lon="1.83925">
        <ele>199</ele>
        <time>2013-02-21T10:01:42Z</time>
      </trkpt>
      <trkpt lat="43.65262" lon="1.83938">
        <ele>200</ele>
        <time>2013-02-21T10:01:49Z</time>
      </trkpt>
      <trkpt lat="43.65259" lon="1.83955">
        <ele>205</ele>
        <time>2013-02-21T10:02:24Z</time>
      </trkpt>
      <trkpt lat="43.65254" lon="1.83961">
        <ele>208</ele>
        <time>2013-02-21T10:02:40Z</time>
      </trkpt>
      <trkpt lat="43.65255" lon="1.83975">
        <ele>209</ele>
        <time>2013-02-21T10:02:58Z</time>
      </trkpt>
      <trkpt lat="43.65253" lon="1.83983">
        <ele>205</ele>
        <time>2013-02-21T10:03:29Z</time>
      </trkpt>
      <trkpt lat="43.65246" lon="1.83996">
        <ele>210</ele>
        <time>2013-02-21T10:03:52Z</time>
      </trkpt>
      <trkpt lat="43.65239" lon="1.84006">
        <ele>211</ele>
        <time>2013-02-21T10:04:00Z</time>
      </trkpt>
      <trkpt lat="43.65238" lon="1.83999">
        <ele>210</ele>
        <time>2013-02-21T10:04:48Z</time>
      </trkpt>
      <trkpt lat="43.65246" lon="1.8399">
        <ele>210</ele>
        <time>2013-02-21T10:04:54Z</time>
      </trkpt>
      <trkpt lat="43.65254" lon="1.83987">
        <ele>209</ele>
        <time>2013-02-21T10:05:14Z</time>
      </trkpt>
      <trkpt lat="43.65259" lon="1.83986">
        <ele>209</ele>
        <time>2013-02-21T10:05:25Z</time>
      </trkpt>
      <trkpt lat="43.65255" lon="1.8399">
        <ele>210</ele>
        <time>2013-02-21T10:07:44Z</time>
      </trkpt>
      <trkpt lat="43.65248" lon="1.83982">
        <ele>208</ele>
        <time>2013-02-21T10:08:21Z</time>
      </trkpt>
      <trkpt lat="43.65243" lon="1.83979">
        <ele>208</ele>
        <time>2013-02-21T10:08:38Z</time>
      </trkpt>
      <trkpt lat="43.65247" lon="1.83982">
        <ele>210</ele>
        <time>2013-02-21T10:09:09Z</time>
      </trkpt>
      <trkpt lat="43.65248" lon="1.83995">
        <ele>209</ele>
        <time>2013-02-21T10:09:18Z</time>
      </trkpt>
      <trkpt lat="43.65244" lon="1.84002">
        <ele>205</ele>
        <time>2013-02-21T10:09:35Z</time>
      </trkpt>
      <trkpt lat="43.65238" lon="1.84012">
        <ele>206</ele>
        <time>2013-02-21T10:09:47Z</time>
      </trkpt>
      <trkpt lat="43.65234" lon="1.84024">
        <ele>206</ele>
        <time>2013-02-21T10:09:56Z</time>
      </trkpt>
      <trkpt lat="43.65227" lon="1.84039">
        <ele>202</ele>
        <time>2013-02-21T10:10:11Z</time>
      </trkpt>
      <trkpt lat="43.65219" lon="1.84055">
        <ele>202</ele>
        <time>2013-02-21T10:10:21Z</time>
      </trkpt>
      <trkpt lat="43.65216" lon="1.84068">
        <ele>202</ele>
        <time>2013-02-21T10:10:26Z</time>
      </trkpt>
      <trkpt lat="43.65215" lon="1.84082">
        <ele>204</ele>
        <time>2013-02-21T10:10:34Z</time>
      </trkpt>
      <trkpt lat="43.65212" lon="1.84096">
        <ele>208</ele>
        <time>2013-02-21T10:10:49Z</time>
      </trkpt>
      <trkpt lat="43.6521" lon="1.84105">
        <ele>207</ele>
        <time>2013-02-21T10:11:06Z</time>
      </trkpt>
      <trkpt lat="43.65217" lon="1.84116">
        <ele>207</ele>
        <time>2013-02-21T10:11:14Z</time>
      </trkpt>
      <trkpt lat="43.65223" lon="1.84131">
        <ele>205</ele>
        <time>2013-02-21T10:11:27Z</time>
      </trkpt>
      <trkpt lat="43.65221" lon="1.84145">
        <ele>204</ele>
        <time>2013-02-21T10:11:32Z</time>
      </trkpt>
      <trkpt lat="43.65223" lon="1.84159">
        <ele>202</ele>
        <time>2013-02-21T10:11:43Z</time>
      </trkpt>
      <trkpt lat="43.65223" lon="1.84172">
        <ele>202</ele>
        <time>2013-02-21T10:11:54Z</time>
      </trkpt>
      <trkpt lat="43.65221" lon="1.84181">
        <ele>203</ele>
        <time>2013-02-21T10:12:00Z</time>
      </trkpt>
      <trkpt lat="43.65215" lon="1.84192">
        <ele>205</ele>
        <time>2013-02-21T10:12:09Z</time>
      </trkpt>
      <trkpt lat="43.65213" lon="1.8421">
        <ele>200</ele>
        <time>2013-02-21T10:12:29Z</time>
      </trkpt>
      <trkpt lat="43.65212" lon="1.84223">
        <ele>200</ele>
        <time>2013-02-21T10:12:38Z</time>
      </trkpt>
      <trkpt lat="43.65208" lon="1.84236">
        <ele>198</ele>
        <time>2013-02-21T10:12:47Z</time>
      </trkpt>
      <trkpt lat="43.65201" lon="1.84251">
        <ele>196</ele>
        <time>2013-02-21T10:13:01Z</time>
      </trkpt>
      <trkpt lat="43.65195" lon="1.84262">
        <ele>195</ele>
        <time>2013-02-21T10:13:09Z</time>
      </trkpt>
      <trkpt lat="43.65187" lon="1.84276">
        <ele>196</ele>
        <time>2013-02-21T10:13:23Z</time>
      </trkpt>
      <trkpt lat="43.65185" lon="1.84289">
        <ele>197</ele>
        <time>2013-02-21T10:13:29Z</time>
      </trkpt>
      <trkpt lat="43.65182" lon="1.84302">
        <ele>195</ele>
        <time>2013-02-21T10:13:44Z</time>
      </trkpt>
      <trkpt lat="43.6518" lon="1.84315">
        <ele>195</ele>
        <time>2013-02-21T10:13:52Z</time>
      </trkpt>
      <trkpt lat="43.65174" lon="1.8433">
        <ele>193</ele>
        <time>2013-02-21T10:14:05Z</time>
      </trkpt>
      <trkpt lat="43.65172" lon="1.84342">
        <ele>191</ele>
        <time>2013-02-21T10:14:13Z</time>
      </trkpt>
      <trkpt lat="43.6517" lon="1.84354">
        <ele>191</ele>
        <time>2013-02-21T10:14:20Z</time>
      </trkpt>
      <trkpt lat="43.65166" lon="1.84366">
        <ele>191</ele>
        <time>2013-02-21T10:14:29Z</time>
      </trkpt>
      <trkpt lat="43.6516" lon="1.84379">
        <ele>190</ele>
        <time>2013-02-21T10:14:38Z</time>
      </trkpt>
      <trkpt lat="43.65158" lon="1.84391">
        <ele>189</ele>
        <time>2013-02-21T10:14:45Z</time>
      </trkpt>
      <trkpt lat="43.65154" lon="1.84402">
        <ele>188</ele>
        <time>2013-02-21T10:14:53Z</time>
      </trkpt>
      <trkpt lat="43.65148" lon="1.84413">
        <ele>186</ele>
        <time>2013-02-21T10:15:02Z</time>
      </trkpt>
      <trkpt lat="43.65143" lon="1.84425">
        <ele>184</ele>
        <time>2013-02-21T10:15:12Z</time>
      </trkpt>
      <trkpt lat="43.65138" lon="1.8444">
        <ele>181</ele>
        <time>2013-02-21T10:15:24Z</time>
      </trkpt>
      <trkpt lat="43.65136" lon="1.84456">
        <ele>183</ele>
        <time>2013-02-21T10:15:37Z</time>
      </trkpt>
      <trkpt lat="43.65132" lon="1.8447">
        <ele>184</ele>
        <time>2013-02-21T10:15:52Z</time>
      </trkpt>
      <trkpt lat="43.65134" lon="1.84486">
        <ele>184</ele>
        <time>2013-02-21T10:16:05Z</time>
      </trkpt>
      <trkpt lat="43.65135" lon="1.84501">
        <ele>187</ele>
        <time>2013-02-21T10:16:09Z</time>
      </trkpt>
      <trkpt lat="43.65139" lon="1.84512">
        <ele>189</ele>
        <time>2013-02-21T10:16:15Z</time>
      </trkpt>
      <trkpt lat="43.65144" lon="1.84529">
        <ele>187</ele>
        <time>2013-02-21T10:16:25Z</time>
      </trkpt>
      <trkpt lat="43.65147" lon="1.84542">
        <ele>185</ele>
        <time>2013-02-21T10:16:31Z</time>
      </trkpt>
      <trkpt lat="43.65149" lon="1.84555">
        <ele>182</ele>
        <time>2013-02-21T10:16:38Z</time>
      </trkpt>
      <trkpt lat="43.65151" lon="1.84568">
        <ele>182</ele>
        <time>2013-02-21T10:16:46Z</time>
      </trkpt>
      <trkpt lat="43.65154" lon="1.84581">
        <ele>185</ele>
        <time>2013-02-21T10:16:56Z</time>
      </trkpt>
      <trkpt lat="43.65153" lon="1.84594">
        <ele>184</ele>
        <time>2013-02-21T10:17:04Z</time>
      </trkpt>
      <trkpt lat="43.65155" lon="1.84611">
        <ele>181</ele>
        <time>2013-02-21T10:17:19Z</time>
      </trkpt>
      <trkpt lat="43.65154" lon="1.84624">
        <ele>179</ele>
        <time>2013-02-21T10:17:25Z</time>
      </trkpt>
      <trkpt lat="43.65154" lon="1.84636">
        <ele>179</ele>
        <time>2013-02-21T10:17:35Z</time>
      </trkpt>
      <trkpt lat="43.65153" lon="1.8465">
        <ele>179</ele>
        <time>2013-02-21T10:17:43Z</time>
      </trkpt>
      <trkpt lat="43.65153" lon="1.84663">
        <ele>180</ele>
        <time>2013-02-21T10:17:53Z</time>
      </trkpt>
      <trkpt lat="43.65153" lon="1.84676">
        <ele>181</ele>
        <time>2013-02-21T10:18:00Z</time>
      </trkpt>
      <trkpt lat="43.65152" lon="1.84689">
        <ele>181</ele>
        <time>2013-02-21T10:18:07Z</time>
      </trkpt>
      <trkpt lat="43.65152" lon="1.84703">
        <ele>184</ele>
        <time>2013-02-21T10:18:14Z</time>
      </trkpt>
      <trkpt lat="43.65151" lon="1.84718">
        <ele>184</ele>
        <time>2013-02-21T10:18:21Z</time>
      </trkpt>
      <trkpt lat="43.65151" lon="1.8473">
        <ele>182</ele>
        <time>2013-02-21T10:18:28Z</time>
      </trkpt>
      <trkpt lat="43.65152" lon="1.84744">
        <ele>180</ele>
        <time>2013-02-21T10:18:37Z</time>
      </trkpt>
      <trkpt lat="43.65153" lon="1.84759">
        <ele>176</ele>
        <time>2013-02-21T10:18:45Z</time>
      </trkpt>
      <trkpt lat="43.65154" lon="1.84773">
        <ele>174</ele>
        <time>2013-02-21T10:18:57Z</time>
      </trkpt>
      <trkpt lat="43.65156" lon="1.84786">
        <ele>170</ele>
        <time>2013-02-21T10:19:06Z</time>
      </trkpt>
      <trkpt lat="43.65157" lon="1.848">
        <ele>169</ele>
        <time>2013-02-21T10:19:13Z</time>
      </trkpt>
      <trkpt lat="43.65158" lon="1.84812">
        <ele>170</ele>
        <time>2013-02-21T10:19:19Z</time>
      </trkpt>
      <trkpt lat="43.65162" lon="1.84825">
        <ele>171</ele>
        <time>2013-02-21T10:19:25Z</time>
      </trkpt>
      <trkpt lat="43.65168" lon="1.84836">
        <ele>170</ele>
        <time>2013-02-21T10:19:32Z</time>
      </trkpt>
      <trkpt lat="43.65169" lon="1.84849">
        <ele>171</ele>
        <time>2013-02-21T10:19:39Z</time>
      </trkpt>
      <trkpt lat="43.65174" lon="1.84875">
        <ele>181</ele>
        <time>2013-02-21T10:19:57Z</time>
      </trkpt>
      <trkpt lat="43.65177" lon="1.8489">
        <ele>181</ele>
        <time>2013-02-21T10:20:07Z</time>
      </trkpt>
      <trkpt lat="43.65179" lon="1.84903">
        <ele>181</ele>
        <time>2013-02-21T10:20:17Z</time>
      </trkpt>
      <trkpt lat="43.6518" lon="1.84918">
        <ele>181</ele>
        <time>2013-02-21T10:20:27Z</time>
      </trkpt>
      <trkpt lat="43.65181" lon="1.84925">
        <ele>179</ele>
        <time>2013-02-21T10:20:31Z</time>
      </trkpt>
      <trkpt lat="43.65182" lon="1.84934">
        <ele>178</ele>
        <time>2013-02-21T10:20:37Z</time>
      </trkpt>
      <trkpt lat="43.65182" lon="1.84941">
        <ele>177</ele>
        <time>2013-02-21T10:20:40Z</time>
      </trkpt>
      <trkpt lat="43.65183" lon="1.84954">
        <ele>176</ele>
        <time>2013-02-21T10:20:46Z</time>
      </trkpt>
      <trkpt lat="43.65185" lon="1.84966">
        <ele>174</ele>
        <time>2013-02-21T10:20:56Z</time>
      </trkpt>
      <trkpt lat="43.65188" lon="1.8498">
        <ele>173</ele>
        <time>2013-02-21T10:21:05Z</time>
      </trkpt>
      <trkpt lat="43.65192" lon="1.84992">
        <ele>178</ele>
        <time>2013-02-21T10:21:12Z</time>
      </trkpt>
      <trkpt lat="43.65193" lon="1.84999">
        <ele>180</ele>
        <time>2013-02-21T10:21:16Z</time>
      </trkpt>
      <trkpt lat="43.65195" lon="1.85013">
        <ele>180</ele>
        <time>2013-02-21T10:21:26Z</time>
      </trkpt>
      <trkpt lat="43.65199" lon="1.85025">
        <ele>179</ele>
        <time>2013-02-21T10:21:34Z</time>
      </trkpt>
      <trkpt lat="43.652" lon="1.8504">
        <ele>178</ele>
        <time>2013-02-21T10:21:42Z</time>
      </trkpt>
      <trkpt lat="43.65205" lon="1.85058">
        <ele>179</ele>
        <time>2013-02-21T10:21:57Z</time>
      </trkpt>
      <trkpt lat="43.65207" lon="1.85072">
        <ele>180</ele>
        <time>2013-02-21T10:22:02Z</time>
      </trkpt>
      <trkpt lat="43.65206" lon="1.85085">
        <ele>182</ele>
        <time>2013-02-21T10:22:08Z</time>
      </trkpt>
      <trkpt lat="43.65208" lon="1.85096">
        <ele>182</ele>
        <time>2013-02-21T10:22:15Z</time>
      </trkpt>
      <trkpt lat="43.6521" lon="1.8511">
        <ele>185</ele>
        <time>2013-02-21T10:22:23Z</time>
      </trkpt>
      <trkpt lat="43.65208" lon="1.85124">
        <ele>186</ele>
        <time>2013-02-21T10:22:31Z</time>
      </trkpt>
      <trkpt lat="43.65206" lon="1.85138">
        <ele>185</ele>
        <time>2013-02-21T10:22:39Z</time>
      </trkpt>
      <trkpt lat="43.65206" lon="1.8515">
        <ele>187</ele>
        <time>2013-02-21T10:22:47Z</time>
      </trkpt>
      <trkpt lat="43.65202" lon="1.85164">
        <ele>187</ele>
        <time>2013-02-21T10:22:58Z</time>
      </trkpt>
      <trkpt lat="43.65199" lon="1.85177">
        <ele>186</ele>
        <time>2013-02-21T10:23:09Z</time>
      </trkpt>
      <trkpt lat="43.65195" lon="1.85188">
        <ele>188</ele>
        <time>2013-02-21T10:23:20Z</time>
      </trkpt>
      <trkpt lat="43.65191" lon="1.85201">
        <ele>188</ele>
        <time>2013-02-21T10:23:28Z</time>
      </trkpt>
      <trkpt lat="43.65189" lon="1.85215">
        <ele>186</ele>
        <time>2013-02-21T10:23:35Z</time>
      </trkpt>
      <trkpt lat="43.65188" lon="1.8523">
        <ele>185</ele>
        <time>2013-02-21T10:23:44Z</time>
      </trkpt>
      <trkpt lat="43.65191" lon="1.85243">
        <ele>185</ele>
        <time>2013-02-21T10:23:54Z</time>
      </trkpt>
      <trkpt lat="43.65193" lon="1.85257">
        <ele>185</ele>
        <time>2013-02-21T10:24:04Z</time>
      </trkpt>
      <trkpt lat="43.65198" lon="1.85272">
        <ele>186</ele>
        <time>2013-02-21T10:24:17Z</time>
      </trkpt>
      <trkpt lat="43.652" lon="1.85285">
        <ele>185</ele>
        <time>2013-02-21T10:24:23Z</time>
      </trkpt>
      <trkpt lat="43.65202" lon="1.85299">
        <ele>185</ele>
        <time>2013-02-21T10:24:32Z</time>
      </trkpt>
      <trkpt lat="43.65205" lon="1.85311">
        <ele>186</ele>
        <time>2013-02-21T10:24:40Z</time>
      </trkpt>
      <trkpt lat="43.65204" lon="1.85326">
        <ele>186</ele>
        <time>2013-02-21T10:24:49Z</time>
      </trkpt>
      <trkpt lat="43.65207" lon="1.85339">
        <ele>187</ele>
        <time>2013-02-21T10:24:56Z</time>
      </trkpt>
      <trkpt lat="43.65211" lon="1.85354">
        <ele>189</ele>
        <time>2013-02-21T10:25:09Z</time>
      </trkpt>
      <trkpt lat="43.65211" lon="1.85368">
        <ele>187</ele>
        <time>2013-02-21T10:25:18Z</time>
      </trkpt>
      <trkpt lat="43.65214" lon="1.85381">
        <ele>188</ele>
        <time>2013-02-21T10:25:29Z</time>
      </trkpt>
      <trkpt lat="43.65214" lon="1.85393">
        <ele>189</ele>
        <time>2013-02-21T10:25:35Z</time>
      </trkpt>
      <trkpt lat="43.65212" lon="1.85405">
        <ele>188</ele>
        <time>2013-02-21T10:25:43Z</time>
      </trkpt>
      <trkpt lat="43.65212" lon="1.85413">
        <ele>189</ele>
        <time>2013-02-21T10:25:49Z</time>
      </trkpt>
      <trkpt lat="43.65211" lon="1.85419">
        <ele>191</ele>
        <time>2013-02-21T10:25:53Z</time>
      </trkpt>
      <trkpt lat="43.6521" lon="1.85432">
        <ele>193</ele>
        <time>2013-02-21T10:25:58Z</time>
      </trkpt>
      <trkpt lat="43.65212" lon="1.85444">
        <ele>191</ele>
        <time>2013-02-21T10:26:06Z</time>
      </trkpt>
      <trkpt lat="43.65212" lon="1.8545">
        <ele>191</ele>
        <time>2013-02-21T10:26:09Z</time>
      </trkpt>
      <trkpt lat="43.65214" lon="1.85472">
        <ele>192</ele>
        <time>2013-02-21T10:26:30Z</time>
      </trkpt>
      <trkpt lat="43.65213" lon="1.85487">
        <ele>194</ele>
        <time>2013-02-21T10:26:36Z</time>
      </trkpt>
      <trkpt lat="43.65213" lon="1.85499">
        <ele>196</ele>
        <time>2013-02-21T10:26:43Z</time>
      </trkpt>
      <trkpt lat="43.65213" lon="1.85509">
        <ele>195</ele>
        <time>2013-02-21T10:26:50Z</time>
      </trkpt>
      <trkpt lat="43.65212" lon="1.85516">
        <ele>193</ele>
        <time>2013-02-21T10:26:55Z</time>
      </trkpt>
      <trkpt lat="43.65211" lon="1.8552">
        <ele>194</ele>
        <time>2013-02-21T10:27:05Z</time>
      </trkpt>
      <trkpt lat="43.6521" lon="1.85533">
        <ele>194</ele>
        <time>2013-02-21T10:27:25Z</time>
      </trkpt>
      <trkpt lat="43.65212" lon="1.85546">
        <ele>193</ele>
        <time>2013-02-21T10:27:33Z</time>
      </trkpt>
      <trkpt lat="43.65211" lon="1.85555">
        <ele>193</ele>
        <time>2013-02-21T10:27:37Z</time>
      </trkpt>
      <trkpt lat="43.65212" lon="1.85563">
        <ele>190</ele>
        <time>2013-02-21T10:27:41Z</time>
      </trkpt>
      <trkpt lat="43.65214" lon="1.85573">
        <ele>188</ele>
        <time>2013-02-21T10:27:46Z</time>
      </trkpt>
      <trkpt lat="43.65214" lon="1.85579">
        <ele>186</ele>
        <time>2013-02-21T10:27:49Z</time>
      </trkpt>
      <trkpt lat="43.65216" lon="1.85592">
        <ele>182</ele>
        <time>2013-02-21T10:27:56Z</time>
      </trkpt>
      <trkpt lat="43.65216" lon="1.85607">
        <ele>183</ele>
        <time>2013-02-21T10:28:06Z</time>
      </trkpt>
      <trkpt lat="43.65215" lon="1.85614">
        <ele>183</ele>
        <time>2013-02-21T10:28:09Z</time>
      </trkpt>
      <trkpt lat="43.65215" lon="1.85622">
        <ele>184</ele>
        <time>2013-02-21T10:28:13Z</time>
      </trkpt>
      <trkpt lat="43.65214" lon="1.85629">
        <ele>184</ele>
        <time>2013-02-21T10:28:17Z</time>
      </trkpt>
      <trkpt lat="43.65215" lon="1.85638">
        <ele>181</ele>
        <time>2013-02-21T10:28:22Z</time>
      </trkpt>
      <trkpt lat="43.65216" lon="1.85645">
        <ele>179</ele>
        <time>2013-02-21T10:28:28Z</time>
      </trkpt>
      <trkpt lat="43.65216" lon="1.85653">
        <ele>179</ele>
        <time>2013-02-21T10:28:32Z</time>
      </trkpt>
      <trkpt lat="43.65217" lon="1.85659">
        <ele>180</ele>
        <time>2013-02-21T10:28:36Z</time>
      </trkpt>
      <trkpt lat="43.65216" lon="1.85665">
        <ele>180</ele>
        <time>2013-02-21T10:28:39Z</time>
      </trkpt>
      <trkpt lat="43.65217" lon="1.85672">
        <ele>180</ele>
        <time>2013-02-21T10:28:43Z</time>
      </trkpt>
      <trkpt lat="43.65216" lon="1.85682">
        <ele>182</ele>
        <time>2013-02-21T10:28:49Z</time>
      </trkpt>
      <trkpt lat="43.65216" lon="1.8569">
        <ele>183</ele>
        <time>2013-02-21T10:28:53Z</time>
      </trkpt>
      <trkpt lat="43.65217" lon="1.85697">
        <ele>183</ele>
        <time>2013-02-21T10:28:56Z</time>
      </trkpt>
      <trkpt lat="43.65215" lon="1.8571">
        <ele>182</ele>
        <time>2013-02-21T10:29:04Z</time>
      </trkpt>
      <trkpt lat="43.65214" lon="1.85718">
        <ele>182</ele>
        <time>2013-02-21T10:29:08Z</time>
      </trkpt>
      <trkpt lat="43.65213" lon="1.85726">
        <ele>180</ele>
        <time>2013-02-21T10:29:13Z</time>
      </trkpt>
      <trkpt lat="43.65212" lon="1.85736">
        <ele>179</ele>
        <time>2013-02-21T10:29:18Z</time>
      </trkpt>
      <trkpt lat="43.65212" lon="1.85744">
        <ele>179</ele>
        <time>2013-02-21T10:29:22Z</time>
      </trkpt>
      <trkpt lat="43.65212" lon="1.85757">
        <ele>179</ele>
        <time>2013-02-21T10:29:29Z</time>
      </trkpt>
      <trkpt lat="43.65212" lon="1.85765">
        <ele>179</ele>
        <time>2013-02-21T10:29:35Z</time>
      </trkpt>
      <trkpt lat="43.65214" lon="1.85775">
        <ele>178</ele>
        <time>2013-02-21T10:29:40Z</time>
      </trkpt>
      <trkpt lat="43.65215" lon="1.85782">
        <ele>180</ele>
        <time>2013-02-21T10:29:45Z</time>
      </trkpt>
      <trkpt lat="43.65215" lon="1.8579">
        <ele>181</ele>
        <time>2013-02-21T10:29:51Z</time>
      </trkpt>
      <trkpt lat="43.65216" lon="1.85797">
        <ele>183</ele>
        <time>2013-02-21T10:29:56Z</time>
      </trkpt>
      <trkpt lat="43.65216" lon="1.8581">
        <ele>181</ele>
        <time>2013-02-21T10:30:05Z</time>
      </trkpt>
      <trkpt lat="43.65215" lon="1.85822">
        <ele>179</ele>
        <time>2013-02-21T10:30:13Z</time>
      </trkpt>
      <trkpt lat="43.65215" lon="1.85829">
        <ele>177</ele>
        <time>2013-02-21T10:30:17Z</time>
      </trkpt>
      <trkpt lat="43.65216" lon="1.85836">
        <ele>175</ele>
        <time>2013-02-21T10:30:23Z</time>
      </trkpt>
      <trkpt lat="43.65217" lon="1.85843">
        <ele>174</ele>
        <time>2013-02-21T10:30:26Z</time>
      </trkpt>
      <trkpt lat="43.6522" lon="1.85855">
        <ele>174</ele>
        <time>2013-02-21T10:30:34Z</time>
      </trkpt>
      <trkpt lat="43.65218" lon="1.8587">
        <ele>173</ele>
        <time>2013-02-21T10:30:42Z</time>
      </trkpt>
      <trkpt lat="43.65216" lon="1.85876">
        <ele>173</ele>
        <time>2013-02-21T10:30:45Z</time>
      </trkpt>
      <trkpt lat="43.65211" lon="1.85881">
        <ele>171</ele>
        <time>2013-02-21T10:30:50Z</time>
      </trkpt>
      <trkpt lat="43.65205" lon="1.85887">
        <ele>170</ele>
        <time>2013-02-21T10:30:56Z</time>
      </trkpt>
      <trkpt lat="43.65197" lon="1.85894">
        <ele>170</ele>
        <time>2013-02-21T10:31:03Z</time>
      </trkpt>
      <trkpt lat="43.65189" lon="1.85903">
        <ele>173</ele>
        <time>2013-02-21T10:31:13Z</time>
      </trkpt>
      <trkpt lat="43.65184" lon="1.85914">
        <ele>173</ele>
        <time>2013-02-21T10:31:21Z</time>
      </trkpt>
      <trkpt lat="43.65177" lon="1.85923">
        <ele>173</ele>
        <time>2013-02-21T10:31:30Z</time>
      </trkpt>
      <trkpt lat="43.65172" lon="1.85927">
        <ele>173</ele>
        <time>2013-02-21T10:31:35Z</time>
      </trkpt>
      <trkpt lat="43.65171" lon="1.85934">
        <ele>174</ele>
        <time>2013-02-21T10:31:39Z</time>
      </trkpt>
      <trkpt lat="43.65174" lon="1.85946">
        <ele>176</ele>
        <time>2013-02-21T10:31:46Z</time>
      </trkpt>
      <trkpt lat="43.65177" lon="1.85952">
        <ele>177</ele>
        <time>2013-02-21T10:31:50Z</time>
      </trkpt>
      <trkpt lat="43.65184" lon="1.85962">
        <ele>177</ele>
        <time>2013-02-21T10:31:59Z</time>
      </trkpt>
      <trkpt lat="43.65192" lon="1.8597">
        <ele>177</ele>
        <time>2013-02-21T10:32:09Z</time>
      </trkpt>
      <trkpt lat="43.65197" lon="1.85983">
        <ele>176</ele>
        <time>2013-02-21T10:32:17Z</time>
      </trkpt>
      <trkpt lat="43.65204" lon="1.85993">
        <ele>175</ele>
        <time>2013-02-21T10:32:24Z</time>
      </trkpt>
      <trkpt lat="43.6521" lon="1.86004">
        <ele>172</ele>
        <time>2013-02-21T10:32:31Z</time>
      </trkpt>
      <trkpt lat="43.65215" lon="1.86015">
        <ele>171</ele>
        <time>2013-02-21T10:32:38Z</time>
      </trkpt>
      <trkpt lat="43.6522" lon="1.86027">
        <ele>171</ele>
        <time>2013-02-21T10:32:46Z</time>
      </trkpt>
      <trkpt lat="43.65228" lon="1.86035">
        <ele>172</ele>
        <time>2013-02-21T10:32:55Z</time>
      </trkpt>
      <trkpt lat="43.65236" lon="1.86044">
        <ele>171</ele>
        <time>2013-02-21T10:33:03Z</time>
      </trkpt>
      <trkpt lat="43.65245" lon="1.86049">
        <ele>171</ele>
        <time>2013-02-21T10:33:11Z</time>
      </trkpt>
      <trkpt lat="43.65252" lon="1.86059">
        <ele>169</ele>
        <time>2013-02-21T10:33:21Z</time>
      </trkpt>
      <trkpt lat="43.65263" lon="1.86062">
        <ele>168</ele>
        <time>2013-02-21T10:33:32Z</time>
      </trkpt>
      <trkpt lat="43.65273" lon="1.86064">
        <ele>167</ele>
        <time>2013-02-21T10:33:42Z</time>
      </trkpt>
      <trkpt lat="43.65283" lon="1.86067">
        <ele>166</ele>
        <time>2013-02-21T10:33:49Z</time>
      </trkpt>
      <trkpt lat="43.65292" lon="1.8607">
        <ele>167</ele>
        <time>2013-02-21T10:33:58Z</time>
      </trkpt>
      <trkpt lat="43.65302" lon="1.86077">
        <ele>172</ele>
        <time>2013-02-21T10:34:08Z</time>
      </trkpt>
      <trkpt lat="43.6531" lon="1.86083">
        <ele>172</ele>
        <time>2013-02-21T10:34:16Z</time>
      </trkpt>
      <trkpt lat="43.65317" lon="1.8609">
        <ele>173</ele>
        <time>2013-02-21T10:34:24Z</time>
      </trkpt>
      <trkpt lat="43.65326" lon="1.86094">
        <ele>173</ele>
        <time>2013-02-21T10:34:33Z</time>
      </trkpt>
      <trkpt lat="43.65335" lon="1.861">
        <ele>172</ele>
        <time>2013-02-21T10:34:42Z</time>
      </trkpt>
      <trkpt lat="43.65343" lon="1.86107">
        <ele>172</ele>
        <time>2013-02-21T10:34:50Z</time>
      </trkpt>
      <trkpt lat="43.65351" lon="1.86114">
        <ele>174</ele>
        <time>2013-02-21T10:34:58Z</time>
      </trkpt>
      <trkpt lat="43.6536" lon="1.8612">
        <ele>176</ele>
        <time>2013-02-21T10:35:08Z</time>
      </trkpt>
      <trkpt lat="43.6537" lon="1.86127">
        <ele>178</ele>
        <time>2013-02-21T10:35:19Z</time>
      </trkpt>
      <trkpt lat="43.65379" lon="1.86134">
        <ele>177</ele>
        <time>2013-02-21T10:35:33Z</time>
      </trkpt>
      <trkpt lat="43.65388" lon="1.86141">
        <ele>177</ele>
        <time>2013-02-21T10:35:42Z</time>
      </trkpt>
      <trkpt lat="43.65395" lon="1.86149">
        <ele>181</ele>
        <time>2013-02-21T10:35:52Z</time>
      </trkpt>
      <trkpt lat="43.65405" lon="1.86152">
        <ele>181</ele>
        <time>2013-02-21T10:36:05Z</time>
      </trkpt>
      <trkpt lat="43.65414" lon="1.86157">
        <ele>181</ele>
        <time>2013-02-21T10:36:12Z</time>
      </trkpt>
      <trkpt lat="43.65422" lon="1.86165">
        <ele>182</ele>
        <time>2013-02-21T10:36:25Z</time>
      </trkpt>
      <trkpt lat="43.65431" lon="1.86169">
        <ele>180</ele>
        <time>2013-02-21T10:36:34Z</time>
      </trkpt>
      <trkpt lat="43.65439" lon="1.86175">
        <ele>180</ele>
        <time>2013-02-21T10:36:42Z</time>
      </trkpt>
      <trkpt lat="43.65448" lon="1.86181">
        <ele>181</ele>
        <time>2013-02-21T10:36:48Z</time>
      </trkpt>
      <trkpt lat="43.65456" lon="1.86187">
        <ele>186</ele>
        <time>2013-02-21T10:36:58Z</time>
      </trkpt>
      <trkpt lat="43.65463" lon="1.86196">
        <ele>189</ele>
        <time>2013-02-21T10:37:08Z</time>
      </trkpt>
      <trkpt lat="43.65473" lon="1.86202">
        <ele>189</ele>
        <time>2013-02-21T10:37:16Z</time>
      </trkpt>
      <trkpt lat="43.65481" lon="1.86208">
        <ele>189</ele>
        <time>2013-02-21T10:37:26Z</time>
      </trkpt>
      <trkpt lat="43.6549" lon="1.86212">
        <ele>191</ele>
        <time>2013-02-21T10:37:39Z</time>
      </trkpt>
      <trkpt lat="43.65501" lon="1.8622">
        <ele>195</ele>
        <time>2013-02-21T10:37:54Z</time>
      </trkpt>
      <trkpt lat="43.6551" lon="1.86224">
        <ele>197</ele>
        <time>2013-02-21T10:38:04Z</time>
      </trkpt>
      <trkpt lat="43.65519" lon="1.8623">
        <ele>200</ele>
        <time>2013-02-21T10:38:12Z</time>
      </trkpt>
      <trkpt lat="43.65527" lon="1.86239">
        <ele>203</ele>
        <time>2013-02-21T10:38:27Z</time>
      </trkpt>
      <trkpt lat="43.65536" lon="1.86245">
        <ele>206</ele>
        <time>2013-02-21T10:38:35Z</time>
      </trkpt>
      <trkpt lat="43.65545" lon="1.86252">
        <ele>207</ele>
        <time>2013-02-21T10:38:43Z</time>
      </trkpt>
      <trkpt lat="43.65555" lon="1.86263">
        <ele>205</ele>
        <time>2013-02-21T10:38:57Z</time>
      </trkpt>
      <trkpt lat="43.65564" lon="1.86268">
        <ele>206</ele>
        <time>2013-02-21T10:39:08Z</time>
      </trkpt>
      <trkpt lat="43.65572" lon="1.86275">
        <ele>205</ele>
        <time>2013-02-21T10:39:17Z</time>
      </trkpt>
      <trkpt lat="43.65582" lon="1.86278">
        <ele>206</ele>
        <time>2013-02-21T10:39:24Z</time>
      </trkpt>
      <trkpt lat="43.65588" lon="1.86281">
        <ele>208</ele>
        <time>2013-02-21T10:39:30Z</time>
      </trkpt>
      <trkpt lat="43.65592" lon="1.86284">
        <ele>208</ele>
        <time>2013-02-21T10:39:34Z</time>
      </trkpt>
      <trkpt lat="43.65603" lon="1.86289">
        <ele>210</ele>
        <time>2013-02-21T10:39:45Z</time>
      </trkpt>
      <trkpt lat="43.65613" lon="1.8629">
        <ele>211</ele>
        <time>2013-02-21T10:39:54Z</time>
      </trkpt>
      <trkpt lat="43.65622" lon="1.86288">
        <ele>210</ele>
        <time>2013-02-21T10:40:05Z</time>
      </trkpt>
      <trkpt lat="43.65627" lon="1.86284">
        <ele>210</ele>
        <time>2013-02-21T10:40:25Z</time>
      </trkpt>
      <trkpt lat="43.65624" lon="1.86279">
        <ele>212</ele>
        <time>2013-02-21T10:41:15Z</time>
      </trkpt>
      <trkpt lat="43.65627" lon="1.86281">
        <ele>212</ele>
        <time>2013-02-21T10:43:01Z</time>
      </trkpt>
      <trkpt lat="43.65635" lon="1.86273">
        <ele>213</ele>
        <time>2013-02-21T10:43:34Z</time>
      </trkpt>
      <trkpt lat="43.65642" lon="1.86258">
        <ele>211</ele>
        <time>2013-02-21T10:43:55Z</time>
      </trkpt>
      <trkpt lat="43.65647" lon="1.86246">
        <ele>210</ele>
        <time>2013-02-21T10:44:01Z</time>
      </trkpt>
      <trkpt lat="43.65655" lon="1.8624">
        <ele>213</ele>
        <time>2013-02-21T10:44:20Z</time>
      </trkpt>
      <trkpt lat="43.65659" lon="1.86244">
        <ele>212</ele>
        <time>2013-02-21T10:44:33Z</time>
      </trkpt>
      <trkpt lat="43.65658" lon="1.86256">
        <ele>213</ele>
        <time>2013-02-21T10:44:49Z</time>
      </trkpt>
      <trkpt lat="43.65658" lon="1.86263">
        <ele>212</ele>
        <time>2013-02-21T10:45:02Z</time>
      </trkpt>
      <trkpt lat="43.6566" lon="1.86277">
        <ele>211</ele>
        <time>2013-02-21T10:45:12Z</time>
      </trkpt>
      <trkpt lat="43.65661" lon="1.86287">
        <ele>210</ele>
        <time>2013-02-21T10:45:40Z</time>
      </trkpt>
      <trkpt lat="43.65663" lon="1.86295">
        <ele>212</ele>
        <time>2013-02-21T10:45:54Z</time>
      </trkpt>
      <trkpt lat="43.65671" lon="1.86297">
        <ele>213</ele>
        <time>2013-02-21T10:46:57Z</time>
      </trkpt>
      <trkpt lat="43.65669" lon="1.86301">
        <ele>213</ele>
        <time>2013-02-21T10:47:44Z</time>
      </trkpt>
      <trkpt lat="43.65666" lon="1.8632">
        <ele>213</ele>
        <time>2013-02-21T10:48:00Z</time>
      </trkpt>
      <trkpt lat="43.65663" lon="1.86332">
        <ele>212</ele>
        <time>2013-02-21T10:48:08Z</time>
      </trkpt>
      <trkpt lat="43.65668" lon="1.86344">
        <ele>213</ele>
        <time>2013-02-21T10:48:14Z</time>
      </trkpt>
      <trkpt lat="43.65675" lon="1.86353">
        <ele>216</ele>
        <time>2013-02-21T10:48:20Z</time>
      </trkpt>
      <trkpt lat="43.65674" lon="1.86368">
        <ele>217</ele>
        <time>2013-02-21T10:48:36Z</time>
      </trkpt>
      <trkpt lat="43.65676" lon="1.86381">
        <ele>215</ele>
        <time>2013-02-21T10:48:43Z</time>
      </trkpt>
      <trkpt lat="43.65677" lon="1.86395">
        <ele>214</ele>
        <time>2013-02-21T10:48:49Z</time>
      </trkpt>
      <trkpt lat="43.65679" lon="1.86407">
        <ele>215</ele>
        <time>2013-02-21T10:48:56Z</time>
      </trkpt>
      <trkpt lat="43.65681" lon="1.86422">
        <ele>215</ele>
        <time>2013-02-21T10:49:07Z</time>
      </trkpt>
      <trkpt lat="43.65684" lon="1.86441">
        <ele>216</ele>
        <time>2013-02-21T10:49:23Z</time>
      </trkpt>
      <trkpt lat="43.65687" lon="1.86458">
        <ele>219</ele>
        <time>2013-02-21T10:49:36Z</time>
      </trkpt>
      <trkpt lat="43.6569" lon="1.86472">
        <ele>220</ele>
        <time>2013-02-21T10:49:46Z</time>
      </trkpt>
      <trkpt lat="43.65688" lon="1.86485">
        <ele>221</ele>
        <time>2013-02-21T10:49:54Z</time>
      </trkpt>
      <trkpt lat="43.6569" lon="1.86492">
        <ele>221</ele>
        <time>2013-02-21T10:50:05Z</time>
      </trkpt>
      <trkpt lat="43.65689" lon="1.8651">
        <ele>219</ele>
        <time>2013-02-21T10:50:18Z</time>
      </trkpt>
      <trkpt lat="43.65689" lon="1.86526">
        <ele>220</ele>
        <time>2013-02-21T10:50:26Z</time>
      </trkpt>
      <trkpt lat="43.65689" lon="1.86543">
        <ele>219</ele>
        <time>2013-02-21T10:50:31Z</time>
      </trkpt>
      <trkpt lat="43.65688" lon="1.86556">
        <ele>221</ele>
        <time>2013-02-21T10:50:41Z</time>
      </trkpt>
      <trkpt lat="43.65687" lon="1.86562">
        <ele>222</ele>
        <time>2013-02-21T10:50:53Z</time>
      </trkpt>
      <trkpt lat="43.65685" lon="1.86576">
        <ele>223</ele>
        <time>2013-02-21T10:50:59Z</time>
      </trkpt>
      <trkpt lat="43.65682" lon="1.86589">
        <ele>224</ele>
        <time>2013-02-21T10:51:10Z</time>
      </trkpt>
      <trkpt lat="43.65681" lon="1.86602">
        <ele>225</ele>
        <time>2013-02-21T10:51:15Z</time>
      </trkpt>
      <trkpt lat="43.65679" lon="1.86619">
        <ele>225</ele>
        <time>2013-02-21T10:51:23Z</time>
      </trkpt>
      <trkpt lat="43.65682" lon="1.86632">
        <ele>225</ele>
        <time>2013-02-21T10:51:29Z</time>
      </trkpt>
      <trkpt lat="43.65678" lon="1.86643">
        <ele>227</ele>
        <time>2013-02-21T10:51:44Z</time>
      </trkpt>
      <trkpt lat="43.65669" lon="1.86648">
        <ele>227</ele>
        <time>2013-02-21T10:51:56Z</time>
      </trkpt>
      <trkpt lat="43.65665" lon="1.86655">
        <ele>227</ele>
        <time>2013-02-21T10:52:10Z</time>
      </trkpt>
      <trkpt lat="43.6566" lon="1.86672">
        <ele>228</ele>
        <time>2013-02-21T10:52:15Z</time>
      </trkpt>
      <trkpt lat="43.65658" lon="1.86687">
        <ele>227</ele>
        <time>2013-02-21T10:52:18Z</time>
      </trkpt>
      <trkpt lat="43.65653" lon="1.86707">
        <ele>230</ele>
        <time>2013-02-21T10:52:35Z</time>
      </trkpt>
      <trkpt lat="43.65653" lon="1.86716">
        <ele>234</ele>
        <time>2013-02-21T10:52:50Z</time>
      </trkpt>
      <trkpt lat="43.65645" lon="1.86736">
        <ele>235</ele>
        <time>2013-02-21T10:53:02Z</time>
      </trkpt>
      <trkpt lat="43.65641" lon="1.8675">
        <ele>237</ele>
        <time>2013-02-21T10:53:07Z</time>
      </trkpt>
      <trkpt lat="43.65638" lon="1.86763">
        <ele>238</ele>
        <time>2013-02-21T10:53:11Z</time>
      </trkpt>
      <trkpt lat="43.65642" lon="1.86779">
        <ele>241</ele>
        <time>2013-02-21T10:53:19Z</time>
      </trkpt>
      <trkpt lat="43.65647" lon="1.86794">
        <ele>244</ele>
        <time>2013-02-21T10:53:29Z</time>
      </trkpt>
      <trkpt lat="43.65646" lon="1.86807">
        <ele>244</ele>
        <time>2013-02-21T10:53:35Z</time>
      </trkpt>
      <trkpt lat="43.65652" lon="1.86818">
        <ele>245</ele>
        <time>2013-02-21T10:53:44Z</time>
      </trkpt>
      <trkpt lat="43.65662" lon="1.86823">
        <ele>245</ele>
        <time>2013-02-21T10:53:52Z</time>
      </trkpt>
      <trkpt lat="43.65671" lon="1.86826">
        <ele>244</ele>
        <time>2013-02-21T10:54:00Z</time>
      </trkpt>
      <trkpt lat="43.6568" lon="1.86827">
        <ele>243</ele>
        <time>2013-02-21T10:54:07Z</time>
      </trkpt>
      <trkpt lat="43.6569" lon="1.86827">
        <ele>239</ele>
        <time>2013-02-21T10:54:17Z</time>
      </trkpt>
      <trkpt lat="43.65702" lon="1.86825">
        <ele>241</ele>
        <time>2013-02-21T10:54:27Z</time>
      </trkpt>
      <trkpt lat="43.65713" lon="1.86824">
        <ele>242</ele>
        <time>2013-02-21T10:54:35Z</time>
      </trkpt>
      <trkpt lat="43.65723" lon="1.86822">
        <ele>244</ele>
        <time>2013-02-21T10:54:45Z</time>
      </trkpt>
      <trkpt lat="43.65733" lon="1.86821">
        <ele>242</ele>
        <time>2013-02-21T10:54:57Z</time>
      </trkpt>
      <trkpt lat="43.65742" lon="1.86818">
        <ele>240</ele>
        <time>2013-02-21T10:55:05Z</time>
      </trkpt>
      <trkpt lat="43.65752" lon="1.86821">
        <ele>238</ele>
        <time>2013-02-21T10:55:14Z</time>
      </trkpt>
      <trkpt lat="43.65761" lon="1.86819">
        <ele>237</ele>
        <time>2013-02-21T10:55:21Z</time>
      </trkpt>
      <trkpt lat="43.65772" lon="1.86817">
        <ele>237</ele>
        <time>2013-02-21T10:55:33Z</time>
      </trkpt>
      <trkpt lat="43.65781" lon="1.86809">
        <ele>235</ele>
        <time>2013-02-21T10:55:41Z</time>
      </trkpt>
      <trkpt lat="43.6579" lon="1.86805">
        <ele>232</ele>
        <time>2013-02-21T10:55:52Z</time>
      </trkpt>
      <trkpt lat="43.65801" lon="1.86799">
        <ele>231</ele>
        <time>2013-02-21T10:55:58Z</time>
      </trkpt>
      <trkpt lat="43.65804" lon="1.86785">
        <ele>232</ele>
        <time>2013-02-21T10:56:06Z</time>
      </trkpt>
      <trkpt lat="43.65814" lon="1.8678">
        <ele>231</ele>
        <time>2013-02-21T10:56:14Z</time>
      </trkpt>
      <trkpt lat="43.65828" lon="1.86784">
        <ele>238</ele>
        <time>2013-02-21T10:56:39Z</time>
      </trkpt>
      <trkpt lat="43.65837" lon="1.86786">
        <ele>239</ele>
        <time>2013-02-21T10:56:48Z</time>
      </trkpt>
      <trkpt lat="43.65846" lon="1.86789">
        <ele>242</ele>
        <time>2013-02-21T10:57:07Z</time>
      </trkpt>
      <trkpt lat="43.65855" lon="1.86792">
        <ele>244</ele>
        <time>2013-02-21T10:57:46Z</time>
      </trkpt>
      <trkpt lat="43.65862" lon="1.86803">
        <ele>243</ele>
        <time>2013-02-21T10:57:56Z</time>
      </trkpt>
      <trkpt lat="43.65871" lon="1.8681">
        <ele>243</ele>
        <time>2013-02-21T10:58:06Z</time>
      </trkpt>
      <trkpt lat="43.6588" lon="1.86815">
        <ele>244</ele>
        <time>2013-02-21T10:58:13Z</time>
      </trkpt>
      <trkpt lat="43.659" lon="1.86821">
        <ele>254</ele>
        <time>2013-02-21T10:58:52Z</time>
      </trkpt>
      <trkpt lat="43.65908" lon="1.86827">
        <ele>257</ele>
        <time>2013-02-21T10:59:08Z</time>
      </trkpt>
      <trkpt lat="43.65913" lon="1.86825">
        <ele>256</ele>
        <time>2013-02-21T10:59:46Z</time>
      </trkpt>
      <trkpt lat="43.65918" lon="1.86817">
        <ele>255</ele>
        <time>2013-02-21T11:00:12Z</time>
      </trkpt>
      <trkpt lat="43.65922" lon="1.86813">
        <ele>255</ele>
        <time>2013-02-21T11:00:16Z</time>
      </trkpt>
      <trkpt lat="43.65927" lon="1.8681">
        <ele>254</ele>
        <time>2013-02-21T11:00:21Z</time>
      </trkpt>
      <trkpt lat="43.6593" lon="1.86805">
        <ele>252</ele>
        <time>2013-02-21T11:00:27Z</time>
      </trkpt>
      <trkpt lat="43.65933" lon="1.86795">
        <ele>253</ele>
        <time>2013-02-21T11:00:39Z</time>
      </trkpt>
      <trkpt lat="43.65937" lon="1.8679">
        <ele>253</ele>
        <time>2013-02-21T11:00:44Z</time>
      </trkpt>
      <trkpt lat="43.65945" lon="1.86782">
        <ele>252</ele>
        <time>2013-02-21T11:00:57Z</time>
      </trkpt>
      <trkpt lat="43.65951" lon="1.8678">
        <ele>251</ele>
        <time>2013-02-21T11:01:06Z</time>
      </trkpt>
      <trkpt lat="43.65952" lon="1.86776">
        <ele>253</ele>
        <time>2013-02-21T11:01:23Z</time>
      </trkpt>
      <trkpt lat="43.65955" lon="1.86767">
        <ele>253</ele>
        <time>2013-02-21T11:01:52Z</time>
      </trkpt>
      <trkpt lat="43.6596" lon="1.86762">
        <ele>252</ele>
        <time>2013-02-21T11:01:58Z</time>
      </trkpt>
      <trkpt lat="43.65961" lon="1.86759">
        <ele>253</ele>
        <time>2013-02-21T11:02:05Z</time>
      </trkpt>
      <trkpt lat="43.65966" lon="1.86753">
        <ele>252</ele>
        <time>2013-02-21T11:02:22Z</time>
      </trkpt>
      <trkpt lat="43.65967" lon="1.86745">
        <ele>252</ele>
        <time>2013-02-21T11:02:36Z</time>
      </trkpt>
      <trkpt lat="43.65965" lon="1.86741">
        <ele>251</ele>
        <time>2013-02-21T11:02:44Z</time>
      </trkpt>
      <trkpt lat="43.65963" lon="1.86735">
        <ele>251</ele>
        <time>2013-02-21T11:02:53Z</time>
      </trkpt>
      <trkpt lat="43.65959" lon="1.86733">
        <ele>249</ele>
        <time>2013-02-21T11:03:03Z</time>
      </trkpt>
      <trkpt lat="43.65956" lon="1.86728">
        <ele>249</ele>
        <time>2013-02-21T11:03:32Z</time>
      </trkpt>
      <trkpt lat="43.65958" lon="1.86722">
        <ele>256</ele>
        <time>2013-02-21T11:04:30Z</time>
      </trkpt>
      <trkpt lat="43.65962" lon="1.86725">
        <ele>256</ele>
        <time>2013-02-21T11:04:33Z</time>
      </trkpt>
      <trkpt lat="43.65966" lon="1.86729">
        <ele>255</ele>
        <time>2013-02-21T11:04:38Z</time>
      </trkpt>
      <trkpt lat="43.6597" lon="1.86734">
        <ele>254</ele>
        <time>2013-02-21T11:04:43Z</time>
      </trkpt>
      <trkpt lat="43.65971" lon="1.8674">
        <ele>253</ele>
        <time>2013-02-21T11:04:48Z</time>
      </trkpt>
      <trkpt lat="43.65967" lon="1.86745">
        <ele>252</ele>
        <time>2013-02-21T11:04:54Z</time>
      </trkpt>
      <trkpt lat="43.65968" lon="1.86741">
        <ele>249</ele>
        <time>2013-02-21T11:05:33Z</time>
      </trkpt>
      <trkpt lat="43.65967" lon="1.86734">
        <ele>250</ele>
        <time>2013-02-21T11:05:37Z</time>
      </trkpt>
      <trkpt lat="43.65964" lon="1.86729">
        <ele>251</ele>
        <time>2013-02-21T11:05:41Z</time>
      </trkpt>
      <trkpt lat="43.65959" lon="1.86727">
        <ele>251</ele>
        <time>2013-02-21T11:05:46Z</time>
      </trkpt>
      <trkpt lat="43.65955" lon="1.86724">
        <ele>250</ele>
        <time>2013-02-21T11:05:53Z</time>
      </trkpt>
      <trkpt lat="43.65955" lon="1.86727">
        <ele>252</ele>
        <time>2013-02-21T11:06:55Z</time>
      </trkpt>
      <trkpt lat="43.65953" lon="1.86728">
        <ele>251</ele>
        <time>2013-02-21T11:14:16Z</time>
      </trkpt>
      <trkpt lat="43.65953" lon="1.86727">
        <ele>249</ele>
        <time>2013-02-21T11:23:17Z</time>
      </trkpt>
      <trkpt lat="43.65952" lon="1.86726">
        <ele>250</ele>
        <time>2013-02-21T11:30:49Z</time>
      </trkpt>
      <trkpt lat="43.65953" lon="1.86728">
        <ele>249</ele>
        <time>2013-02-21T11:32:23Z</time>
      </trkpt>
      <trkpt lat="43.65958" lon="1.86732">
        <ele>252</ele>
        <time>2013-02-21T11:46:24Z</time>
      </trkpt>
      <trkpt lat="43.65962" lon="1.86728">
        <ele>249</ele>
        <time>2013-02-21T11:47:22Z</time>
      </trkpt>
      <trkpt lat="43.65969" lon="1.86728">
        <ele>248</ele>
        <time>2013-02-21T11:47:32Z</time>
      </trkpt>
      <trkpt lat="43.65978" lon="1.86731">
        <ele>250</ele>
        <time>2013-02-21T11:47:42Z</time>
      </trkpt>
      <trkpt lat="43.65983" lon="1.86728">
        <ele>248</ele>
        <time>2013-02-21T11:48:09Z</time>
      </trkpt>
      <trkpt lat="43.65992" lon="1.86728">
        <ele>247</ele>
        <time>2013-02-21T11:48:23Z</time>
      </trkpt>
      <trkpt lat="43.65997" lon="1.86717">
        <ele>247</ele>
        <time>2013-02-21T11:48:35Z</time>
      </trkpt>
      <trkpt lat="43.66001" lon="1.86712">
        <ele>246</ele>
        <time>2013-02-21T11:48:43Z</time>
      </trkpt>
      <trkpt lat="43.66003" lon="1.8671">
        <ele>244</ele>
        <time>2013-02-21T11:48:50Z</time>
      </trkpt>
      <trkpt lat="43.66008" lon="1.86703">
        <ele>245</ele>
        <time>2013-02-21T11:48:56Z</time>
      </trkpt>
      <trkpt lat="43.66012" lon="1.86699">
        <ele>245</ele>
        <time>2013-02-21T11:49:02Z</time>
      </trkpt>
      <trkpt lat="43.66017" lon="1.86689">
        <ele>243</ele>
        <time>2013-02-21T11:49:19Z</time>
      </trkpt>
      <trkpt lat="43.66021" lon="1.86684">
        <ele>244</ele>
        <time>2013-02-21T11:49:24Z</time>
      </trkpt>
      <trkpt lat="43.66025" lon="1.86681">
        <ele>246</ele>
        <time>2013-02-21T11:49:32Z</time>
      </trkpt>
      <trkpt lat="43.66028" lon="1.86679">
        <ele>246</ele>
        <time>2013-02-21T11:49:51Z</time>
      </trkpt>
      <trkpt lat="43.66034" lon="1.86677">
        <ele>243</ele>
        <time>2013-02-21T11:50:06Z</time>
      </trkpt>
      <trkpt lat="43.66037" lon="1.86681">
        <ele>244</ele>
        <time>2013-02-21T11:50:17Z</time>
      </trkpt>
      <trkpt lat="43.66032" lon="1.86697">
        <ele>243</ele>
        <time>2013-02-21T11:50:31Z</time>
      </trkpt>
      <trkpt lat="43.66026" lon="1.86712">
        <ele>242</ele>
        <time>2013-02-21T11:50:45Z</time>
      </trkpt>
      <trkpt lat="43.66019" lon="1.86722">
        <ele>241</ele>
        <time>2013-02-21T11:50:56Z</time>
      </trkpt>
      <trkpt lat="43.66012" lon="1.8674">
        <ele>243</ele>
        <time>2013-02-21T11:51:14Z</time>
      </trkpt>
      <trkpt lat="43.66008" lon="1.86747">
        <ele>242</ele>
        <time>2013-02-21T11:51:28Z</time>
      </trkpt>
      <trkpt lat="43.66002" lon="1.86757">
        <ele>239</ele>
        <time>2013-02-21T11:51:42Z</time>
      </trkpt>
      <trkpt lat="43.65997" lon="1.86767">
        <ele>239</ele>
        <time>2013-02-21T11:51:48Z</time>
      </trkpt>
      <trkpt lat="43.65988" lon="1.86777">
        <ele>238</ele>
        <time>2013-02-21T11:51:59Z</time>
      </trkpt>
      <trkpt lat="43.65983" lon="1.86793">
        <ele>239</ele>
        <time>2013-02-21T11:52:13Z</time>
      </trkpt>
      <trkpt lat="43.65979" lon="1.86806">
        <ele>236</ele>
        <time>2013-02-21T11:52:24Z</time>
      </trkpt>
      <trkpt lat="43.65974" lon="1.86818">
        <ele>236</ele>
        <time>2013-02-21T11:52:31Z</time>
      </trkpt>
      <trkpt lat="43.6597" lon="1.86829">
        <ele>238</ele>
        <time>2013-02-21T11:52:40Z</time>
      </trkpt>
      <trkpt lat="43.65963" lon="1.86839">
        <ele>240</ele>
        <time>2013-02-21T11:52:48Z</time>
      </trkpt>
      <trkpt lat="43.65958" lon="1.86843">
        <ele>242</ele>
        <time>2013-02-21T11:53:01Z</time>
      </trkpt>
      <trkpt lat="43.65964" lon="1.86858">
        <ele>240</ele>
        <time>2013-02-21T11:53:17Z</time>
      </trkpt>
      <trkpt lat="43.65961" lon="1.8687">
        <ele>240</ele>
        <time>2013-02-21T11:53:28Z</time>
      </trkpt>
      <trkpt lat="43.65954" lon="1.86879">
        <ele>240</ele>
        <time>2013-02-21T11:53:34Z</time>
      </trkpt>
      <trkpt lat="43.65947" lon="1.86888">
        <ele>241</ele>
        <time>2013-02-21T11:53:44Z</time>
      </trkpt>
      <trkpt lat="43.65936" lon="1.86899">
        <ele>243</ele>
        <time>2013-02-21T11:53:54Z</time>
      </trkpt>
      <trkpt lat="43.65929" lon="1.86909">
        <ele>246</ele>
        <time>2013-02-21T11:54:04Z</time>
      </trkpt>
      <trkpt lat="43.65924" lon="1.8692">
        <ele>247</ele>
        <time>2013-02-21T11:54:10Z</time>
      </trkpt>
      <trkpt lat="43.65926" lon="1.86932">
        <ele>248</ele>
        <time>2013-02-21T11:54:15Z</time>
      </trkpt>
      <trkpt lat="43.65926" lon="1.86948">
        <ele>248</ele>
        <time>2013-02-21T11:54:23Z</time>
      </trkpt>
      <trkpt lat="43.65921" lon="1.86963">
        <ele>248</ele>
        <time>2013-02-21T11:54:32Z</time>
      </trkpt>
      <trkpt lat="43.65923" lon="1.86978">
        <ele>246</ele>
        <time>2013-02-21T11:54:39Z</time>
      </trkpt>
      <trkpt lat="43.65923" lon="1.86986">
        <ele>243</ele>
        <time>2013-02-21T11:54:54Z</time>
      </trkpt>
      <trkpt lat="43.65921" lon="1.86999">
        <ele>241</ele>
        <time>2013-02-21T11:55:03Z</time>
      </trkpt>
      <trkpt lat="43.65922" lon="1.87006">
        <ele>234</ele>
        <time>2013-02-21T11:55:15Z</time>
      </trkpt>
      <trkpt lat="43.65916" lon="1.87018">
        <ele>228</ele>
        <time>2013-02-21T11:55:30Z</time>
      </trkpt>
      <trkpt lat="43.65913" lon="1.87031">
        <ele>228</ele>
        <time>2013-02-21T11:55:41Z</time>
      </trkpt>
      <trkpt lat="43.65912" lon="1.87047">
        <ele>230</ele>
        <time>2013-02-21T11:55:45Z</time>
      </trkpt>
      <trkpt lat="43.6592" lon="1.87056">
        <ele>231</ele>
        <time>2013-02-21T11:55:51Z</time>
      </trkpt>
      <trkpt lat="43.65929" lon="1.87078">
        <ele>218</ele>
        <time>2013-02-21T11:56:22Z</time>
      </trkpt>
      <trkpt lat="43.65929" lon="1.87085">
        <ele>214</ele>
        <time>2013-02-21T11:56:33Z</time>
      </trkpt>
      <trkpt lat="43.65931" lon="1.87102">
        <ele>213</ele>
        <time>2013-02-21T11:56:36Z</time>
      </trkpt>
      <trkpt lat="43.65932" lon="1.87125">
        <ele>215</ele>
        <time>2013-02-21T11:56:43Z</time>
      </trkpt>
      <trkpt lat="43.65939" lon="1.87139">
        <ele>216</ele>
        <time>2013-02-21T11:56:54Z</time>
      </trkpt>
      <trkpt lat="43.65943" lon="1.87154">
        <ele>212</ele>
        <time>2013-02-21T11:57:09Z</time>
      </trkpt>
      <trkpt lat="43.65947" lon="1.87166">
        <ele>211</ele>
        <time>2013-02-21T11:57:17Z</time>
      </trkpt>
      <trkpt lat="43.65951" lon="1.87178">
        <ele>210</ele>
        <time>2013-02-21T11:57:23Z</time>
      </trkpt>
      <trkpt lat="43.65951" lon="1.87192">
        <ele>211</ele>
        <time>2013-02-21T11:57:37Z</time>
      </trkpt>
      <trkpt lat="43.65952" lon="1.87208">
        <ele>211</ele>
        <time>2013-02-21T11:57:46Z</time>
      </trkpt>
      <trkpt lat="43.65952" lon="1.8722">
        <ele>211</ele>
        <time>2013-02-21T11:57:52Z</time>
      </trkpt>
      <trkpt lat="43.65957" lon="1.87231">
        <ele>211</ele>
        <time>2013-02-21T11:58:01Z</time>
      </trkpt>
      <trkpt lat="43.65957" lon="1.87249">
        <ele>213</ele>
        <time>2013-02-21T11:58:13Z</time>
      </trkpt>
      <trkpt lat="43.65959" lon="1.87262">
        <ele>213</ele>
        <time>2013-02-21T11:58:19Z</time>
      </trkpt>
      <trkpt lat="43.65961" lon="1.87276">
        <ele>214</ele>
        <time>2013-02-21T11:58:29Z</time>
      </trkpt>
      <trkpt lat="43.65963" lon="1.8729">
        <ele>212</ele>
        <time>2013-02-21T11:58:40Z</time>
      </trkpt>
      <trkpt lat="43.65965" lon="1.87302">
        <ele>212</ele>
        <time>2013-02-21T11:58:50Z</time>
      </trkpt>
      <trkpt lat="43.65969" lon="1.87306">
        <ele>210</ele>
        <time>2013-02-21T11:58:58Z</time>
      </trkpt>
      <trkpt lat="43.65971" lon="1.87316">
        <ele>212</ele>
        <time>2013-02-21T11:59:06Z</time>
      </trkpt>
      <trkpt lat="43.65971" lon="1.87322">
        <ele>213</ele>
        <time>2013-02-21T11:59:11Z</time>
      </trkpt>
      <trkpt lat="43.65972" lon="1.87331">
        <ele>214</ele>
        <time>2013-02-21T11:59:16Z</time>
      </trkpt>
      <trkpt lat="43.65976" lon="1.87339">
        <ele>215</ele>
        <time>2013-02-21T11:59:25Z</time>
      </trkpt>
      <trkpt lat="43.65978" lon="1.87344">
        <ele>214</ele>
        <time>2013-02-21T11:59:29Z</time>
      </trkpt>
      <trkpt lat="43.65978" lon="1.87357">
        <ele>211</ele>
        <time>2013-02-21T11:59:39Z</time>
      </trkpt>
      <trkpt lat="43.65973" lon="1.87369">
        <ele>211</ele>
        <time>2013-02-21T11:59:50Z</time>
      </trkpt>
      <trkpt lat="43.65967" lon="1.87382">
        <ele>212</ele>
        <time>2013-02-21T12:00:02Z</time>
      </trkpt>
      <trkpt lat="43.65959" lon="1.87394">
        <ele>219</ele>
        <time>2013-02-21T12:00:18Z</time>
      </trkpt>
      <trkpt lat="43.65955" lon="1.87403">
        <ele>218</ele>
        <time>2013-02-21T12:00:27Z</time>
      </trkpt>
      <trkpt lat="43.65947" lon="1.87407">
        <ele>218</ele>
        <time>2013-02-21T12:00:54Z</time>
      </trkpt>
      <trkpt lat="43.65945" lon="1.87415">
        <ele>219</ele>
        <time>2013-02-21T12:01:37Z</time>
      </trkpt>
      <trkpt lat="43.65939" lon="1.87424">
        <ele>219</ele>
        <time>2013-02-21T12:01:45Z</time>
      </trkpt>
      <trkpt lat="43.65935" lon="1.87436">
        <ele>219</ele>
        <time>2013-02-21T12:01:54Z</time>
      </trkpt>
      <trkpt lat="43.6593" lon="1.87446">
        <ele>219</ele>
        <time>2013-02-21T12:02:06Z</time>
      </trkpt>
      <trkpt lat="43.65925" lon="1.87454">
        <ele>221</ele>
        <time>2013-02-21T12:02:19Z</time>
      </trkpt>
      <trkpt lat="43.65923" lon="1.87457">
        <ele>224</ele>
        <time>2013-02-21T12:02:36Z</time>
      </trkpt>
      <trkpt lat="43.65914" lon="1.87461">
        <ele>225</ele>
        <time>2013-02-21T12:02:44Z</time>
      </trkpt>
      <trkpt lat="43.65904" lon="1.87468">
        <ele>226</ele>
        <time>2013-02-21T12:02:54Z</time>
      </trkpt>
      <trkpt lat="43.65897" lon="1.87476">
        <ele>228</ele>
        <time>2013-02-21T12:03:02Z</time>
      </trkpt>
      <trkpt lat="43.65892" lon="1.87487">
        <ele>229</ele>
        <time>2013-02-21T12:03:09Z</time>
      </trkpt>
      <trkpt lat="43.65889" lon="1.875">
        <ele>231</ele>
        <time>2013-02-21T12:03:15Z</time>
      </trkpt>
      <trkpt lat="43.65884" lon="1.87512">
        <ele>232</ele>
        <time>2013-02-21T12:03:26Z</time>
      </trkpt>
      <trkpt lat="43.65878" lon="1.87523">
        <ele>232</ele>
        <time>2013-02-21T12:03:36Z</time>
      </trkpt>
      <trkpt lat="43.65873" lon="1.87534">
        <ele>234</ele>
        <time>2013-02-21T12:03:42Z</time>
      </trkpt>
      <trkpt lat="43.65869" lon="1.87543">
        <ele>237</ele>
        <time>2013-02-21T12:03:50Z</time>
      </trkpt>
      <trkpt lat="43.65863" lon="1.87549">
        <ele>235</ele>
        <time>2013-02-21T12:04:00Z</time>
      </trkpt>
      <trkpt lat="43.6586" lon="1.87552">
        <ele>232</ele>
        <time>2013-02-21T12:04:09Z</time>
      </trkpt>
      <trkpt lat="43.65852" lon="1.87563">
        <ele>232</ele>
        <time>2013-02-21T12:04:24Z</time>
      </trkpt>
      <trkpt lat="43.6585" lon="1.87569">
        <ele>230</ele>
        <time>2013-02-21T12:04:30Z</time>
      </trkpt>
      <trkpt lat="43.65847" lon="1.87576">
        <ele>229</ele>
        <time>2013-02-21T12:04:36Z</time>
      </trkpt>
      <trkpt lat="43.65843" lon="1.8758">
        <ele>229</ele>
        <time>2013-02-21T12:04:40Z</time>
      </trkpt>
      <trkpt lat="43.6584" lon="1.87586">
        <ele>229</ele>
        <time>2013-02-21T12:04:45Z</time>
      </trkpt>
      <trkpt lat="43.65834" lon="1.87596">
        <ele>224</ele>
        <time>2013-02-21T12:04:54Z</time>
      </trkpt>
      <trkpt lat="43.65831" lon="1.87601">
        <ele>224</ele>
        <time>2013-02-21T12:05:00Z</time>
      </trkpt>
      <trkpt lat="43.65829" lon="1.87607">
        <ele>224</ele>
        <time>2013-02-21T12:05:04Z</time>
      </trkpt>
      <trkpt lat="43.65828" lon="1.87613">
        <ele>224</ele>
        <time>2013-02-21T12:05:07Z</time>
      </trkpt>
      <trkpt lat="43.65823" lon="1.87624">
        <ele>221</ele>
        <time>2013-02-21T12:05:16Z</time>
      </trkpt>
      <trkpt lat="43.65817" lon="1.87635">
        <ele>221</ele>
        <time>2013-02-21T12:05:26Z</time>
      </trkpt>
      <trkpt lat="43.65811" lon="1.87647">
        <ele>222</ele>
        <time>2013-02-21T12:05:35Z</time>
      </trkpt>
      <trkpt lat="43.65805" lon="1.87661">
        <ele>224</ele>
        <time>2013-02-21T12:05:49Z</time>
      </trkpt>
      <trkpt lat="43.65803" lon="1.87676">
        <ele>222</ele>
        <time>2013-02-21T12:05:57Z</time>
      </trkpt>
      <trkpt lat="43.65801" lon="1.87689">
        <ele>221</ele>
        <time>2013-02-21T12:06:05Z</time>
      </trkpt>
      <trkpt lat="43.65797" lon="1.87702">
        <ele>223</ele>
        <time>2013-02-21T12:06:12Z</time>
      </trkpt>
      <trkpt lat="43.65792" lon="1.87728">
        <ele>236</ele>
        <time>2013-02-21T12:06:31Z</time>
      </trkpt>
      <trkpt lat="43.65788" lon="1.87739">
        <ele>237</ele>
        <time>2013-02-21T12:06:41Z</time>
      </trkpt>
      <trkpt lat="43.65785" lon="1.87747">
        <ele>237</ele>
        <time>2013-02-21T12:06:46Z</time>
      </trkpt>
      <trkpt lat="43.65784" lon="1.87754">
        <ele>236</ele>
        <time>2013-02-21T12:06:51Z</time>
      </trkpt>
      <trkpt lat="43.65783" lon="1.8776">
        <ele>234</ele>
        <time>2013-02-21T12:06:54Z</time>
      </trkpt>
      <trkpt lat="43.65781" lon="1.87773">
        <ele>232</ele>
        <time>2013-02-21T12:07:02Z</time>
      </trkpt>
      <trkpt lat="43.6578" lon="1.87785">
        <ele>231</ele>
        <time>2013-02-21T12:07:11Z</time>
      </trkpt>
      <trkpt lat="43.6578" lon="1.87792">
        <ele>230</ele>
        <time>2013-02-21T12:07:14Z</time>
      </trkpt>
      <trkpt lat="43.65776" lon="1.87805">
        <ele>228</ele>
        <time>2013-02-21T12:07:23Z</time>
      </trkpt>
      <trkpt lat="43.65773" lon="1.87819">
        <ele>225</ele>
        <time>2013-02-21T12:07:30Z</time>
      </trkpt>
      <trkpt lat="43.6577" lon="1.87832">
        <ele>226</ele>
        <time>2013-02-21T12:07:38Z</time>
      </trkpt>
      <trkpt lat="43.65768" lon="1.87846">
        <ele>229</ele>
        <time>2013-02-21T12:07:46Z</time>
      </trkpt>
      <trkpt lat="43.65764" lon="1.87861">
        <ele>231</ele>
        <time>2013-02-21T12:07:54Z</time>
      </trkpt>
      <trkpt lat="43.6576" lon="1.87872">
        <ele>231</ele>
        <time>2013-02-21T12:08:02Z</time>
      </trkpt>
      <trkpt lat="43.65757" lon="1.87885">
        <ele>230</ele>
        <time>2013-02-21T12:08:09Z</time>
      </trkpt>
      <trkpt lat="43.65751" lon="1.87899">
        <ele>229</ele>
        <time>2013-02-21T12:08:21Z</time>
      </trkpt>
      <trkpt lat="43.65747" lon="1.87911">
        <ele>229</ele>
        <time>2013-02-21T12:08:28Z</time>
      </trkpt>
      <trkpt lat="43.65741" lon="1.8792">
        <ele>228</ele>
        <time>2013-02-21T12:08:35Z</time>
      </trkpt>
      <trkpt lat="43.65735" lon="1.87933">
        <ele>227</ele>
        <time>2013-02-21T12:08:46Z</time>
      </trkpt>
      <trkpt lat="43.65731" lon="1.87946">
        <ele>229</ele>
        <time>2013-02-21T12:08:53Z</time>
      </trkpt>
      <trkpt lat="43.65729" lon="1.87959">
        <ele>230</ele>
        <time>2013-02-21T12:08:59Z</time>
      </trkpt>
      <trkpt lat="43.65726" lon="1.87971">
        <ele>230</ele>
        <time>2013-02-21T12:09:09Z</time>
      </trkpt>
      <trkpt lat="43.65732" lon="1.87981">
        <ele>224</ele>
        <time>2013-02-21T12:09:36Z</time>
      </trkpt>
      <trkpt lat="43.65743" lon="1.87978">
        <ele>221</ele>
        <time>2013-02-21T12:09:42Z</time>
      </trkpt>
      <trkpt lat="43.65753" lon="1.87975">
        <ele>218</ele>
        <time>2013-02-21T12:09:48Z</time>
      </trkpt>
      <trkpt lat="43.65763" lon="1.87971">
        <ele>217</ele>
        <time>2013-02-21T12:09:55Z</time>
      </trkpt>
      <trkpt lat="43.65772" lon="1.87965">
        <ele>214</ele>
        <time>2013-02-21T12:10:04Z</time>
      </trkpt>
      <trkpt lat="43.65781" lon="1.87955">
        <ele>210</ele>
        <time>2013-02-21T12:10:21Z</time>
      </trkpt>
      <trkpt lat="43.6579" lon="1.87944">
        <ele>211</ele>
        <time>2013-02-21T12:10:34Z</time>
      </trkpt>
      <trkpt lat="43.65803" lon="1.87937">
        <ele>209</ele>
        <time>2013-02-21T12:10:48Z</time>
      </trkpt>
      <trkpt lat="43.65813" lon="1.87934">
        <ele>209</ele>
        <time>2013-02-21T12:10:54Z</time>
      </trkpt>
      <trkpt lat="43.65821" lon="1.87927">
        <ele>209</ele>
        <time>2013-02-21T12:11:00Z</time>
      </trkpt>
      <trkpt lat="43.65831" lon="1.87921">
        <ele>209</ele>
        <time>2013-02-21T12:11:10Z</time>
      </trkpt>
      <trkpt lat="43.65841" lon="1.87911">
        <ele>206</ele>
        <time>2013-02-21T12:11:22Z</time>
      </trkpt>
      <trkpt lat="43.6585" lon="1.87907">
        <ele>205</ele>
        <time>2013-02-21T12:11:28Z</time>
      </trkpt>
      <trkpt lat="43.65859" lon="1.87906">
        <ele>206</ele>
        <time>2013-02-21T12:11:33Z</time>
      </trkpt>
      <trkpt lat="43.65868" lon="1.87901">
        <ele>206</ele>
        <time>2013-02-21T12:11:42Z</time>
      </trkpt>
      <trkpt lat="43.65876" lon="1.87895">
        <ele>207</ele>
        <time>2013-02-21T12:11:50Z</time>
      </trkpt>
      <trkpt lat="43.65881" lon="1.87881">
        <ele>209</ele>
        <time>2013-02-21T12:12:00Z</time>
      </trkpt>
      <trkpt lat="43.65885" lon="1.8787">
        <ele>209</ele>
        <time>2013-02-21T12:12:10Z</time>
      </trkpt>
      <trkpt lat="43.65888" lon="1.87857">
        <ele>209</ele>
        <time>2013-02-21T12:12:19Z</time>
      </trkpt>
      <trkpt lat="43.65891" lon="1.87846">
        <ele>208</ele>
        <time>2013-02-21T12:12:29Z</time>
      </trkpt>
      <trkpt lat="43.65894" lon="1.87832">
        <ele>205</ele>
        <time>2013-02-21T12:12:40Z</time>
      </trkpt>
      <trkpt lat="43.65898" lon="1.8782">
        <ele>205</ele>
        <time>2013-02-21T12:12:45Z</time>
      </trkpt>
      <trkpt lat="43.65902" lon="1.87808">
        <ele>206</ele>
        <time>2013-02-21T12:12:54Z</time>
      </trkpt>
      <trkpt lat="43.65906" lon="1.87797">
        <ele>208</ele>
        <time>2013-02-21T12:13:05Z</time>
      </trkpt>
      <trkpt lat="43.65908" lon="1.87783">
        <ele>208</ele>
        <time>2013-02-21T12:13:11Z</time>
      </trkpt>
      <trkpt lat="43.65911" lon="1.87769">
        <ele>208</ele>
        <time>2013-02-21T12:13:16Z</time>
      </trkpt>
      <trkpt lat="43.65912" lon="1.87756">
        <ele>208</ele>
        <time>2013-02-21T12:13:22Z</time>
      </trkpt>
      <trkpt lat="43.65914" lon="1.87744">
        <ele>208</ele>
        <time>2013-02-21T12:13:29Z</time>
      </trkpt>
      <trkpt lat="43.65918" lon="1.87731">
        <ele>205</ele>
        <time>2013-02-21T12:13:40Z</time>
      </trkpt>
      <trkpt lat="43.6592" lon="1.87719">
        <ele>204</ele>
        <time>2013-02-21T12:13:49Z</time>
      </trkpt>
      <trkpt lat="43.65924" lon="1.87706">
        <ele>203</ele>
        <time>2013-02-21T12:13:59Z</time>
      </trkpt>
      <trkpt lat="43.65928" lon="1.87695">
        <ele>202</ele>
        <time>2013-02-21T12:14:06Z</time>
      </trkpt>
      <trkpt lat="43.65927" lon="1.87682">
        <ele>201</ele>
        <time>2013-02-21T12:14:12Z</time>
      </trkpt>
      <trkpt lat="43.65927" lon="1.87668">
        <ele>198</ele>
        <time>2013-02-21T12:14:18Z</time>
      </trkpt>
      <trkpt lat="43.6593" lon="1.87656">
        <ele>198</ele>
        <time>2013-02-21T12:14:28Z</time>
      </trkpt>
      <trkpt lat="43.65939" lon="1.87647">
        <ele>197</ele>
        <time>2013-02-21T12:14:38Z</time>
      </trkpt>
      <trkpt lat="43.65945" lon="1.87637">
        <ele>200</ele>
        <time>2013-02-21T12:14:47Z</time>
      </trkpt>
      <trkpt lat="43.65954" lon="1.87628">
        <ele>200</ele>
        <time>2013-02-21T12:14:56Z</time>
      </trkpt>
      <trkpt lat="43.65959" lon="1.87613">
        <ele>199</ele>
        <time>2013-02-21T12:15:07Z</time>
      </trkpt>
      <trkpt lat="43.65964" lon="1.87602">
        <ele>198</ele>
        <time>2013-02-21T12:15:14Z</time>
      </trkpt>
      <trkpt lat="43.65973" lon="1.87596">
        <ele>198</ele>
        <time>2013-02-21T12:15:22Z</time>
      </trkpt>
      <trkpt lat="43.65982" lon="1.87588">
        <ele>195</ele>
        <time>2013-02-21T12:15:31Z</time>
      </trkpt>
      <trkpt lat="43.6599" lon="1.87579">
        <ele>194</ele>
        <time>2013-02-21T12:15:40Z</time>
      </trkpt>
      <trkpt lat="43.66" lon="1.87574">
        <ele>193</ele>
        <time>2013-02-21T12:15:48Z</time>
      </trkpt>
      <trkpt lat="43.6601" lon="1.87572">
        <ele>193</ele>
        <time>2013-02-21T12:15:56Z</time>
      </trkpt>
      <trkpt lat="43.66018" lon="1.87563">
        <ele>195</ele>
        <time>2013-02-21T12:16:04Z</time>
      </trkpt>
      <trkpt lat="43.66025" lon="1.87555">
        <ele>196</ele>
        <time>2013-02-21T12:16:12Z</time>
      </trkpt>
      <trkpt lat="43.66035" lon="1.87549">
        <ele>197</ele>
        <time>2013-02-21T12:16:19Z</time>
      </trkpt>
      <trkpt lat="43.66043" lon="1.87542">
        <ele>199</ele>
        <time>2013-02-21T12:16:26Z</time>
      </trkpt>
      <trkpt lat="43.66053" lon="1.87538">
        <ele>201</ele>
        <time>2013-02-21T12:16:35Z</time>
      </trkpt>
      <trkpt lat="43.66062" lon="1.87535">
        <ele>199</ele>
        <time>2013-02-21T12:16:44Z</time>
      </trkpt>
      <trkpt lat="43.66072" lon="1.87536">
        <ele>196</ele>
        <time>2013-02-21T12:16:52Z</time>
      </trkpt>
      <trkpt lat="43.66082" lon="1.87534">
        <ele>196</ele>
        <time>2013-02-21T12:17:00Z</time>
      </trkpt>
      <trkpt lat="43.66091" lon="1.8753">
        <ele>197</ele>
        <time>2013-02-21T12:17:06Z</time>
      </trkpt>
      <trkpt lat="43.66099" lon="1.87525">
        <ele>197</ele>
        <time>2013-02-21T12:17:13Z</time>
      </trkpt>
      <trkpt lat="43.66108" lon="1.8752">
        <ele>193</ele>
        <time>2013-02-21T12:17:24Z</time>
      </trkpt>
      <trkpt lat="43.66113" lon="1.87533">
        <ele>190</ele>
        <time>2013-02-21T12:17:33Z</time>
      </trkpt>
      <trkpt lat="43.66114" lon="1.87546">
        <ele>189</ele>
        <time>2013-02-21T12:17:43Z</time>
      </trkpt>
      <trkpt lat="43.66117" lon="1.87562">
        <ele>192</ele>
        <time>2013-02-21T12:18:00Z</time>
      </trkpt>
      <trkpt lat="43.66117" lon="1.87578">
        <ele>193</ele>
        <time>2013-02-21T12:18:16Z</time>
      </trkpt>
      <trkpt lat="43.66124" lon="1.87596">
        <ele>196</ele>
        <time>2013-02-21T12:18:40Z</time>
      </trkpt>
      <trkpt lat="43.66125" lon="1.87611">
        <ele>196</ele>
        <time>2013-02-21T12:18:56Z</time>
      </trkpt>
      <trkpt lat="43.66121" lon="1.87629">
        <ele>200</ele>
        <time>2013-02-21T12:19:05Z</time>
      </trkpt>
      <trkpt lat="43.66132" lon="1.87632">
        <ele>205</ele>
        <time>2013-02-21T12:19:21Z</time>
      </trkpt>
      <trkpt lat="43.66138" lon="1.87636">
        <ele>206</ele>
        <time>2013-02-21T12:19:37Z</time>
      </trkpt>
      <trkpt lat="43.66144" lon="1.8764">
        <ele>206</ele>
        <time>2013-02-21T12:19:53Z</time>
      </trkpt>
      <trkpt lat="43.66157" lon="1.87641">
        <ele>209</ele>
        <time>2013-02-21T12:20:05Z</time>
      </trkpt>
      <trkpt lat="43.66165" lon="1.87643">
        <ele>209</ele>
        <time>2013-02-21T12:20:29Z</time>
      </trkpt>
      <trkpt lat="43.66175" lon="1.87642">
        <ele>210</ele>
        <time>2013-02-21T12:20:39Z</time>
      </trkpt>
      <trkpt lat="43.66185" lon="1.87638">
        <ele>212</ele>
        <time>2013-02-21T12:20:45Z</time>
      </trkpt>
      <trkpt lat="43.66194" lon="1.87635">
        <ele>212</ele>
        <time>2013-02-21T12:20:48Z</time>
      </trkpt>
      <trkpt lat="43.66203" lon="1.87634">
        <ele>214</ele>
        <time>2013-02-21T12:20:57Z</time>
      </trkpt>
      <trkpt lat="43.66208" lon="1.87633">
        <ele>215</ele>
        <time>2013-02-21T12:21:03Z</time>
      </trkpt>
      <trkpt lat="43.66213" lon="1.87631">
        <ele>216</ele>
        <time>2013-02-21T12:21:09Z</time>
      </trkpt>
      <trkpt lat="43.66218" lon="1.87633">
        <ele>217</ele>
        <time>2013-02-21T12:21:16Z</time>
      </trkpt>
      <trkpt lat="43.66223" lon="1.87635">
        <ele>219</ele>
        <time>2013-02-21T12:21:21Z</time>
      </trkpt>
      <trkpt lat="43.66228" lon="1.87637">
        <ele>220</ele>
        <time>2013-02-21T12:21:27Z</time>
      </trkpt>
      <trkpt lat="43.66232" lon="1.87637">
        <ele>222</ele>
        <time>2013-02-21T12:21:32Z</time>
      </trkpt>
      <trkpt lat="43.66237" lon="1.87637">
        <ele>221</ele>
        <time>2013-02-21T12:21:38Z</time>
      </trkpt>
      <trkpt lat="43.66242" lon="1.87637">
        <ele>220</ele>
        <time>2013-02-21T12:21:43Z</time>
      </trkpt>
      <trkpt lat="43.66247" lon="1.87638">
        <ele>220</ele>
        <time>2013-02-21T12:21:48Z</time>
      </trkpt>
      <trkpt lat="43.66252" lon="1.87639">
        <ele>222</ele>
        <time>2013-02-21T12:21:55Z</time>
      </trkpt>
      <trkpt lat="43.66258" lon="1.8764">
        <ele>223</ele>
        <time>2013-02-21T12:22:00Z</time>
      </trkpt>
      <trkpt lat="43.66262" lon="1.8764">
        <ele>224</ele>
        <time>2013-02-21T12:22:04Z</time>
      </trkpt>
      <trkpt lat="43.66269" lon="1.87643">
        <ele>224</ele>
        <time>2013-02-21T12:22:11Z</time>
      </trkpt>
      <trkpt lat="43.66276" lon="1.87642">
        <ele>224</ele>
        <time>2013-02-21T12:22:19Z</time>
      </trkpt>
      <trkpt lat="43.66287" lon="1.87643">
        <ele>225</ele>
        <time>2013-02-21T12:22:27Z</time>
      </trkpt>
      <trkpt lat="43.66296" lon="1.87646">
        <ele>226</ele>
        <time>2013-02-21T12:22:32Z</time>
      </trkpt>
      <trkpt lat="43.66305" lon="1.87649">
        <ele>227</ele>
        <time>2013-02-21T12:22:38Z</time>
      </trkpt>
      <trkpt lat="43.66315" lon="1.87651">
        <ele>229</ele>
        <time>2013-02-21T12:22:44Z</time>
      </trkpt>
      <trkpt lat="43.66324" lon="1.87654">
        <ele>231</ele>
        <time>2013-02-21T12:22:53Z</time>
      </trkpt>
      <trkpt lat="43.66334" lon="1.87652">
        <ele>230</ele>
        <time>2013-02-21T12:23:03Z</time>
      </trkpt>
      <trkpt lat="43.66343" lon="1.87657">
        <ele>229</ele>
        <time>2013-02-21T12:23:12Z</time>
      </trkpt>
      <trkpt lat="43.66352" lon="1.87662">
        <ele>232</ele>
        <time>2013-02-21T12:23:21Z</time>
      </trkpt>
      <trkpt lat="43.66357" lon="1.87674">
        <ele>234</ele>
        <time>2013-02-21T12:23:30Z</time>
      </trkpt>
      <trkpt lat="43.66359" lon="1.87687">
        <ele>235</ele>
        <time>2013-02-21T12:23:38Z</time>
      </trkpt>
      <trkpt lat="43.66359" lon="1.877">
        <ele>237</ele>
        <time>2013-02-21T12:23:46Z</time>
      </trkpt>
      <trkpt lat="43.66359" lon="1.87713">
        <ele>239</ele>
        <time>2013-02-21T12:23:53Z</time>
      </trkpt>
      <trkpt lat="43.66358" lon="1.87726">
        <ele>239</ele>
        <time>2013-02-21T12:24:00Z</time>
      </trkpt>
      <trkpt lat="43.66354" lon="1.87751">
        <ele>239</ele>
        <time>2013-02-21T12:24:16Z</time>
      </trkpt>
      <trkpt lat="43.66348" lon="1.87761">
        <ele>238</ele>
        <time>2013-02-21T12:24:25Z</time>
      </trkpt>
      <trkpt lat="43.66346" lon="1.8776">
        <ele>240</ele>
        <time>2013-02-21T12:24:46Z</time>
      </trkpt>
      <trkpt lat="43.66347" lon="1.87765">
        <ele>237</ele>
        <time>2013-02-21T12:26:32Z</time>
      </trkpt>
      <trkpt lat="43.66348" lon="1.87772">
        <ele>237</ele>
        <time>2013-02-21T12:26:37Z</time>
      </trkpt>
      <trkpt lat="43.66349" lon="1.87779">
        <ele>238</ele>
        <time>2013-02-21T12:26:42Z</time>
      </trkpt>
      <trkpt lat="43.66353" lon="1.87784">
        <ele>242</ele>
        <time>2013-02-21T12:27:02Z</time>
      </trkpt>
      <trkpt lat="43.66342" lon="1.87789">
        <ele>245</ele>
        <time>2013-02-21T12:27:50Z</time>
      </trkpt>
      <trkpt lat="43.66343" lon="1.87789">
        <ele>241</ele>
        <time>2013-02-21T12:28:17Z</time>
      </trkpt>
      <trkpt lat="43.66358" lon="1.87787">
        <ele>240</ele>
        <time>2013-02-21T12:28:21Z</time>
      </trkpt>
      <trkpt lat="43.66367" lon="1.87785">
        <ele>239</ele>
        <time>2013-02-21T12:28:25Z</time>
      </trkpt>
      <trkpt lat="43.66376" lon="1.87785">
        <ele>240</ele>
        <time>2013-02-21T12:28:35Z</time>
      </trkpt>
      <trkpt lat="43.66386" lon="1.87787">
        <ele>240</ele>
        <time>2013-02-21T12:28:42Z</time>
      </trkpt>
      <trkpt lat="43.66399" lon="1.87784">
        <ele>241</ele>
        <time>2013-02-21T12:28:49Z</time>
      </trkpt>
      <trkpt lat="43.66408" lon="1.87784">
        <ele>243</ele>
        <time>2013-02-21T12:28:57Z</time>
      </trkpt>
      <trkpt lat="43.66417" lon="1.87788">
        <ele>244</ele>
        <time>2013-02-21T12:29:04Z</time>
      </trkpt>
      <trkpt lat="43.66426" lon="1.87789">
        <ele>245</ele>
        <time>2013-02-21T12:29:12Z</time>
      </trkpt>
      <trkpt lat="43.66435" lon="1.87793">
        <ele>244</ele>
        <time>2013-02-21T12:29:25Z</time>
      </trkpt>
      <trkpt lat="43.66444" lon="1.87793">
        <ele>244</ele>
        <time>2013-02-21T12:29:34Z</time>
      </trkpt>
      <trkpt lat="43.66454" lon="1.87794">
        <ele>242</ele>
        <time>2013-02-21T12:29:44Z</time>
      </trkpt>
      <trkpt lat="43.66464" lon="1.87796">
        <ele>241</ele>
        <time>2013-02-21T12:29:51Z</time>
      </trkpt>
      <trkpt lat="43.66472" lon="1.878">
        <ele>241</ele>
        <time>2013-02-21T12:30:01Z</time>
      </trkpt>
      <trkpt lat="43.66482" lon="1.87799">
        <ele>243</ele>
        <time>2013-02-21T12:30:11Z</time>
      </trkpt>
      <trkpt lat="43.66491" lon="1.87797">
        <ele>244</ele>
        <time>2013-02-21T12:30:21Z</time>
      </trkpt>
      <trkpt lat="43.665" lon="1.87793">
        <ele>244</ele>
        <time>2013-02-21T12:30:29Z</time>
      </trkpt>
      <trkpt lat="43.66509" lon="1.87787">
        <ele>242</ele>
        <time>2013-02-21T12:30:40Z</time>
      </trkpt>
      <trkpt lat="43.66518" lon="1.87782">
        <ele>242</ele>
        <time>2013-02-21T12:30:47Z</time>
      </trkpt>
      <trkpt lat="43.66528" lon="1.87777">
        <ele>244</ele>
        <time>2013-02-21T12:31:01Z</time>
      </trkpt>
      <trkpt lat="43.66537" lon="1.87766">
        <ele>244</ele>
        <time>2013-02-21T12:31:18Z</time>
      </trkpt>
      <trkpt lat="43.66545" lon="1.8776">
        <ele>243</ele>
        <time>2013-02-21T12:31:25Z</time>
      </trkpt>
      <trkpt lat="43.66552" lon="1.87751">
        <ele>240</ele>
        <time>2013-02-21T12:31:36Z</time>
      </trkpt>
      <trkpt lat="43.6656" lon="1.87745">
        <ele>238</ele>
        <time>2013-02-21T12:31:45Z</time>
      </trkpt>
      <trkpt lat="43.66571" lon="1.87734">
        <ele>236</ele>
        <time>2013-02-21T12:32:02Z</time>
      </trkpt>
      <trkpt lat="43.66579" lon="1.87725">
        <ele>235</ele>
        <time>2013-02-21T12:32:10Z</time>
      </trkpt>
      <trkpt lat="43.66586" lon="1.87714">
        <ele>233</ele>
        <time>2013-02-21T12:32:21Z</time>
      </trkpt>
      <trkpt lat="43.66593" lon="1.87706">
        <ele>233</ele>
        <time>2013-02-21T12:32:28Z</time>
      </trkpt>
      <trkpt lat="43.66602" lon="1.87695">
        <ele>233</ele>
        <time>2013-02-21T12:32:44Z</time>
      </trkpt>
      <trkpt lat="43.6661" lon="1.87688">
        <ele>233</ele>
        <time>2013-02-21T12:32:49Z</time>
      </trkpt>
      <trkpt lat="43.66616" lon="1.87678">
        <ele>233</ele>
        <time>2013-02-21T12:32:57Z</time>
      </trkpt>
      <trkpt lat="43.66623" lon="1.87669">
        <ele>231</ele>
        <time>2013-02-21T12:33:08Z</time>
      </trkpt>
      <trkpt lat="43.66631" lon="1.87659">
        <ele>230</ele>
        <time>2013-02-21T12:33:16Z</time>
      </trkpt>
      <trkpt lat="43.66638" lon="1.87652">
        <ele>230</ele>
        <time>2013-02-21T12:33:23Z</time>
      </trkpt>
      <trkpt lat="43.66645" lon="1.87645">
        <ele>230</ele>
        <time>2013-02-21T12:33:32Z</time>
      </trkpt>
      <trkpt lat="43.66651" lon="1.87635">
        <ele>231</ele>
        <time>2013-02-21T12:33:40Z</time>
      </trkpt>
      <trkpt lat="43.66656" lon="1.8763">
        <ele>230</ele>
        <time>2013-02-21T12:34:02Z</time>
      </trkpt>
      <trkpt lat="43.66664" lon="1.87621">
        <ele>229</ele>
        <time>2013-02-21T12:34:09Z</time>
      </trkpt>
      <trkpt lat="43.66671" lon="1.87615">
        <ele>229</ele>
        <time>2013-02-21T12:34:17Z</time>
      </trkpt>
      <trkpt lat="43.6668" lon="1.87609">
        <ele>228</ele>
        <time>2013-02-21T12:34:26Z</time>
      </trkpt>
      <trkpt lat="43.66688" lon="1.87602">
        <ele>229</ele>
        <time>2013-02-21T12:34:34Z</time>
      </trkpt>
      <trkpt lat="43.66694" lon="1.87591">
        <ele>231</ele>
        <time>2013-02-21T12:34:41Z</time>
      </trkpt>
      <trkpt lat="43.66699" lon="1.87578">
        <ele>233</ele>
        <time>2013-02-21T12:34:50Z</time>
      </trkpt>
      <trkpt lat="43.66706" lon="1.87568">
        <ele>234</ele>
        <time>2013-02-21T12:34:58Z</time>
      </trkpt>
      <trkpt lat="43.66712" lon="1.87558">
        <ele>233</ele>
        <time>2013-02-21T12:35:08Z</time>
      </trkpt>
      <trkpt lat="43.66722" lon="1.87551">
        <ele>234</ele>
        <time>2013-02-21T12:35:19Z</time>
      </trkpt>
      <trkpt lat="43.66731" lon="1.87546">
        <ele>234</ele>
        <time>2013-02-21T12:35:27Z</time>
      </trkpt>
      <trkpt lat="43.66739" lon="1.87541">
        <ele>234</ele>
        <time>2013-02-21T12:35:35Z</time>
      </trkpt>
      <trkpt lat="43.6675" lon="1.87536">
        <ele>236</ele>
        <time>2013-02-21T12:35:47Z</time>
      </trkpt>
      <trkpt lat="43.6676" lon="1.87533">
        <ele>237</ele>
        <time>2013-02-21T12:35:59Z</time>
      </trkpt>
      <trkpt lat="43.6677" lon="1.87527">
        <ele>237</ele>
        <time>2013-02-21T12:36:08Z</time>
      </trkpt>
      <trkpt lat="43.66778" lon="1.87519">
        <ele>236</ele>
        <time>2013-02-21T12:36:17Z</time>
      </trkpt>
      <trkpt lat="43.66785" lon="1.8751">
        <ele>236</ele>
        <time>2013-02-21T12:36:25Z</time>
      </trkpt>
      <trkpt lat="43.66792" lon="1.87497">
        <ele>235</ele>
        <time>2013-02-21T12:36:35Z</time>
      </trkpt>
      <trkpt lat="43.66798" lon="1.87485">
        <ele>233</ele>
        <time>2013-02-21T12:36:44Z</time>
      </trkpt>
      <trkpt lat="43.668" lon="1.87469">
        <ele>232</ele>
        <time>2013-02-21T12:36:56Z</time>
      </trkpt>
      <trkpt lat="43.668" lon="1.87455">
        <ele>232</ele>
        <time>2013-02-21T12:37:03Z</time>
      </trkpt>
      <trkpt lat="43.668" lon="1.87433">
        <ele>233</ele>
        <time>2013-02-21T12:37:23Z</time>
      </trkpt>
      <trkpt lat="43.668" lon="1.87419">
        <ele>233</ele>
        <time>2013-02-21T12:37:32Z</time>
      </trkpt>
      <trkpt lat="43.66798" lon="1.87405">
        <ele>232</ele>
        <time>2013-02-21T12:37:47Z</time>
      </trkpt>
      <trkpt lat="43.66796" lon="1.87392">
        <ele>234</ele>
        <time>2013-02-21T12:37:52Z</time>
      </trkpt>
      <trkpt lat="43.66794" lon="1.87379">
        <ele>234</ele>
        <time>2013-02-21T12:37:59Z</time>
      </trkpt>
      <trkpt lat="43.6679" lon="1.87367">
        <ele>234</ele>
        <time>2013-02-21T12:38:07Z</time>
      </trkpt>
      <trkpt lat="43.66785" lon="1.87354">
        <ele>236</ele>
        <time>2013-02-21T12:38:18Z</time>
      </trkpt>
      <trkpt lat="43.66782" lon="1.8734">
        <ele>239</ele>
        <time>2013-02-21T12:38:26Z</time>
      </trkpt>
      <trkpt lat="43.66791" lon="1.87338">
        <ele>241</ele>
        <time>2013-02-21T12:38:39Z</time>
      </trkpt>
      <trkpt lat="43.668" lon="1.87342">
        <ele>241</ele>
        <time>2013-02-21T12:38:46Z</time>
      </trkpt>
      <trkpt lat="43.66809" lon="1.87346">
        <ele>243</ele>
        <time>2013-02-21T12:38:56Z</time>
      </trkpt>
      <trkpt lat="43.66818" lon="1.87349">
        <ele>243</ele>
        <time>2013-02-21T12:39:06Z</time>
      </trkpt>
      <trkpt lat="43.66826" lon="1.87353">
        <ele>245</ele>
        <time>2013-02-21T12:39:15Z</time>
      </trkpt>
      <trkpt lat="43.66835" lon="1.87358">
        <ele>245</ele>
        <time>2013-02-21T12:39:23Z</time>
      </trkpt>
      <trkpt lat="43.66846" lon="1.87361">
        <ele>244</ele>
        <time>2013-02-21T12:39:31Z</time>
      </trkpt>
      <trkpt lat="43.66855" lon="1.87363">
        <ele>245</ele>
        <time>2013-02-21T12:39:40Z</time>
      </trkpt>
      <trkpt lat="43.66865" lon="1.87365">
        <ele>244</ele>
        <time>2013-02-21T12:39:51Z</time>
      </trkpt>
      <trkpt lat="43.66874" lon="1.87368">
        <ele>243</ele>
        <time>2013-02-21T12:40:00Z</time>
      </trkpt>
      <trkpt lat="43.66883" lon="1.8737">
        <ele>244</ele>
        <time>2013-02-21T12:40:07Z</time>
      </trkpt>
      <trkpt lat="43.66892" lon="1.87373">
        <ele>244</ele>
        <time>2013-02-21T12:40:17Z</time>
      </trkpt>
      <trkpt lat="43.66897" lon="1.87376">
        <ele>244</ele>
        <time>2013-02-21T12:40:22Z</time>
      </trkpt>
      <trkpt lat="43.66901" lon="1.87378">
        <ele>244</ele>
        <time>2013-02-21T12:40:26Z</time>
      </trkpt>
      <trkpt lat="43.66913" lon="1.87383">
        <ele>246</ele>
        <time>2013-02-21T12:40:42Z</time>
      </trkpt>
      <trkpt lat="43.66923" lon="1.87391">
        <ele>249</ele>
        <time>2013-02-21T12:40:53Z</time>
      </trkpt>
      <trkpt lat="43.66931" lon="1.87397">
        <ele>248</ele>
        <time>2013-02-21T12:41:01Z</time>
      </trkpt>
      <trkpt lat="43.66933" lon="1.87411">
        <ele>244</ele>
        <time>2013-02-21T12:41:13Z</time>
      </trkpt>
      <trkpt lat="43.66935" lon="1.87423">
        <ele>243</ele>
        <time>2013-02-21T12:41:24Z</time>
      </trkpt>
      <trkpt lat="43.66935" lon="1.87437">
        <ele>246</ele>
        <time>2013-02-21T12:41:35Z</time>
      </trkpt>
      <trkpt lat="43.66932" lon="1.87444">
        <ele>246</ele>
        <time>2013-02-21T12:41:44Z</time>
      </trkpt>
      <trkpt lat="43.6693" lon="1.8745">
        <ele>245</ele>
        <time>2013-02-21T12:41:48Z</time>
      </trkpt>
      <trkpt lat="43.66926" lon="1.87458">
        <ele>245</ele>
        <time>2013-02-21T12:41:53Z</time>
      </trkpt>
      <trkpt lat="43.66926" lon="1.87465">
        <ele>243</ele>
        <time>2013-02-21T12:41:59Z</time>
      </trkpt>
      <trkpt lat="43.66925" lon="1.87478">
        <ele>244</ele>
        <time>2013-02-21T12:42:11Z</time>
      </trkpt>
      <trkpt lat="43.66922" lon="1.8749">
        <ele>247</ele>
        <time>2013-02-21T12:42:21Z</time>
      </trkpt>
      <trkpt lat="43.66921" lon="1.87503">
        <ele>249</ele>
        <time>2013-02-21T12:42:30Z</time>
      </trkpt>
      <trkpt lat="43.6692" lon="1.87517">
        <ele>251</ele>
        <time>2013-02-21T12:42:37Z</time>
      </trkpt>
      <trkpt lat="43.66921" lon="1.87529">
        <ele>251</ele>
        <time>2013-02-21T12:42:49Z</time>
      </trkpt>
      <trkpt lat="43.66924" lon="1.87543">
        <ele>250</ele>
        <time>2013-02-21T12:43:00Z</time>
      </trkpt>
      <trkpt lat="43.66928" lon="1.87554">
        <ele>248</ele>
        <time>2013-02-21T12:43:08Z</time>
      </trkpt>
      <trkpt lat="43.66933" lon="1.87566">
        <ele>246</ele>
        <time>2013-02-21T12:43:18Z</time>
      </trkpt>
      <trkpt lat="43.66942" lon="1.87569">
        <ele>246</ele>
        <time>2013-02-21T12:43:27Z</time>
      </trkpt>
      <trkpt lat="43.66951" lon="1.87572">
        <ele>246</ele>
        <time>2013-02-21T12:43:36Z</time>
      </trkpt>
      <trkpt lat="43.66961" lon="1.8757">
        <ele>247</ele>
        <time>2013-02-21T12:43:43Z</time>
      </trkpt>
      <trkpt lat="43.66972" lon="1.87568">
        <ele>243</ele>
        <time>2013-02-21T12:43:54Z</time>
      </trkpt>
      <trkpt lat="43.66982" lon="1.87566">
        <ele>241</ele>
        <time>2013-02-21T12:44:06Z</time>
      </trkpt>
      <trkpt lat="43.66991" lon="1.87568">
        <ele>239</ele>
        <time>2013-02-21T12:44:14Z</time>
      </trkpt>
      <trkpt lat="43.67001" lon="1.8757">
        <ele>239</ele>
        <time>2013-02-21T12:44:22Z</time>
      </trkpt>
      <trkpt lat="43.67011" lon="1.8757">
        <ele>239</ele>
        <time>2013-02-21T12:44:30Z</time>
      </trkpt>
      <trkpt lat="43.6702" lon="1.8757">
        <ele>239</ele>
        <time>2013-02-21T12:44:37Z</time>
      </trkpt>
      <trkpt lat="43.6703" lon="1.87571">
        <ele>238</ele>
        <time>2013-02-21T12:44:47Z</time>
      </trkpt>
      <trkpt lat="43.67039" lon="1.8757">
        <ele>238</ele>
        <time>2013-02-21T12:44:57Z</time>
      </trkpt>
      <trkpt lat="43.67049" lon="1.87572">
        <ele>236</ele>
        <time>2013-02-21T12:45:05Z</time>
      </trkpt>
      <trkpt lat="43.67061" lon="1.87573">
        <ele>236</ele>
        <time>2013-02-21T12:45:20Z</time>
      </trkpt>
      <trkpt lat="43.67067" lon="1.87582">
        <ele>234</ele>
        <time>2013-02-21T12:45:32Z</time>
      </trkpt>
      <trkpt lat="43.67069" lon="1.87595">
        <ele>230</ele>
        <time>2013-02-21T12:45:41Z</time>
      </trkpt>
      <trkpt lat="43.67067" lon="1.87603">
        <ele>230</ele>
        <time>2013-02-21T12:45:46Z</time>
      </trkpt>
      <trkpt lat="43.67064" lon="1.87615">
        <ele>229</ele>
        <time>2013-02-21T12:45:54Z</time>
      </trkpt>
      <trkpt lat="43.67061" lon="1.87628">
        <ele>228</ele>
        <time>2013-02-21T12:46:03Z</time>
      </trkpt>
      <trkpt lat="43.67058" lon="1.8764">
        <ele>229</ele>
        <time>2013-02-21T12:46:11Z</time>
      </trkpt>
      <trkpt lat="43.67056" lon="1.87653">
        <ele>228</ele>
        <time>2013-02-21T12:46:20Z</time>
      </trkpt>
      <trkpt lat="43.67053" lon="1.87665">
        <ele>227</ele>
        <time>2013-02-21T12:46:27Z</time>
      </trkpt>
      <trkpt lat="43.67052" lon="1.87677">
        <ele>226</ele>
        <time>2013-02-21T12:46:37Z</time>
      </trkpt>
      <trkpt lat="43.67052" lon="1.87692">
        <ele>226</ele>
        <time>2013-02-21T12:46:48Z</time>
      </trkpt>
      <trkpt lat="43.6705" lon="1.87704">
        <ele>229</ele>
        <time>2013-02-21T12:46:55Z</time>
      </trkpt>
      <trkpt lat="43.67049" lon="1.87717">
        <ele>232</ele>
        <time>2013-02-21T12:47:04Z</time>
      </trkpt>
      <trkpt lat="43.67049" lon="1.87724">
        <ele>231</ele>
        <time>2013-02-21T12:47:09Z</time>
      </trkpt>
      <trkpt lat="43.67048" lon="1.87731">
        <ele>230</ele>
        <time>2013-02-21T12:47:14Z</time>
      </trkpt>
      <trkpt lat="43.67047" lon="1.8774">
        <ele>230</ele>
        <time>2013-02-21T12:47:20Z</time>
      </trkpt>
      <trkpt lat="43.67045" lon="1.87747">
        <ele>229</ele>
        <time>2013-02-21T12:47:24Z</time>
      </trkpt>
      <trkpt lat="43.67044" lon="1.87753">
        <ele>227</ele>
        <time>2013-02-21T12:47:29Z</time>
      </trkpt>
      <trkpt lat="43.67045" lon="1.87767">
        <ele>226</ele>
        <time>2013-02-21T12:47:40Z</time>
      </trkpt>
      <trkpt lat="43.67048" lon="1.87772">
        <ele>226</ele>
        <time>2013-02-21T12:47:44Z</time>
      </trkpt>
      <trkpt lat="43.67053" lon="1.87776">
        <ele>226</ele>
        <time>2013-02-21T12:47:49Z</time>
      </trkpt>
      <trkpt lat="43.67063" lon="1.87781">
        <ele>226</ele>
        <time>2013-02-21T12:47:58Z</time>
      </trkpt>
      <trkpt lat="43.67073" lon="1.87784">
        <ele>226</ele>
        <time>2013-02-21T12:48:10Z</time>
      </trkpt>
      <trkpt lat="43.67082" lon="1.87786">
        <ele>226</ele>
        <time>2013-02-21T12:48:19Z</time>
      </trkpt>
      <trkpt lat="43.67091" lon="1.8779">
        <ele>228</ele>
        <time>2013-02-21T12:48:35Z</time>
      </trkpt>
      <trkpt lat="43.67099" lon="1.87797">
        <ele>228</ele>
        <time>2013-02-21T12:48:48Z</time>
      </trkpt>
      <trkpt lat="43.6711" lon="1.87799">
        <ele>228</ele>
        <time>2013-02-21T12:48:55Z</time>
      </trkpt>
      <trkpt lat="43.6712" lon="1.878">
        <ele>229</ele>
        <time>2013-02-21T12:49:03Z</time>
      </trkpt>
      <trkpt lat="43.67125" lon="1.87801">
        <ele>228</ele>
        <time>2013-02-21T12:49:15Z</time>
      </trkpt>
      <trkpt lat="43.67137" lon="1.87806">
        <ele>229</ele>
        <time>2013-02-21T12:49:49Z</time>
      </trkpt>
      <trkpt lat="43.67147" lon="1.87807">
        <ele>228</ele>
        <time>2013-02-21T12:49:58Z</time>
      </trkpt>
      <trkpt lat="43.67156" lon="1.87809">
        <ele>225</ele>
        <time>2013-02-21T12:50:06Z</time>
      </trkpt>
      <trkpt lat="43.67165" lon="1.8781">
        <ele>226</ele>
        <time>2013-02-21T12:50:14Z</time>
      </trkpt>
      <trkpt lat="43.67175" lon="1.87812">
        <ele>229</ele>
        <time>2013-02-21T12:50:24Z</time>
      </trkpt>
      <trkpt lat="43.67179" lon="1.87812">
        <ele>230</ele>
        <time>2013-02-21T12:50:29Z</time>
      </trkpt>
      <trkpt lat="43.67188" lon="1.87815">
        <ele>230</ele>
        <time>2013-02-21T12:50:38Z</time>
      </trkpt>
      <trkpt lat="43.67198" lon="1.87816">
        <ele>228</ele>
        <time>2013-02-21T12:50:50Z</time>
      </trkpt>
      <trkpt lat="43.67207" lon="1.87817">
        <ele>229</ele>
        <time>2013-02-21T12:51:02Z</time>
      </trkpt>
      <trkpt lat="43.67221" lon="1.87821">
        <ele>231</ele>
        <time>2013-02-21T12:51:30Z</time>
      </trkpt>
      <trkpt lat="43.6723" lon="1.87822">
        <ele>229</ele>
        <time>2013-02-21T12:51:40Z</time>
      </trkpt>
      <trkpt lat="43.6724" lon="1.87822">
        <ele>227</ele>
        <time>2013-02-21T12:51:48Z</time>
      </trkpt>
      <trkpt lat="43.6725" lon="1.87826">
        <ele>224</ele>
        <time>2013-02-21T12:51:59Z</time>
      </trkpt>
      <trkpt lat="43.67259" lon="1.87826">
        <ele>223</ele>
        <time>2013-02-21T12:52:06Z</time>
      </trkpt>
      <trkpt lat="43.67269" lon="1.87826">
        <ele>223</ele>
        <time>2013-02-21T12:52:15Z</time>
      </trkpt>
      <trkpt lat="43.67279" lon="1.87827">
        <ele>224</ele>
        <time>2013-02-21T12:52:22Z</time>
      </trkpt>
      <trkpt lat="43.67289" lon="1.87827">
        <ele>222</ele>
        <time>2013-02-21T12:52:29Z</time>
      </trkpt>
      <trkpt lat="43.67298" lon="1.87826">
        <ele>221</ele>
        <time>2013-02-21T12:52:39Z</time>
      </trkpt>
      <trkpt lat="43.67308" lon="1.87827">
        <ele>220</ele>
        <time>2013-02-21T12:52:48Z</time>
      </trkpt>
      <trkpt lat="43.67317" lon="1.87829">
        <ele>219</ele>
        <time>2013-02-21T12:52:57Z</time>
      </trkpt>
      <trkpt lat="43.67326" lon="1.87829">
        <ele>221</ele>
        <time>2013-02-21T12:53:04Z</time>
      </trkpt>
      <trkpt lat="43.67336" lon="1.8783">
        <ele>220</ele>
        <time>2013-02-21T12:53:10Z</time>
      </trkpt>
      <trkpt lat="43.67345" lon="1.87831">
        <ele>220</ele>
        <time>2013-02-21T12:53:16Z</time>
      </trkpt>
      <trkpt lat="43.6735" lon="1.87831">
        <ele>220</ele>
        <time>2013-02-21T12:53:20Z</time>
      </trkpt>
      <trkpt lat="43.67355" lon="1.87831">
        <ele>221</ele>
        <time>2013-02-21T12:53:23Z</time>
      </trkpt>
      <trkpt lat="43.6736" lon="1.87831">
        <ele>221</ele>
        <time>2013-02-21T12:53:27Z</time>
      </trkpt>
      <trkpt lat="43.67365" lon="1.8783">
        <ele>220</ele>
        <time>2013-02-21T12:53:31Z</time>
      </trkpt>
      <trkpt lat="43.67375" lon="1.8783">
        <ele>220</ele>
        <time>2013-02-21T12:53:39Z</time>
      </trkpt>
      <trkpt lat="43.67384" lon="1.87832">
        <ele>222</ele>
        <time>2013-02-21T12:53:46Z</time>
      </trkpt>
      <trkpt lat="43.67395" lon="1.87835">
        <ele>224</ele>
        <time>2013-02-21T12:53:55Z</time>
      </trkpt>
      <trkpt lat="43.67405" lon="1.87833">
        <ele>222</ele>
        <time>2013-02-21T12:54:02Z</time>
      </trkpt>
      <trkpt lat="43.67415" lon="1.87832">
        <ele>222</ele>
        <time>2013-02-21T12:54:09Z</time>
      </trkpt>
      <trkpt lat="43.67424" lon="1.87833">
        <ele>223</ele>
        <time>2013-02-21T12:54:17Z</time>
      </trkpt>
      <trkpt lat="43.67434" lon="1.87834">
        <ele>223</ele>
        <time>2013-02-21T12:54:26Z</time>
      </trkpt>
      <trkpt lat="43.67442" lon="1.87829">
        <ele>223</ele>
        <time>2013-02-21T12:54:34Z</time>
      </trkpt>
      <trkpt lat="43.67446" lon="1.87825">
        <ele>223</ele>
        <time>2013-02-21T12:54:37Z</time>
      </trkpt>
      <trkpt lat="43.67451" lon="1.8782">
        <ele>224</ele>
        <time>2013-02-21T12:54:43Z</time>
      </trkpt>
      <trkpt lat="43.67453" lon="1.87814">
        <ele>224</ele>
        <time>2013-02-21T12:54:48Z</time>
      </trkpt>
      <trkpt lat="43.67455" lon="1.87806">
        <ele>225</ele>
        <time>2013-02-21T12:55:02Z</time>
      </trkpt>
      <trkpt lat="43.67462" lon="1.87793">
        <ele>224</ele>
        <time>2013-02-21T12:55:20Z</time>
      </trkpt>
      <trkpt lat="43.67466" lon="1.87781">
        <ele>223</ele>
        <time>2013-02-21T12:55:30Z</time>
      </trkpt>
      <trkpt lat="43.67472" lon="1.87771">
        <ele>221</ele>
        <time>2013-02-21T12:55:39Z</time>
      </trkpt>
      <trkpt lat="43.67476" lon="1.87766">
        <ele>221</ele>
        <time>2013-02-21T12:55:44Z</time>
      </trkpt>
      <trkpt lat="43.67478" lon="1.8776">
        <ele>221</ele>
        <time>2013-02-21T12:55:48Z</time>
      </trkpt>
      <trkpt lat="43.6748" lon="1.87747">
        <ele>220</ele>
        <time>2013-02-21T12:55:54Z</time>
      </trkpt>
      <trkpt lat="43.67488" lon="1.87741">
        <ele>221</ele>
        <time>2013-02-21T12:56:06Z</time>
      </trkpt>
      <trkpt lat="43.67496" lon="1.87731">
        <ele>222</ele>
        <time>2013-02-21T12:56:17Z</time>
      </trkpt>
      <trkpt lat="43.67502" lon="1.8772">
        <ele>222</ele>
        <time>2013-02-21T12:56:24Z</time>
      </trkpt>
      <trkpt lat="43.6751" lon="1.87711">
        <ele>222</ele>
        <time>2013-02-21T12:56:34Z</time>
      </trkpt>
      <trkpt lat="43.67514" lon="1.87708">
        <ele>222</ele>
        <time>2013-02-21T12:56:38Z</time>
      </trkpt>
      <trkpt lat="43.67519" lon="1.87704">
        <ele>221</ele>
        <time>2013-02-21T12:56:43Z</time>
      </trkpt>
      <trkpt lat="43.67527" lon="1.87697">
        <ele>220</ele>
        <time>2013-02-21T12:56:52Z</time>
      </trkpt>
      <trkpt lat="43.67536" lon="1.8769">
        <ele>218</ele>
        <time>2013-02-21T12:57:00Z</time>
      </trkpt>
      <trkpt lat="43.67539" lon="1.87687">
        <ele>213</ele>
        <time>2013-02-21T12:57:39Z</time>
      </trkpt>
      <trkpt lat="43.67545" lon="1.87686">
        <ele>215</ele>
        <time>2013-02-21T12:58:07Z</time>
      </trkpt>
      <trkpt lat="43.67548" lon="1.8768">
        <ele>217</ele>
        <time>2013-02-21T12:58:34Z</time>
      </trkpt>
      <trkpt lat="43.67554" lon="1.87679">
        <ele>217</ele>
        <time>2013-02-21T12:58:44Z</time>
      </trkpt>
      <trkpt lat="43.67566" lon="1.87673">
        <ele>218</ele>
        <time>2013-02-21T12:58:58Z</time>
      </trkpt>
      <trkpt lat="43.6757" lon="1.87668">
        <ele>219</ele>
        <time>2013-02-21T12:59:02Z</time>
      </trkpt>
      <trkpt lat="43.67575" lon="1.87664">
        <ele>219</ele>
        <time>2013-02-21T12:59:08Z</time>
      </trkpt>
      <trkpt lat="43.6758" lon="1.8766">
        <ele>218</ele>
        <time>2013-02-21T12:59:12Z</time>
      </trkpt>
      <trkpt lat="43.67587" lon="1.87654">
        <ele>217</ele>
        <time>2013-02-21T12:59:18Z</time>
      </trkpt>
      <trkpt lat="43.67592" lon="1.8765">
        <ele>217</ele>
        <time>2013-02-21T12:59:22Z</time>
      </trkpt>
      <trkpt lat="43.67596" lon="1.87647">
        <ele>216</ele>
        <time>2013-02-21T12:59:27Z</time>
      </trkpt>
      <trkpt lat="43.676" lon="1.87643">
        <ele>214</ele>
        <time>2013-02-21T12:59:32Z</time>
      </trkpt>
      <trkpt lat="43.67605" lon="1.8764">
        <ele>214</ele>
        <time>2013-02-21T12:59:37Z</time>
      </trkpt>
      <trkpt lat="43.6761" lon="1.87639">
        <ele>215</ele>
        <time>2013-02-21T12:59:42Z</time>
      </trkpt>
      <trkpt lat="43.67615" lon="1.87636">
        <ele>214</ele>
        <time>2013-02-21T12:59:47Z</time>
      </trkpt>
      <trkpt lat="43.67619" lon="1.87632">
        <ele>215</ele>
        <time>2013-02-21T12:59:52Z</time>
      </trkpt>
      <trkpt lat="43.67627" lon="1.87626">
        <ele>218</ele>
        <time>2013-02-21T13:00:03Z</time>
      </trkpt>
      <trkpt lat="43.67635" lon="1.87619">
        <ele>216</ele>
        <time>2013-02-21T13:00:15Z</time>
      </trkpt>
      <trkpt lat="43.67641" lon="1.87616">
        <ele>215</ele>
        <time>2013-02-21T13:00:24Z</time>
      </trkpt>
      <trkpt lat="43.6765" lon="1.8761">
        <ele>215</ele>
        <time>2013-02-21T13:00:34Z</time>
      </trkpt>
      <trkpt lat="43.67657" lon="1.87604">
        <ele>213</ele>
        <time>2013-02-21T13:00:42Z</time>
      </trkpt>
      <trkpt lat="43.67663" lon="1.876">
        <ele>214</ele>
        <time>2013-02-21T13:00:51Z</time>
      </trkpt>
      <trkpt lat="43.67673" lon="1.87588">
        <ele>214</ele>
        <time>2013-02-21T13:01:09Z</time>
      </trkpt>
      <trkpt lat="43.67681" lon="1.87582">
        <ele>214</ele>
        <time>2013-02-21T13:01:17Z</time>
      </trkpt>
      <trkpt lat="43.67686" lon="1.8758">
        <ele>213</ele>
        <time>2013-02-21T13:01:21Z</time>
      </trkpt>
      <trkpt lat="43.67691" lon="1.87574">
        <ele>211</ele>
        <time>2013-02-21T13:01:28Z</time>
      </trkpt>
      <trkpt lat="43.67696" lon="1.87572">
        <ele>210</ele>
        <time>2013-02-21T13:01:33Z</time>
      </trkpt>
      <trkpt lat="43.67704" lon="1.87564">
        <ele>212</ele>
        <time>2013-02-21T13:01:49Z</time>
      </trkpt>
      <trkpt lat="43.67707" lon="1.8756">
        <ele>212</ele>
        <time>2013-02-21T13:01:54Z</time>
      </trkpt>
      <trkpt lat="43.67714" lon="1.8755">
        <ele>214</ele>
        <time>2013-02-21T13:02:06Z</time>
      </trkpt>
      <trkpt lat="43.67718" lon="1.87544">
        <ele>215</ele>
        <time>2013-02-21T13:02:10Z</time>
      </trkpt>
      <trkpt lat="43.67721" lon="1.87539">
        <ele>214</ele>
        <time>2013-02-21T13:02:15Z</time>
      </trkpt>
      <trkpt lat="43.67727" lon="1.87531">
        <ele>210</ele>
        <time>2013-02-21T13:02:23Z</time>
      </trkpt>
      <trkpt lat="43.67729" lon="1.87525">
        <ele>208</ele>
        <time>2013-02-21T13:02:27Z</time>
      </trkpt>
      <trkpt lat="43.67732" lon="1.87519">
        <ele>207</ele>
        <time>2013-02-21T13:02:31Z</time>
      </trkpt>
      <trkpt lat="43.67734" lon="1.87513">
        <ele>206</ele>
        <time>2013-02-21T13:02:35Z</time>
      </trkpt>
      <trkpt lat="43.67737" lon="1.87506">
        <ele>206</ele>
        <time>2013-02-21T13:02:39Z</time>
      </trkpt>
      <trkpt lat="43.67739" lon="1.87498">
        <ele>205</ele>
        <time>2013-02-21T13:02:45Z</time>
      </trkpt>
      <trkpt lat="43.67748" lon="1.87491">
        <ele>206</ele>
        <time>2013-02-21T13:02:54Z</time>
      </trkpt>
      <trkpt lat="43.67752" lon="1.87479">
        <ele>204</ele>
        <time>2013-02-21T13:03:00Z</time>
      </trkpt>
      <trkpt lat="43.67758" lon="1.8747">
        <ele>202</ele>
        <time>2013-02-21T13:03:08Z</time>
      </trkpt>
      <trkpt lat="43.67764" lon="1.8746">
        <ele>200</ele>
        <time>2013-02-21T13:03:17Z</time>
      </trkpt>
      <trkpt lat="43.6777" lon="1.87449">
        <ele>198</ele>
        <time>2013-02-21T13:03:26Z</time>
      </trkpt>
      <trkpt lat="43.67775" lon="1.87437">
        <ele>199</ele>
        <time>2013-02-21T13:03:34Z</time>
      </trkpt>
      <trkpt lat="43.6778" lon="1.87425">
        <ele>198</ele>
        <time>2013-02-21T13:03:42Z</time>
      </trkpt>
      <trkpt lat="43.67785" lon="1.87413">
        <ele>199</ele>
        <time>2013-02-21T13:03:51Z</time>
      </trkpt>
      <trkpt lat="43.67787" lon="1.87407">
        <ele>201</ele>
        <time>2013-02-21T13:03:55Z</time>
      </trkpt>
      <trkpt lat="43.67792" lon="1.87397">
        <ele>202</ele>
        <time>2013-02-21T13:04:06Z</time>
      </trkpt>
      <trkpt lat="43.678" lon="1.87388">
        <ele>201</ele>
        <time>2013-02-21T13:04:15Z</time>
      </trkpt>
      <trkpt lat="43.67804" lon="1.87374">
        <ele>199</ele>
        <time>2013-02-21T13:04:25Z</time>
      </trkpt>
      <trkpt lat="43.67807" lon="1.87361">
        <ele>199</ele>
        <time>2013-02-21T13:04:32Z</time>
      </trkpt>
      <trkpt lat="43.6781" lon="1.87352">
        <ele>198</ele>
        <time>2013-02-21T13:04:37Z</time>
      </trkpt>
      <trkpt lat="43.67812" lon="1.87346">
        <ele>198</ele>
        <time>2013-02-21T13:04:40Z</time>
      </trkpt>
      <trkpt lat="43.67815" lon="1.87341">
        <ele>198</ele>
        <time>2013-02-21T13:04:47Z</time>
      </trkpt>
      <trkpt lat="43.67818" lon="1.87335">
        <ele>198</ele>
        <time>2013-02-21T13:04:51Z</time>
      </trkpt>
      <trkpt lat="43.67821" lon="1.8733">
        <ele>199</ele>
        <time>2013-02-21T13:04:55Z</time>
      </trkpt>
      <trkpt lat="43.67824" lon="1.87324">
        <ele>199</ele>
        <time>2013-02-21T13:05:01Z</time>
      </trkpt>
      <trkpt lat="43.67832" lon="1.87315">
        <ele>199</ele>
        <time>2013-02-21T13:05:11Z</time>
      </trkpt>
      <trkpt lat="43.67835" lon="1.8731">
        <ele>199</ele>
        <time>2013-02-21T13:05:15Z</time>
      </trkpt>
      <trkpt lat="43.67838" lon="1.87304">
        <ele>200</ele>
        <time>2013-02-21T13:05:19Z</time>
      </trkpt>
      <trkpt lat="43.6784" lon="1.87297">
        <ele>200</ele>
        <time>2013-02-21T13:05:24Z</time>
      </trkpt>
      <trkpt lat="43.67843" lon="1.8729">
        <ele>198</ele>
        <time>2013-02-21T13:05:31Z</time>
      </trkpt>
      <trkpt lat="43.67846" lon="1.87284">
        <ele>197</ele>
        <time>2013-02-21T13:05:35Z</time>
      </trkpt>
      <trkpt lat="43.67851" lon="1.87273">
        <ele>197</ele>
        <time>2013-02-21T13:05:47Z</time>
      </trkpt>
      <trkpt lat="43.67853" lon="1.87266">
        <ele>198</ele>
        <time>2013-02-21T13:05:52Z</time>
      </trkpt>
      <trkpt lat="43.67855" lon="1.87259">
        <ele>198</ele>
        <time>2013-02-21T13:05:57Z</time>
      </trkpt>
      <trkpt lat="43.67857" lon="1.87253">
        <ele>199</ele>
        <time>2013-02-21T13:06:00Z</time>
      </trkpt>
      <trkpt lat="43.67859" lon="1.87246">
        <ele>197</ele>
        <time>2013-02-21T13:06:05Z</time>
      </trkpt>
      <trkpt lat="43.67863" lon="1.87234">
        <ele>196</ele>
        <time>2013-02-21T13:06:14Z</time>
      </trkpt>
      <trkpt lat="43.67868" lon="1.87222">
        <ele>194</ele>
        <time>2013-02-21T13:06:24Z</time>
      </trkpt>
      <trkpt lat="43.67871" lon="1.87216">
        <ele>195</ele>
        <time>2013-02-21T13:06:29Z</time>
      </trkpt>
      <trkpt lat="43.67876" lon="1.87205">
        <ele>195</ele>
        <time>2013-02-21T13:06:39Z</time>
      </trkpt>
      <trkpt lat="43.67881" lon="1.87193">
        <ele>195</ele>
        <time>2013-02-21T13:06:48Z</time>
      </trkpt>
      <trkpt lat="43.67884" lon="1.87181">
        <ele>196</ele>
        <time>2013-02-21T13:06:57Z</time>
      </trkpt>
      <trkpt lat="43.67887" lon="1.87174">
        <ele>195</ele>
        <time>2013-02-21T13:07:02Z</time>
      </trkpt>
      <trkpt lat="43.67889" lon="1.87169">
        <ele>196</ele>
        <time>2013-02-21T13:07:07Z</time>
      </trkpt>
      <trkpt lat="43.67893" lon="1.87158">
        <ele>196</ele>
        <time>2013-02-21T13:07:15Z</time>
      </trkpt>
      <trkpt lat="43.67896" lon="1.87152">
        <ele>195</ele>
        <time>2013-02-21T13:07:22Z</time>
      </trkpt>
      <trkpt lat="43.67897" lon="1.87146">
        <ele>194</ele>
        <time>2013-02-21T13:07:26Z</time>
      </trkpt>
      <trkpt lat="43.67901" lon="1.87136">
        <ele>192</ele>
        <time>2013-02-21T13:07:32Z</time>
      </trkpt>
      <trkpt lat="43.67904" lon="1.87125">
        <ele>192</ele>
        <time>2013-02-21T13:07:40Z</time>
      </trkpt>
      <trkpt lat="43.67907" lon="1.87119">
        <ele>190</ele>
        <time>2013-02-21T13:07:47Z</time>
      </trkpt>
      <trkpt lat="43.67911" lon="1.87114">
        <ele>189</ele>
        <time>2013-02-21T13:07:54Z</time>
      </trkpt>
      <trkpt lat="43.67914" lon="1.87109">
        <ele>188</ele>
        <time>2013-02-21T13:07:59Z</time>
      </trkpt>
      <trkpt lat="43.67918" lon="1.87104">
        <ele>187</ele>
        <time>2013-02-21T13:08:04Z</time>
      </trkpt>
      <trkpt lat="43.67922" lon="1.87099">
        <ele>187</ele>
        <time>2013-02-21T13:08:09Z</time>
      </trkpt>
      <trkpt lat="43.67926" lon="1.87096">
        <ele>188</ele>
        <time>2013-02-21T13:08:16Z</time>
      </trkpt>
      <trkpt lat="43.6793" lon="1.87093">
        <ele>188</ele>
        <time>2013-02-21T13:08:21Z</time>
      </trkpt>
      <trkpt lat="43.67936" lon="1.8709">
        <ele>188</ele>
        <time>2013-02-21T13:08:28Z</time>
      </trkpt>
      <trkpt lat="43.67943" lon="1.8709">
        <ele>188</ele>
        <time>2013-02-21T13:08:36Z</time>
      </trkpt>
      <trkpt lat="43.67948" lon="1.87089">
        <ele>189</ele>
        <time>2013-02-21T13:08:41Z</time>
      </trkpt>
      <trkpt lat="43.67952" lon="1.87088">
        <ele>188</ele>
        <time>2013-02-21T13:08:46Z</time>
      </trkpt>
      <trkpt lat="43.67958" lon="1.87087">
        <ele>187</ele>
        <time>2013-02-21T13:08:51Z</time>
      </trkpt>
      <trkpt lat="43.67962" lon="1.87088">
        <ele>188</ele>
        <time>2013-02-21T13:08:55Z</time>
      </trkpt>
      <trkpt lat="43.67968" lon="1.87087">
        <ele>188</ele>
        <time>2013-02-21T13:09:00Z</time>
      </trkpt>
      <trkpt lat="43.67975" lon="1.87088">
        <ele>188</ele>
        <time>2013-02-21T13:09:06Z</time>
      </trkpt>
      <trkpt lat="43.6798" lon="1.87089">
        <ele>186</ele>
        <time>2013-02-21T13:09:14Z</time>
      </trkpt>
      <trkpt lat="43.67985" lon="1.8709">
        <ele>186</ele>
        <time>2013-02-21T13:09:18Z</time>
      </trkpt>
      <trkpt lat="43.67995" lon="1.87092">
        <ele>184</ele>
        <time>2013-02-21T13:09:28Z</time>
      </trkpt>
      <trkpt lat="43.67999" lon="1.87092">
        <ele>185</ele>
        <time>2013-02-21T13:09:33Z</time>
      </trkpt>
      <trkpt lat="43.68004" lon="1.87092">
        <ele>184</ele>
        <time>2013-02-21T13:09:37Z</time>
      </trkpt>
      <trkpt lat="43.68009" lon="1.87091">
        <ele>182</ele>
        <time>2013-02-21T13:09:43Z</time>
      </trkpt>
      <trkpt lat="43.68015" lon="1.87093">
        <ele>183</ele>
        <time>2013-02-21T13:09:49Z</time>
      </trkpt>
      <trkpt lat="43.68019" lon="1.87094">
        <ele>183</ele>
        <time>2013-02-21T13:09:53Z</time>
      </trkpt>
      <trkpt lat="43.68024" lon="1.87096">
        <ele>183</ele>
        <time>2013-02-21T13:09:57Z</time>
      </trkpt>
      <trkpt lat="43.68029" lon="1.87097">
        <ele>183</ele>
        <time>2013-02-21T13:10:01Z</time>
      </trkpt>
      <trkpt lat="43.68034" lon="1.87097">
        <ele>183</ele>
        <time>2013-02-21T13:10:05Z</time>
      </trkpt>
      <trkpt lat="43.68042" lon="1.87098">
        <ele>181</ele>
        <time>2013-02-21T13:10:11Z</time>
      </trkpt>
      <trkpt lat="43.68051" lon="1.87101">
        <ele>181</ele>
        <time>2013-02-21T13:10:20Z</time>
      </trkpt>
      <trkpt lat="43.68057" lon="1.87101">
        <ele>180</ele>
        <time>2013-02-21T13:10:25Z</time>
      </trkpt>
      <trkpt lat="43.68063" lon="1.87101">
        <ele>180</ele>
        <time>2013-02-21T13:10:29Z</time>
      </trkpt>
      <trkpt lat="43.68072" lon="1.87104">
        <ele>179</ele>
        <time>2013-02-21T13:10:38Z</time>
      </trkpt>
      <trkpt lat="43.68082" lon="1.87107">
        <ele>178</ele>
        <time>2013-02-21T13:10:48Z</time>
      </trkpt>
      <trkpt lat="43.68092" lon="1.87107">
        <ele>177</ele>
        <time>2013-02-21T13:10:58Z</time>
      </trkpt>
      <trkpt lat="43.68102" lon="1.87105">
        <ele>178</ele>
        <time>2013-02-21T13:11:06Z</time>
      </trkpt>
      <trkpt lat="43.68112" lon="1.87103">
        <ele>178</ele>
        <time>2013-02-21T13:11:12Z</time>
      </trkpt>
      <trkpt lat="43.68121" lon="1.87107">
        <ele>178</ele>
        <time>2013-02-21T13:11:23Z</time>
      </trkpt>
      <trkpt lat="43.6813" lon="1.87109">
        <ele>179</ele>
        <time>2013-02-21T13:11:43Z</time>
      </trkpt>
      <trkpt lat="43.68132" lon="1.87123">
        <ele>182</ele>
        <time>2013-02-21T13:11:53Z</time>
      </trkpt>
      <trkpt lat="43.68131" lon="1.87139">
        <ele>183</ele>
        <time>2013-02-21T13:12:02Z</time>
      </trkpt>
      <trkpt lat="43.68132" lon="1.87154">
        <ele>183</ele>
        <time>2013-02-21T13:12:16Z</time>
      </trkpt>
      <trkpt lat="43.68141" lon="1.87154">
        <ele>183</ele>
        <time>2013-02-21T13:12:25Z</time>
      </trkpt>
      <trkpt lat="43.68147" lon="1.87145">
        <ele>181</ele>
        <time>2013-02-21T13:12:33Z</time>
      </trkpt>
      <trkpt lat="43.68151" lon="1.87133">
        <ele>181</ele>
        <time>2013-02-21T13:12:45Z</time>
      </trkpt>
      <trkpt lat="43.68156" lon="1.87122">
        <ele>181</ele>
        <time>2013-02-21T13:12:54Z</time>
      </trkpt>
      <trkpt lat="43.6816" lon="1.87108">
        <ele>177</ele>
        <time>2013-02-21T13:13:06Z</time>
      </trkpt>
      <trkpt lat="43.68166" lon="1.87097">
        <ele>174</ele>
        <time>2013-02-21T13:13:15Z</time>
      </trkpt>
      <trkpt lat="43.68166" lon="1.87083">
        <ele>170</ele>
        <time>2013-02-21T13:13:22Z</time>
      </trkpt>
      <trkpt lat="43.68169" lon="1.8707">
        <ele>169</ele>
        <time>2013-02-21T13:13:31Z</time>
      </trkpt>
      <trkpt lat="43.68172" lon="1.87058">
        <ele>168</ele>
        <time>2013-02-21T13:13:38Z</time>
      </trkpt>
      <trkpt lat="43.68176" lon="1.87046">
        <ele>168</ele>
        <time>2013-02-21T13:13:46Z</time>
      </trkpt>
      <trkpt lat="43.68177" lon="1.87039">
        <ele>170</ele>
        <time>2013-02-21T13:13:51Z</time>
      </trkpt>
      <trkpt lat="43.68178" lon="1.87033">
        <ele>171</ele>
        <time>2013-02-21T13:13:55Z</time>
      </trkpt>
      <trkpt lat="43.68181" lon="1.87022">
        <ele>171</ele>
        <time>2013-02-21T13:14:02Z</time>
      </trkpt>
      <trkpt lat="43.68183" lon="1.87016">
        <ele>171</ele>
        <time>2013-02-21T13:14:06Z</time>
      </trkpt>
      <trkpt lat="43.68188" lon="1.87004">
        <ele>171</ele>
        <time>2013-02-21T13:14:16Z</time>
      </trkpt>
      <trkpt lat="43.68191" lon="1.86998">
        <ele>171</ele>
        <time>2013-02-21T13:14:21Z</time>
      </trkpt>
      <trkpt lat="43.68194" lon="1.86993">
        <ele>171</ele>
        <time>2013-02-21T13:14:25Z</time>
      </trkpt>
      <trkpt lat="43.68196" lon="1.86984">
        <ele>172</ele>
        <time>2013-02-21T13:14:32Z</time>
      </trkpt>
      <trkpt lat="43.68199" lon="1.86978">
        <ele>171</ele>
        <time>2013-02-21T13:14:37Z</time>
      </trkpt>
      <trkpt lat="43.68208" lon="1.86962">
        <ele>171</ele>
        <time>2013-02-21T13:14:54Z</time>
      </trkpt>
      <trkpt lat="43.68211" lon="1.86951">
        <ele>170</ele>
        <time>2013-02-21T13:15:01Z</time>
      </trkpt>
      <trkpt lat="43.68213" lon="1.86938">
        <ele>166</ele>
        <time>2013-02-21T13:15:10Z</time>
      </trkpt>
      <trkpt lat="43.68216" lon="1.86925">
        <ele>168</ele>
        <time>2013-02-21T13:15:19Z</time>
      </trkpt>
      <trkpt lat="43.68221" lon="1.86913">
        <ele>168</ele>
        <time>2013-02-21T13:15:29Z</time>
      </trkpt>
      <trkpt lat="43.68225" lon="1.86901">
        <ele>167</ele>
        <time>2013-02-21T13:15:38Z</time>
      </trkpt>
      <trkpt lat="43.68232" lon="1.8689">
        <ele>167</ele>
        <time>2013-02-21T13:15:51Z</time>
      </trkpt>
      <trkpt lat="43.68239" lon="1.8688">
        <ele>165</ele>
        <time>2013-02-21T13:15:59Z</time>
      </trkpt>
      <trkpt lat="43.68245" lon="1.86871">
        <ele>165</ele>
        <time>2013-02-21T13:16:07Z</time>
      </trkpt>
      <trkpt lat="43.68246" lon="1.86856">
        <ele>166</ele>
        <time>2013-02-21T13:16:16Z</time>
      </trkpt>
      <trkpt lat="43.68248" lon="1.86843">
        <ele>166</ele>
        <time>2013-02-21T13:16:24Z</time>
      </trkpt>
      <trkpt lat="43.68252" lon="1.86831">
        <ele>164</ele>
        <time>2013-02-21T13:16:32Z</time>
      </trkpt>
      <trkpt lat="43.68253" lon="1.86818">
        <ele>162</ele>
        <time>2013-02-21T13:16:40Z</time>
      </trkpt>
      <trkpt lat="43.68255" lon="1.86805">
        <ele>161</ele>
        <time>2013-02-21T13:16:47Z</time>
      </trkpt>
      <trkpt lat="43.68257" lon="1.86792">
        <ele>161</ele>
        <time>2013-02-21T13:16:55Z</time>
      </trkpt>
      <trkpt lat="43.68264" lon="1.86782">
        <ele>159</ele>
        <time>2013-02-21T13:17:06Z</time>
      </trkpt>
      <trkpt lat="43.68272" lon="1.86771">
        <ele>161</ele>
        <time>2013-02-21T13:17:14Z</time>
      </trkpt>
      <trkpt lat="43.68277" lon="1.86759">
        <ele>167</ele>
        <time>2013-02-21T13:17:23Z</time>
      </trkpt>
      <trkpt lat="43.68277" lon="1.86747">
        <ele>170</ele>
        <time>2013-02-21T13:17:31Z</time>
      </trkpt>
      <trkpt lat="43.68278" lon="1.86734">
        <ele>173</ele>
        <time>2013-02-21T13:17:41Z</time>
      </trkpt>
      <trkpt lat="43.6828" lon="1.8673">
        <ele>178</ele>
        <time>2013-02-21T13:17:59Z</time>
      </trkpt>
      <trkpt lat="43.68279" lon="1.86724">
        <ele>176</ele>
        <time>2013-02-21T13:18:12Z</time>
      </trkpt>
      <trkpt lat="43.68281" lon="1.86722">
        <ele>176</ele>
        <time>2013-02-21T13:18:18Z</time>
      </trkpt>
      <trkpt lat="43.68278" lon="1.86717">
        <ele>174</ele>
        <time>2013-02-21T13:18:44Z</time>
      </trkpt>
      <trkpt lat="43.68279" lon="1.86706">
        <ele>168</ele>
        <time>2013-02-21T13:19:03Z</time>
      </trkpt>
      <trkpt lat="43.6828" lon="1.86699">
        <ele>167</ele>
        <time>2013-02-21T13:19:08Z</time>
      </trkpt>
      <trkpt lat="43.68284" lon="1.86687">
        <ele>178</ele>
        <time>2013-02-21T13:19:33Z</time>
      </trkpt>
      <trkpt lat="43.68289" lon="1.86675">
        <ele>178</ele>
        <time>2013-02-21T13:19:44Z</time>
      </trkpt>
      <trkpt lat="43.68291" lon="1.8666">
        <ele>175</ele>
        <time>2013-02-21T13:19:55Z</time>
      </trkpt>
      <trkpt lat="43.68294" lon="1.86648">
        <ele>173</ele>
        <time>2013-02-21T13:20:02Z</time>
      </trkpt>
      <trkpt lat="43.68295" lon="1.86635">
        <ele>171</ele>
        <time>2013-02-21T13:20:13Z</time>
      </trkpt>
      <trkpt lat="43.68294" lon="1.86622">
        <ele>171</ele>
        <time>2013-02-21T13:20:22Z</time>
      </trkpt>
      <trkpt lat="43.68294" lon="1.86607">
        <ele>170</ele>
        <time>2013-02-21T13:20:32Z</time>
      </trkpt>
      <trkpt lat="43.68296" lon="1.86593">
        <ele>168</ele>
        <time>2013-02-21T13:20:40Z</time>
      </trkpt>
      <trkpt lat="43.68299" lon="1.8658">
        <ele>165</ele>
        <time>2013-02-21T13:20:53Z</time>
      </trkpt>
      <trkpt lat="43.68302" lon="1.86569">
        <ele>167</ele>
        <time>2013-02-21T13:21:00Z</time>
      </trkpt>
      <trkpt lat="43.68307" lon="1.86556">
        <ele>171</ele>
        <time>2013-02-21T13:21:10Z</time>
      </trkpt>
      <trkpt lat="43.68308" lon="1.86542">
        <ele>171</ele>
        <time>2013-02-21T13:21:18Z</time>
      </trkpt>
      <trkpt lat="43.68309" lon="1.86526">
        <ele>169</ele>
        <time>2013-02-21T13:21:29Z</time>
      </trkpt>
      <trkpt lat="43.68314" lon="1.86513">
        <ele>167</ele>
        <time>2013-02-21T13:21:37Z</time>
      </trkpt>
      <trkpt lat="43.68318" lon="1.8649">
        <ele>165</ele>
        <time>2013-02-21T13:22:01Z</time>
      </trkpt>
      <trkpt lat="43.68326" lon="1.86475">
        <ele>165</ele>
        <time>2013-02-21T13:22:15Z</time>
      </trkpt>
      <trkpt lat="43.68327" lon="1.86458">
        <ele>165</ele>
        <time>2013-02-21T13:22:26Z</time>
      </trkpt>
      <trkpt lat="43.68329" lon="1.86445">
        <ele>164</ele>
        <time>2013-02-21T13:22:35Z</time>
      </trkpt>
      <trkpt lat="43.68331" lon="1.86427">
        <ele>162</ele>
        <time>2013-02-21T13:22:47Z</time>
      </trkpt>
      <trkpt lat="43.68335" lon="1.86414">
        <ele>160</ele>
        <time>2013-02-21T13:22:53Z</time>
      </trkpt>
      <trkpt lat="43.68338" lon="1.86402">
        <ele>158</ele>
        <time>2013-02-21T13:23:02Z</time>
      </trkpt>
      <trkpt lat="43.68342" lon="1.86389">
        <ele>159</ele>
        <time>2013-02-21T13:23:13Z</time>
      </trkpt>
      <trkpt lat="43.68346" lon="1.86376">
        <ele>159</ele>
        <time>2013-02-21T13:23:20Z</time>
      </trkpt>
      <trkpt lat="43.68347" lon="1.86359">
        <ele>162</ele>
        <time>2013-02-21T13:23:29Z</time>
      </trkpt>
      <trkpt lat="43.68349" lon="1.86343">
        <ele>165</ele>
        <time>2013-02-21T13:23:36Z</time>
      </trkpt>
      <trkpt lat="43.68354" lon="1.86331">
        <ele>167</ele>
        <time>2013-02-21T13:23:45Z</time>
      </trkpt>
      <trkpt lat="43.6836" lon="1.86321">
        <ele>165</ele>
        <time>2013-02-21T13:23:57Z</time>
      </trkpt>
      <trkpt lat="43.68359" lon="1.86308">
        <ele>164</ele>
        <time>2013-02-21T13:24:04Z</time>
      </trkpt>
      <trkpt lat="43.68362" lon="1.86295">
        <ele>161</ele>
        <time>2013-02-21T13:24:12Z</time>
      </trkpt>
      <trkpt lat="43.68363" lon="1.86283">
        <ele>159</ele>
        <time>2013-02-21T13:24:22Z</time>
      </trkpt>
      <trkpt lat="43.68367" lon="1.86271">
        <ele>157</ele>
        <time>2013-02-21T13:24:32Z</time>
      </trkpt>
      <trkpt lat="43.68368" lon="1.86257">
        <ele>153</ele>
        <time>2013-02-21T13:24:40Z</time>
      </trkpt>
      <trkpt lat="43.6837" lon="1.86244">
        <ele>150</ele>
        <time>2013-02-21T13:24:47Z</time>
      </trkpt>
      <trkpt lat="43.68371" lon="1.86231">
        <ele>148</ele>
        <time>2013-02-21T13:24:55Z</time>
      </trkpt>
      <trkpt lat="43.68375" lon="1.86216">
        <ele>151</ele>
        <time>2013-02-21T13:25:06Z</time>
      </trkpt>
      <trkpt lat="43.68374" lon="1.86201">
        <ele>153</ele>
        <time>2013-02-21T13:25:14Z</time>
      </trkpt>
      <trkpt lat="43.68372" lon="1.86186">
        <ele>154</ele>
        <time>2013-02-21T13:25:26Z</time>
      </trkpt>
      <trkpt lat="43.68368" lon="1.86164">
        <ele>152</ele>
        <time>2013-02-21T13:25:42Z</time>
      </trkpt>
      <trkpt lat="43.68364" lon="1.8615">
        <ele>151</ele>
        <time>2013-02-21T13:25:46Z</time>
      </trkpt>
      <trkpt lat="43.68361" lon="1.8613">
        <ele>151</ele>
        <time>2013-02-21T13:25:57Z</time>
      </trkpt>
      <trkpt lat="43.68358" lon="1.86116">
        <ele>151</ele>
        <time>2013-02-21T13:26:05Z</time>
      </trkpt>
      <trkpt lat="43.68357" lon="1.86102">
        <ele>151</ele>
        <time>2013-02-21T13:26:12Z</time>
      </trkpt>
      <trkpt lat="43.68357" lon="1.86088">
        <ele>152</ele>
        <time>2013-02-21T13:26:21Z</time>
      </trkpt>
      <trkpt lat="43.68359" lon="1.86075">
        <ele>152</ele>
        <time>2013-02-21T13:26:35Z</time>
      </trkpt>
      <trkpt lat="43.68353" lon="1.86063">
        <ele>150</ele>
        <time>2013-02-21T13:26:47Z</time>
      </trkpt>
      <trkpt lat="43.68352" lon="1.86049">
        <ele>149</ele>
        <time>2013-02-21T13:26:57Z</time>
      </trkpt>
      <trkpt lat="43.68353" lon="1.86035">
        <ele>149</ele>
        <time>2013-02-21T13:27:07Z</time>
      </trkpt>
      <trkpt lat="43.68359" lon="1.8602">
        <ele>148</ele>
        <time>2013-02-21T13:27:21Z</time>
      </trkpt>
      <trkpt lat="43.68366" lon="1.8601">
        <ele>146</ele>
        <time>2013-02-21T13:27:29Z</time>
      </trkpt>
      <trkpt lat="43.68373" lon="1.86003">
        <ele>142</ele>
        <time>2013-02-21T13:27:40Z</time>
      </trkpt>
      <trkpt lat="43.68382" lon="1.85989">
        <ele>140</ele>
        <time>2013-02-21T13:27:58Z</time>
      </trkpt>
      <trkpt lat="43.68385" lon="1.85975">
        <ele>139</ele>
        <time>2013-02-21T13:28:04Z</time>
      </trkpt>
      <trkpt lat="43.68386" lon="1.8596">
        <ele>140</ele>
        <time>2013-02-21T13:28:13Z</time>
      </trkpt>
      <trkpt lat="43.68389" lon="1.85945">
        <ele>142</ele>
        <time>2013-02-21T13:28:23Z</time>
      </trkpt>
      <trkpt lat="43.68394" lon="1.85929">
        <ele>143</ele>
        <time>2013-02-21T13:28:32Z</time>
      </trkpt>
      <trkpt lat="43.68394" lon="1.85915">
        <ele>146</ele>
        <time>2013-02-21T13:28:36Z</time>
      </trkpt>
      <trkpt lat="43.68395" lon="1.85902">
        <ele>150</ele>
        <time>2013-02-21T13:28:42Z</time>
      </trkpt>
      <trkpt lat="43.68397" lon="1.85889">
        <ele>153</ele>
        <time>2013-02-21T13:28:51Z</time>
      </trkpt>
      <trkpt lat="43.684" lon="1.85875">
        <ele>156</ele>
        <time>2013-02-21T13:29:00Z</time>
      </trkpt>
      <trkpt lat="43.68402" lon="1.85862">
        <ele>156</ele>
        <time>2013-02-21T13:29:07Z</time>
      </trkpt>
      <trkpt lat="43.68402" lon="1.85853">
        <ele>155</ele>
        <time>2013-02-21T13:29:15Z</time>
      </trkpt>
      <trkpt lat="43.68403" lon="1.85844">
        <ele>154</ele>
        <time>2013-02-21T13:29:21Z</time>
      </trkpt>
      <trkpt lat="43.68404" lon="1.85837">
        <ele>154</ele>
        <time>2013-02-21T13:29:25Z</time>
      </trkpt>
      <trkpt lat="43.68406" lon="1.85821">
        <ele>153</ele>
        <time>2013-02-21T13:29:36Z</time>
      </trkpt>
      <trkpt lat="43.68407" lon="1.85808">
        <ele>153</ele>
        <time>2013-02-21T13:29:43Z</time>
      </trkpt>
      <trkpt lat="43.68407" lon="1.85794">
        <ele>150</ele>
        <time>2013-02-21T13:29:51Z</time>
      </trkpt>
      <trkpt lat="43.68408" lon="1.8578">
        <ele>148</ele>
        <time>2013-02-21T13:30:02Z</time>
      </trkpt>
      <trkpt lat="43.68408" lon="1.85772">
        <ele>148</ele>
        <time>2013-02-21T13:30:05Z</time>
      </trkpt>
      <trkpt lat="43.68411" lon="1.85761">
        <ele>147</ele>
        <time>2013-02-21T13:30:11Z</time>
      </trkpt>
      <trkpt lat="43.68415" lon="1.85749">
        <ele>151</ele>
        <time>2013-02-21T13:30:20Z</time>
      </trkpt>
      <trkpt lat="43.68416" lon="1.85734">
        <ele>152</ele>
        <time>2013-02-21T13:30:27Z</time>
      </trkpt>
      <trkpt lat="43.68414" lon="1.85722">
        <ele>154</ele>
        <time>2013-02-21T13:30:33Z</time>
      </trkpt>
      <trkpt lat="43.68417" lon="1.85709">
        <ele>158</ele>
        <time>2013-02-21T13:30:46Z</time>
      </trkpt>
      <trkpt lat="43.68418" lon="1.85696">
        <ele>159</ele>
        <time>2013-02-21T13:30:52Z</time>
      </trkpt>
      <trkpt lat="43.68422" lon="1.85684">
        <ele>157</ele>
        <time>2013-02-21T13:31:06Z</time>
      </trkpt>
      <trkpt lat="43.68419" lon="1.85679">
        <ele>155</ele>
        <time>2013-02-21T13:31:23Z</time>
      </trkpt>
      <trkpt lat="43.68416" lon="1.85676">
        <ele>152</ele>
        <time>2013-02-21T13:31:43Z</time>
      </trkpt>
      <trkpt lat="43.68419" lon="1.85661">
        <ele>149</ele>
        <time>2013-02-21T13:32:29Z</time>
      </trkpt>
      <trkpt lat="43.68419" lon="1.85649">
        <ele>149</ele>
        <time>2013-02-21T13:32:38Z</time>
      </trkpt>
      <trkpt lat="43.68424" lon="1.85637">
        <ele>149</ele>
        <time>2013-02-21T13:32:45Z</time>
      </trkpt>
      <trkpt lat="43.68428" lon="1.85626">
        <ele>148</ele>
        <time>2013-02-21T13:32:58Z</time>
      </trkpt>
      <trkpt lat="43.68432" lon="1.85618">
        <ele>152</ele>
        <time>2013-02-21T13:33:07Z</time>
      </trkpt>
      <trkpt lat="43.68438" lon="1.85608">
        <ele>152</ele>
        <time>2013-02-21T13:33:17Z</time>
      </trkpt>
      <trkpt lat="43.68444" lon="1.85596">
        <ele>153</ele>
        <time>2013-02-21T13:33:24Z</time>
      </trkpt>
      <trkpt lat="43.68447" lon="1.85584">
        <ele>153</ele>
        <time>2013-02-21T13:33:32Z</time>
      </trkpt>
      <trkpt lat="43.68451" lon="1.85572">
        <ele>150</ele>
        <time>2013-02-21T13:33:40Z</time>
      </trkpt>
      <trkpt lat="43.68454" lon="1.8556">
        <ele>146</ele>
        <time>2013-02-21T13:33:48Z</time>
      </trkpt>
      <trkpt lat="43.6846" lon="1.85548">
        <ele>143</ele>
        <time>2013-02-21T13:33:59Z</time>
      </trkpt>
      <trkpt lat="43.68466" lon="1.85537">
        <ele>142</ele>
        <time>2013-02-21T13:34:11Z</time>
      </trkpt>
      <trkpt lat="43.6847" lon="1.85524">
        <ele>138</ele>
        <time>2013-02-21T13:34:19Z</time>
      </trkpt>
      <trkpt lat="43.68473" lon="1.85509">
        <ele>139</ele>
        <time>2013-02-21T13:34:25Z</time>
      </trkpt>
      <trkpt lat="43.68477" lon="1.85497">
        <ele>139</ele>
        <time>2013-02-21T13:34:30Z</time>
      </trkpt>
      <trkpt lat="43.68484" lon="1.85487">
        <ele>139</ele>
        <time>2013-02-21T13:34:42Z</time>
      </trkpt>
      <trkpt lat="43.68489" lon="1.85475">
        <ele>138</ele>
        <time>2013-02-21T13:34:56Z</time>
      </trkpt>
      <trkpt lat="43.68496" lon="1.85459">
        <ele>139</ele>
        <time>2013-02-21T13:35:08Z</time>
      </trkpt>
      <trkpt lat="43.68498" lon="1.85446">
        <ele>138</ele>
        <time>2013-02-21T13:35:13Z</time>
      </trkpt>
      <trkpt lat="43.68498" lon="1.85432">
        <ele>139</ele>
        <time>2013-02-21T13:35:19Z</time>
      </trkpt>
      <trkpt lat="43.68506" lon="1.85416">
        <ele>143</ele>
        <time>2013-02-21T13:35:30Z</time>
      </trkpt>
      <trkpt lat="43.6851" lon="1.85404">
        <ele>147</ele>
        <time>2013-02-21T13:35:37Z</time>
      </trkpt>
      <trkpt lat="43.68515" lon="1.85392">
        <ele>149</ele>
        <time>2013-02-21T13:35:46Z</time>
      </trkpt>
      <trkpt lat="43.6852" lon="1.8538">
        <ele>150</ele>
        <time>2013-02-21T13:35:55Z</time>
      </trkpt>
      <trkpt lat="43.68521" lon="1.85366">
        <ele>149</ele>
        <time>2013-02-21T13:36:02Z</time>
      </trkpt>
      <trkpt lat="43.68526" lon="1.85356">
        <ele>148</ele>
        <time>2013-02-21T13:36:12Z</time>
      </trkpt>
      <trkpt lat="43.68533" lon="1.85346">
        <ele>147</ele>
        <time>2013-02-21T13:36:21Z</time>
      </trkpt>
      <trkpt lat="43.68537" lon="1.85335">
        <ele>144</ele>
        <time>2013-02-21T13:36:29Z</time>
      </trkpt>
      <trkpt lat="43.68543" lon="1.85322">
        <ele>146</ele>
        <time>2013-02-21T13:36:39Z</time>
      </trkpt>
      <trkpt lat="43.68547" lon="1.85309">
        <ele>145</ele>
        <time>2013-02-21T13:36:49Z</time>
      </trkpt>
      <trkpt lat="43.68551" lon="1.85297">
        <ele>145</ele>
        <time>2013-02-21T13:36:57Z</time>
      </trkpt>
      <trkpt lat="43.68555" lon="1.85285">
        <ele>145</ele>
        <time>2013-02-21T13:37:09Z</time>
      </trkpt>
      <trkpt lat="43.68559" lon="1.85272">
        <ele>143</ele>
        <time>2013-02-21T13:37:18Z</time>
      </trkpt>
      <trkpt lat="43.68563" lon="1.85261">
        <ele>140</ele>
        <time>2013-02-21T13:37:28Z</time>
      </trkpt>
      <trkpt lat="43.68566" lon="1.85247">
        <ele>140</ele>
        <time>2013-02-21T13:37:35Z</time>
      </trkpt>
      <trkpt lat="43.68569" lon="1.85235">
        <ele>140</ele>
        <time>2013-02-21T13:37:44Z</time>
      </trkpt>
      <trkpt lat="43.68573" lon="1.85222">
        <ele>141</ele>
        <time>2013-02-21T13:37:52Z</time>
      </trkpt>
      <trkpt lat="43.68577" lon="1.85209">
        <ele>144</ele>
        <time>2013-02-21T13:38:01Z</time>
      </trkpt>
      <trkpt lat="43.6858" lon="1.85196">
        <ele>147</ele>
        <time>2013-02-21T13:38:09Z</time>
      </trkpt>
      <trkpt lat="43.68581" lon="1.85182">
        <ele>146</ele>
        <time>2013-02-21T13:38:16Z</time>
      </trkpt>
      <trkpt lat="43.68587" lon="1.85173">
        <ele>145</ele>
        <time>2013-02-21T13:38:25Z</time>
      </trkpt>
      <trkpt lat="43.68589" lon="1.85165">
        <ele>144</ele>
        <time>2013-02-21T13:38:32Z</time>
      </trkpt>
      <trkpt lat="43.68591" lon="1.85158">
        <ele>144</ele>
        <time>2013-02-21T13:38:37Z</time>
      </trkpt>
      <trkpt lat="43.68595" lon="1.85152">
        <ele>143</ele>
        <time>2013-02-21T13:38:43Z</time>
      </trkpt>
      <trkpt lat="43.68597" lon="1.85146">
        <ele>143</ele>
        <time>2013-02-21T13:38:47Z</time>
      </trkpt>
      <trkpt lat="43.68599" lon="1.8514">
        <ele>142</ele>
        <time>2013-02-21T13:38:51Z</time>
      </trkpt>
      <trkpt lat="43.68604" lon="1.85133">
        <ele>139</ele>
        <time>2013-02-21T13:38:56Z</time>
      </trkpt>
      <trkpt lat="43.68606" lon="1.85127">
        <ele>138</ele>
        <time>2013-02-21T13:38:59Z</time>
      </trkpt>
      <trkpt lat="43.6861" lon="1.8512">
        <ele>136</ele>
        <time>2013-02-21T13:39:04Z</time>
      </trkpt>
      <trkpt lat="43.68613" lon="1.85106">
        <ele>135</ele>
        <time>2013-02-21T13:39:12Z</time>
      </trkpt>
      <trkpt lat="43.68617" lon="1.851">
        <ele>133</ele>
        <time>2013-02-21T13:39:19Z</time>
      </trkpt>
      <trkpt lat="43.68622" lon="1.8509">
        <ele>132</ele>
        <time>2013-02-21T13:39:26Z</time>
      </trkpt>
      <trkpt lat="43.68626" lon="1.85079">
        <ele>131</ele>
        <time>2013-02-21T13:39:35Z</time>
      </trkpt>
      <trkpt lat="43.68631" lon="1.85067">
        <ele>130</ele>
        <time>2013-02-21T13:39:45Z</time>
      </trkpt>
      <trkpt lat="43.68633" lon="1.85054">
        <ele>132</ele>
        <time>2013-02-21T13:39:55Z</time>
      </trkpt>
      <trkpt lat="43.68635" lon="1.85042">
        <ele>133</ele>
        <time>2013-02-21T13:40:03Z</time>
      </trkpt>
      <trkpt lat="43.68639" lon="1.8503">
        <ele>134</ele>
        <time>2013-02-21T13:40:11Z</time>
      </trkpt>
      <trkpt lat="43.68644" lon="1.8502">
        <ele>134</ele>
        <time>2013-02-21T13:40:19Z</time>
      </trkpt>
      <trkpt lat="43.68649" lon="1.85007">
        <ele>136</ele>
        <time>2013-02-21T13:40:29Z</time>
      </trkpt>
      <trkpt lat="43.68653" lon="1.84995">
        <ele>137</ele>
        <time>2013-02-21T13:40:37Z</time>
      </trkpt>
      <trkpt lat="43.68659" lon="1.84982">
        <ele>138</ele>
        <time>2013-02-21T13:40:45Z</time>
      </trkpt>
      <trkpt lat="43.68664" lon="1.8497">
        <ele>135</ele>
        <time>2013-02-21T13:40:55Z</time>
      </trkpt>
      <trkpt lat="43.68672" lon="1.84959">
        <ele>134</ele>
        <time>2013-02-21T13:41:08Z</time>
      </trkpt>
      <trkpt lat="43.68679" lon="1.84945">
        <ele>131</ele>
        <time>2013-02-21T13:41:20Z</time>
      </trkpt>
      <trkpt lat="43.68684" lon="1.84931">
        <ele>128</ele>
        <time>2013-02-21T13:41:29Z</time>
      </trkpt>
      <trkpt lat="43.68687" lon="1.84918">
        <ele>127</ele>
        <time>2013-02-21T13:41:36Z</time>
      </trkpt>
      <trkpt lat="43.68689" lon="1.84906">
        <ele>127</ele>
        <time>2013-02-21T13:41:42Z</time>
      </trkpt>
      <trkpt lat="43.68695" lon="1.84895">
        <ele>127</ele>
        <time>2013-02-21T13:41:52Z</time>
      </trkpt>
      <trkpt lat="43.68703" lon="1.84888">
        <ele>127</ele>
        <time>2013-02-21T13:42:00Z</time>
      </trkpt>
      <trkpt lat="43.68707" lon="1.84876">
        <ele>129</ele>
        <time>2013-02-21T13:42:08Z</time>
      </trkpt>
      <trkpt lat="43.68713" lon="1.84864">
        <ele>129</ele>
        <time>2013-02-21T13:42:19Z</time>
      </trkpt>
      <trkpt lat="43.68719" lon="1.84854">
        <ele>125</ele>
        <time>2013-02-21T13:42:29Z</time>
      </trkpt>
      <trkpt lat="43.68723" lon="1.84841">
        <ele>124</ele>
        <time>2013-02-21T13:42:39Z</time>
      </trkpt>
      <trkpt lat="43.68725" lon="1.84829">
        <ele>124</ele>
        <time>2013-02-21T13:42:47Z</time>
      </trkpt>
      <trkpt lat="43.68725" lon="1.84815">
        <ele>122</ele>
        <time>2013-02-21T13:42:57Z</time>
      </trkpt>
      <trkpt lat="43.68725" lon="1.84802">
        <ele>122</ele>
        <time>2013-02-21T13:43:04Z</time>
      </trkpt>
      <trkpt lat="43.68724" lon="1.84788">
        <ele>124</ele>
        <time>2013-02-21T13:43:12Z</time>
      </trkpt>
      <trkpt lat="43.68728" lon="1.84775">
        <ele>125</ele>
        <time>2013-02-21T13:43:22Z</time>
      </trkpt>
      <trkpt lat="43.68728" lon="1.84763">
        <ele>125</ele>
        <time>2013-02-21T13:43:31Z</time>
      </trkpt>
      <trkpt lat="43.68731" lon="1.84751">
        <ele>124</ele>
        <time>2013-02-21T13:43:42Z</time>
      </trkpt>
      <trkpt lat="43.68731" lon="1.84737">
        <ele>126</ele>
        <time>2013-02-21T13:43:49Z</time>
      </trkpt>
      <trkpt lat="43.68729" lon="1.84723">
        <ele>129</ele>
        <time>2013-02-21T13:43:56Z</time>
      </trkpt>
      <trkpt lat="43.68729" lon="1.8471">
        <ele>131</ele>
        <time>2013-02-21T13:44:05Z</time>
      </trkpt>
      <trkpt lat="43.68727" lon="1.84697">
        <ele>131</ele>
        <time>2013-02-21T13:44:13Z</time>
      </trkpt>
      <trkpt lat="43.68725" lon="1.84688">
        <ele>132</ele>
        <time>2013-02-21T13:44:20Z</time>
      </trkpt>
      <trkpt lat="43.68725" lon="1.84675">
        <ele>132</ele>
        <time>2013-02-21T13:44:28Z</time>
      </trkpt>
      <trkpt lat="43.68724" lon="1.84668">
        <ele>132</ele>
        <time>2013-02-21T13:44:33Z</time>
      </trkpt>
      <trkpt lat="43.68723" lon="1.84655">
        <ele>133</ele>
        <time>2013-02-21T13:44:42Z</time>
      </trkpt>
      <trkpt lat="43.68721" lon="1.84648">
        <ele>134</ele>
        <time>2013-02-21T13:44:48Z</time>
      </trkpt>
      <trkpt lat="43.68721" lon="1.84641">
        <ele>134</ele>
        <time>2013-02-21T13:44:54Z</time>
      </trkpt>
      <trkpt lat="43.6872" lon="1.84634">
        <ele>135</ele>
        <time>2013-02-21T13:44:59Z</time>
      </trkpt>
      <trkpt lat="43.68719" lon="1.84627">
        <ele>135</ele>
        <time>2013-02-21T13:45:04Z</time>
      </trkpt>
      <trkpt lat="43.68719" lon="1.84621">
        <ele>135</ele>
        <time>2013-02-21T13:45:08Z</time>
      </trkpt>
      <trkpt lat="43.68719" lon="1.84607">
        <ele>134</ele>
        <time>2013-02-21T13:45:17Z</time>
      </trkpt>
      <trkpt lat="43.6872" lon="1.84601">
        <ele>133</ele>
        <time>2013-02-21T13:45:23Z</time>
      </trkpt>
      <trkpt lat="43.68718" lon="1.84587">
        <ele>132</ele>
        <time>2013-02-21T13:45:34Z</time>
      </trkpt>
      <trkpt lat="43.68716" lon="1.8458">
        <ele>132</ele>
        <time>2013-02-21T13:45:38Z</time>
      </trkpt>
      <trkpt lat="43.68716" lon="1.84568">
        <ele>131</ele>
        <time>2013-02-21T13:45:47Z</time>
      </trkpt>
      <trkpt lat="43.68716" lon="1.84554">
        <ele>130</ele>
        <time>2013-02-21T13:45:56Z</time>
      </trkpt>
      <trkpt lat="43.68714" lon="1.84541">
        <ele>128</ele>
        <time>2013-02-21T13:46:05Z</time>
      </trkpt>
      <trkpt lat="43.68713" lon="1.84529">
        <ele>127</ele>
        <time>2013-02-21T13:46:12Z</time>
      </trkpt>
      <trkpt lat="43.68715" lon="1.84515">
        <ele>127</ele>
        <time>2013-02-21T13:46:21Z</time>
      </trkpt>
      <trkpt lat="43.68715" lon="1.84507">
        <ele>127</ele>
        <time>2013-02-21T13:46:26Z</time>
      </trkpt>
      <trkpt lat="43.68715" lon="1.845">
        <ele>127</ele>
        <time>2013-02-21T13:46:29Z</time>
      </trkpt>
      <trkpt lat="43.68716" lon="1.84489">
        <ele>127</ele>
        <time>2013-02-21T13:46:37Z</time>
      </trkpt>
      <trkpt lat="43.68718" lon="1.84483">
        <ele>129</ele>
        <time>2013-02-21T13:46:43Z</time>
      </trkpt>
      <trkpt lat="43.6872" lon="1.84467">
        <ele>131</ele>
        <time>2013-02-21T13:46:53Z</time>
      </trkpt>
      <trkpt lat="43.68723" lon="1.84455">
        <ele>131</ele>
        <time>2013-02-21T13:47:00Z</time>
      </trkpt>
      <trkpt lat="43.68724" lon="1.84448">
        <ele>133</ele>
        <time>2013-02-21T13:47:05Z</time>
      </trkpt>
      <trkpt lat="43.68725" lon="1.84441">
        <ele>134</ele>
        <time>2013-02-21T13:47:09Z</time>
      </trkpt>
      <trkpt lat="43.68727" lon="1.84429">
        <ele>134</ele>
        <time>2013-02-21T13:47:17Z</time>
      </trkpt>
      <trkpt lat="43.68728" lon="1.84422">
        <ele>133</ele>
        <time>2013-02-21T13:47:21Z</time>
      </trkpt>
      <trkpt lat="43.6873" lon="1.84416">
        <ele>132</ele>
        <time>2013-02-21T13:47:26Z</time>
      </trkpt>
      <trkpt lat="43.68733" lon="1.84409">
        <ele>132</ele>
        <time>2013-02-21T13:47:30Z</time>
      </trkpt>
      <trkpt lat="43.68734" lon="1.84403">
        <ele>131</ele>
        <time>2013-02-21T13:47:34Z</time>
      </trkpt>
      <trkpt lat="43.68737" lon="1.84396">
        <ele>131</ele>
        <time>2013-02-21T13:47:40Z</time>
      </trkpt>
      <trkpt lat="43.6874" lon="1.84389">
        <ele>132</ele>
        <time>2013-02-21T13:47:46Z</time>
      </trkpt>
      <trkpt lat="43.68742" lon="1.84382">
        <ele>133</ele>
        <time>2013-02-21T13:47:51Z</time>
      </trkpt>
      <trkpt lat="43.68745" lon="1.84376">
        <ele>133</ele>
        <time>2013-02-21T13:47:56Z</time>
      </trkpt>
      <trkpt lat="43.68746" lon="1.84369">
        <ele>132</ele>
        <time>2013-02-21T13:48:02Z</time>
      </trkpt>
      <trkpt lat="43.68748" lon="1.84362">
        <ele>132</ele>
        <time>2013-02-21T13:48:08Z</time>
      </trkpt>
      <trkpt lat="43.6875" lon="1.84349">
        <ele>130</ele>
        <time>2013-02-21T13:48:15Z</time>
      </trkpt>
      <trkpt lat="43.68751" lon="1.84343">
        <ele>129</ele>
        <time>2013-02-21T13:48:18Z</time>
      </trkpt>
      <trkpt lat="43.68752" lon="1.84337">
        <ele>127</ele>
        <time>2013-02-21T13:48:24Z</time>
      </trkpt>
      <trkpt lat="43.68754" lon="1.8433">
        <ele>128</ele>
        <time>2013-02-21T13:48:28Z</time>
      </trkpt>
      <trkpt lat="43.68755" lon="1.84322">
        <ele>128</ele>
        <time>2013-02-21T13:48:32Z</time>
      </trkpt>
      <trkpt lat="43.68756" lon="1.84314">
        <ele>128</ele>
        <time>2013-02-21T13:48:38Z</time>
      </trkpt>
      <trkpt lat="43.6876" lon="1.84302">
        <ele>128</ele>
        <time>2013-02-21T13:48:45Z</time>
      </trkpt>
      <trkpt lat="43.68763" lon="1.84288">
        <ele>129</ele>
        <time>2013-02-21T13:48:56Z</time>
      </trkpt>
      <trkpt lat="43.68766" lon="1.84274">
        <ele>130</ele>
        <time>2013-02-21T13:49:07Z</time>
      </trkpt>
      <trkpt lat="43.68768" lon="1.84265">
        <ele>130</ele>
        <time>2013-02-21T13:49:13Z</time>
      </trkpt>
      <trkpt lat="43.68774" lon="1.84253">
        <ele>131</ele>
        <time>2013-02-21T13:49:22Z</time>
      </trkpt>
      <trkpt lat="43.68777" lon="1.84239">
        <ele>130</ele>
        <time>2013-02-21T13:49:31Z</time>
      </trkpt>
      <trkpt lat="43.68779" lon="1.84231">
        <ele>130</ele>
        <time>2013-02-21T13:49:36Z</time>
      </trkpt>
      <trkpt lat="43.6878" lon="1.84224">
        <ele>131</ele>
        <time>2013-02-21T13:49:41Z</time>
      </trkpt>
      <trkpt lat="43.68782" lon="1.84218">
        <ele>130</ele>
        <time>2013-02-21T13:49:45Z</time>
      </trkpt>
      <trkpt lat="43.68784" lon="1.84205">
        <ele>129</ele>
        <time>2013-02-21T13:49:54Z</time>
      </trkpt>
      <trkpt lat="43.68787" lon="1.84194">
        <ele>128</ele>
        <time>2013-02-21T13:50:01Z</time>
      </trkpt>
      <trkpt lat="43.6879" lon="1.84181">
        <ele>127</ele>
        <time>2013-02-21T13:50:10Z</time>
      </trkpt>
      <trkpt lat="43.68795" lon="1.84167">
        <ele>124</ele>
        <time>2013-02-21T13:50:23Z</time>
      </trkpt>
      <trkpt lat="43.68798" lon="1.84152">
        <ele>122</ele>
        <time>2013-02-21T13:50:33Z</time>
      </trkpt>
      <trkpt lat="43.688" lon="1.84138">
        <ele>123</ele>
        <time>2013-02-21T13:50:40Z</time>
      </trkpt>
      <trkpt lat="43.688" lon="1.84124">
        <ele>124</ele>
        <time>2013-02-21T13:50:46Z</time>
      </trkpt>
      <trkpt lat="43.68801" lon="1.84111">
        <ele>127</ele>
        <time>2013-02-21T13:50:56Z</time>
      </trkpt>
      <trkpt lat="43.68805" lon="1.84098">
        <ele>129</ele>
        <time>2013-02-21T13:51:05Z</time>
      </trkpt>
      <trkpt lat="43.68807" lon="1.84086">
        <ele>131</ele>
        <time>2013-02-21T13:51:13Z</time>
      </trkpt>
      <trkpt lat="43.6881" lon="1.84074">
        <ele>132</ele>
        <time>2013-02-21T13:51:23Z</time>
      </trkpt>
      <trkpt lat="43.68812" lon="1.84062">
        <ele>130</ele>
        <time>2013-02-21T13:51:31Z</time>
      </trkpt>
      <trkpt lat="43.68814" lon="1.84049">
        <ele>130</ele>
        <time>2013-02-21T13:51:40Z</time>
      </trkpt>
      <trkpt lat="43.68815" lon="1.84036">
        <ele>131</ele>
        <time>2013-02-21T13:51:49Z</time>
      </trkpt>
      <trkpt lat="43.68818" lon="1.84023">
        <ele>133</ele>
        <time>2013-02-21T13:51:58Z</time>
      </trkpt>
      <trkpt lat="43.68819" lon="1.84009">
        <ele>131</ele>
        <time>2013-02-21T13:52:05Z</time>
      </trkpt>
      <trkpt lat="43.68824" lon="1.83998">
        <ele>129</ele>
        <time>2013-02-21T13:52:16Z</time>
      </trkpt>
      <trkpt lat="43.68828" lon="1.83986">
        <ele>129</ele>
        <time>2013-02-21T13:52:25Z</time>
      </trkpt>
      <trkpt lat="43.6883" lon="1.83974">
        <ele>131</ele>
        <time>2013-02-21T13:52:32Z</time>
      </trkpt>
      <trkpt lat="43.68831" lon="1.83966">
        <ele>132</ele>
        <time>2013-02-21T13:52:36Z</time>
      </trkpt>
      <trkpt lat="43.68832" lon="1.83959">
        <ele>133</ele>
        <time>2013-02-21T13:52:40Z</time>
      </trkpt>
      <trkpt lat="43.68834" lon="1.83954">
        <ele>134</ele>
        <time>2013-02-21T13:52:45Z</time>
      </trkpt>
      <trkpt lat="43.68835" lon="1.8394">
        <ele>132</ele>
        <time>2013-02-21T13:52:53Z</time>
      </trkpt>
      <trkpt lat="43.68838" lon="1.83928">
        <ele>133</ele>
        <time>2013-02-21T13:53:03Z</time>
      </trkpt>
      <trkpt lat="43.68841" lon="1.83916">
        <ele>133</ele>
        <time>2013-02-21T13:53:11Z</time>
      </trkpt>
      <trkpt lat="43.68842" lon="1.83909">
        <ele>133</ele>
        <time>2013-02-21T13:53:15Z</time>
      </trkpt>
      <trkpt lat="43.68843" lon="1.83902">
        <ele>132</ele>
        <time>2013-02-21T13:53:20Z</time>
      </trkpt>
      <trkpt lat="43.68845" lon="1.83895">
        <ele>131</ele>
        <time>2013-02-21T13:53:24Z</time>
      </trkpt>
      <trkpt lat="43.68845" lon="1.83888">
        <ele>131</ele>
        <time>2013-02-21T13:53:28Z</time>
      </trkpt>
      <trkpt lat="43.68847" lon="1.83882">
        <ele>131</ele>
        <time>2013-02-21T13:53:33Z</time>
      </trkpt>
      <trkpt lat="43.68847" lon="1.83874">
        <ele>131</ele>
        <time>2013-02-21T13:53:39Z</time>
      </trkpt>
      <trkpt lat="43.68848" lon="1.83867">
        <ele>131</ele>
        <time>2013-02-21T13:53:43Z</time>
      </trkpt>
      <trkpt lat="43.68849" lon="1.83861">
        <ele>133</ele>
        <time>2013-02-21T13:53:49Z</time>
      </trkpt>
      <trkpt lat="43.68853" lon="1.83849">
        <ele>134</ele>
        <time>2013-02-21T13:53:56Z</time>
      </trkpt>
      <trkpt lat="43.68855" lon="1.83836">
        <ele>134</ele>
        <time>2013-02-21T13:54:05Z</time>
      </trkpt>
      <trkpt lat="43.68858" lon="1.83821">
        <ele>134</ele>
        <time>2013-02-21T13:54:16Z</time>
      </trkpt>
      <trkpt lat="43.68861" lon="1.83807">
        <ele>135</ele>
        <time>2013-02-21T13:54:24Z</time>
      </trkpt>
      <trkpt lat="43.68863" lon="1.83794">
        <ele>135</ele>
        <time>2013-02-21T13:54:32Z</time>
      </trkpt>
      <trkpt lat="43.68867" lon="1.83785">
        <ele>134</ele>
        <time>2013-02-21T13:54:39Z</time>
      </trkpt>
      <trkpt lat="43.68868" lon="1.83779">
        <ele>135</ele>
        <time>2013-02-21T13:54:43Z</time>
      </trkpt>
      <trkpt lat="43.6887" lon="1.83771">
        <ele>134</ele>
        <time>2013-02-21T13:54:49Z</time>
      </trkpt>
      <trkpt lat="43.68873" lon="1.83757">
        <ele>133</ele>
        <time>2013-02-21T13:54:59Z</time>
      </trkpt>
      <trkpt lat="43.68878" lon="1.83746">
        <ele>132</ele>
        <time>2013-02-21T13:55:08Z</time>
      </trkpt>
      <trkpt lat="43.6888" lon="1.83734">
        <ele>130</ele>
        <time>2013-02-21T13:55:17Z</time>
      </trkpt>
      <trkpt lat="43.68883" lon="1.83719">
        <ele>128</ele>
        <time>2013-02-21T13:55:28Z</time>
      </trkpt>
      <trkpt lat="43.68888" lon="1.83707">
        <ele>127</ele>
        <time>2013-02-21T13:55:35Z</time>
      </trkpt>
      <trkpt lat="43.68892" lon="1.83695">
        <ele>127</ele>
        <time>2013-02-21T13:55:43Z</time>
      </trkpt>
      <trkpt lat="43.68894" lon="1.83683">
        <ele>127</ele>
        <time>2013-02-21T13:55:52Z</time>
      </trkpt>
      <trkpt lat="43.68898" lon="1.83671">
        <ele>125</ele>
        <time>2013-02-21T13:56:00Z</time>
      </trkpt>
      <trkpt lat="43.68901" lon="1.83658">
        <ele>126</ele>
        <time>2013-02-21T13:56:11Z</time>
      </trkpt>
      <trkpt lat="43.68904" lon="1.83646">
        <ele>125</ele>
        <time>2013-02-21T13:56:20Z</time>
      </trkpt>
      <trkpt lat="43.68906" lon="1.83633">
        <ele>127</ele>
        <time>2013-02-21T13:56:30Z</time>
      </trkpt>
      <trkpt lat="43.68906" lon="1.83625">
        <ele>129</ele>
        <time>2013-02-21T13:56:45Z</time>
      </trkpt>
      <trkpt lat="43.68909" lon="1.83621">
        <ele>132</ele>
        <time>2013-02-21T13:56:55Z</time>
      </trkpt>
      <trkpt lat="43.68908" lon="1.83612">
        <ele>135</ele>
        <time>2013-02-21T13:57:30Z</time>
      </trkpt>
      <trkpt lat="43.6891" lon="1.83598">
        <ele>135</ele>
        <time>2013-02-21T13:57:39Z</time>
      </trkpt>
      <trkpt lat="43.68911" lon="1.83585">
        <ele>133</ele>
        <time>2013-02-21T13:57:49Z</time>
      </trkpt>
      <trkpt lat="43.68915" lon="1.83572">
        <ele>134</ele>
        <time>2013-02-21T13:58:00Z</time>
      </trkpt>
      <trkpt lat="43.6892" lon="1.83561">
        <ele>134</ele>
        <time>2013-02-21T13:58:11Z</time>
      </trkpt>
      <trkpt lat="43.68924" lon="1.83548">
        <ele>134</ele>
        <time>2013-02-21T13:58:21Z</time>
      </trkpt>
      <trkpt lat="43.68924" lon="1.83535">
        <ele>134</ele>
        <time>2013-02-21T13:58:30Z</time>
      </trkpt>
      <trkpt lat="43.68926" lon="1.83522">
        <ele>134</ele>
        <time>2013-02-21T13:58:38Z</time>
      </trkpt>
      <trkpt lat="43.68928" lon="1.83509">
        <ele>132</ele>
        <time>2013-02-21T13:58:46Z</time>
      </trkpt>
      <trkpt lat="43.68929" lon="1.83502">
        <ele>133</ele>
        <time>2013-02-21T13:58:51Z</time>
      </trkpt>
      <trkpt lat="43.6893" lon="1.83496">
        <ele>134</ele>
        <time>2013-02-21T13:58:57Z</time>
      </trkpt>
      <trkpt lat="43.68932" lon="1.83483">
        <ele>133</ele>
        <time>2013-02-21T13:59:06Z</time>
      </trkpt>
      <trkpt lat="43.68934" lon="1.8347">
        <ele>132</ele>
        <time>2013-02-21T13:59:14Z</time>
      </trkpt>
      <trkpt lat="43.68935" lon="1.83464">
        <ele>131</ele>
        <time>2013-02-21T13:59:19Z</time>
      </trkpt>
      <trkpt lat="43.68938" lon="1.83451">
        <ele>132</ele>
        <time>2013-02-21T13:59:31Z</time>
      </trkpt>
      <trkpt lat="43.68941" lon="1.83439">
        <ele>132</ele>
        <time>2013-02-21T13:59:42Z</time>
      </trkpt>
      <trkpt lat="43.68944" lon="1.83425">
        <ele>132</ele>
        <time>2013-02-21T13:59:52Z</time>
      </trkpt>
      <trkpt lat="43.68944" lon="1.83413">
        <ele>135</ele>
        <time>2013-02-21T14:00:02Z</time>
      </trkpt>
      <trkpt lat="43.68948" lon="1.83401">
        <ele>134</ele>
        <time>2013-02-21T14:00:09Z</time>
      </trkpt>
      <trkpt lat="43.68951" lon="1.83388">
        <ele>135</ele>
        <time>2013-02-21T14:00:18Z</time>
      </trkpt>
      <trkpt lat="43.68954" lon="1.83375">
        <ele>134</ele>
        <time>2013-02-21T14:00:28Z</time>
      </trkpt>
      <trkpt lat="43.68957" lon="1.83363">
        <ele>133</ele>
        <time>2013-02-21T14:00:36Z</time>
      </trkpt>
      <trkpt lat="43.68961" lon="1.83351">
        <ele>132</ele>
        <time>2013-02-21T14:00:45Z</time>
      </trkpt>
      <trkpt lat="43.68964" lon="1.83339">
        <ele>133</ele>
        <time>2013-02-21T14:00:54Z</time>
      </trkpt>
      <trkpt lat="43.68967" lon="1.83331">
        <ele>132</ele>
        <time>2013-02-21T14:01:01Z</time>
      </trkpt>
      <trkpt lat="43.68969" lon="1.83325">
        <ele>132</ele>
        <time>2013-02-21T14:01:05Z</time>
      </trkpt>
      <trkpt lat="43.68971" lon="1.83318">
        <ele>132</ele>
        <time>2013-02-21T14:01:10Z</time>
      </trkpt>
      <trkpt lat="43.68978" lon="1.83307">
        <ele>134</ele>
        <time>2013-02-21T14:01:19Z</time>
      </trkpt>
      <trkpt lat="43.6898" lon="1.83299">
        <ele>132</ele>
        <time>2013-02-21T14:01:23Z</time>
      </trkpt>
      <trkpt lat="43.68984" lon="1.83286">
        <ele>130</ele>
        <time>2013-02-21T14:01:31Z</time>
      </trkpt>
      <trkpt lat="43.68989" lon="1.83276">
        <ele>127</ele>
        <time>2013-02-21T14:01:42Z</time>
      </trkpt>
      <trkpt lat="43.68993" lon="1.83269">
        <ele>126</ele>
        <time>2013-02-21T14:01:47Z</time>
      </trkpt>
      <trkpt lat="43.68996" lon="1.83264">
        <ele>125</ele>
        <time>2013-02-21T14:01:52Z</time>
      </trkpt>
      <trkpt lat="43.68999" lon="1.83259">
        <ele>125</ele>
        <time>2013-02-21T14:01:57Z</time>
      </trkpt>
      <trkpt lat="43.69006" lon="1.83251">
        <ele>128</ele>
        <time>2013-02-21T14:02:06Z</time>
      </trkpt>
      <trkpt lat="43.69009" lon="1.83246">
        <ele>128</ele>
        <time>2013-02-21T14:02:10Z</time>
      </trkpt>
      <trkpt lat="43.69013" lon="1.83242">
        <ele>130</ele>
        <time>2013-02-21T14:02:14Z</time>
      </trkpt>
      <trkpt lat="43.69017" lon="1.83238">
        <ele>131</ele>
        <time>2013-02-21T14:02:19Z</time>
      </trkpt>
      <trkpt lat="43.69022" lon="1.83234">
        <ele>130</ele>
        <time>2013-02-21T14:02:24Z</time>
      </trkpt>
      <trkpt lat="43.69027" lon="1.83231">
        <ele>129</ele>
        <time>2013-02-21T14:02:29Z</time>
      </trkpt>
      <trkpt lat="43.69031" lon="1.83227">
        <ele>127</ele>
        <time>2013-02-21T14:02:34Z</time>
      </trkpt>
      <trkpt lat="43.69036" lon="1.83223">
        <ele>126</ele>
        <time>2013-02-21T14:02:40Z</time>
      </trkpt>
      <trkpt lat="43.6904" lon="1.8322">
        <ele>126</ele>
        <time>2013-02-21T14:02:44Z</time>
      </trkpt>
      <trkpt lat="43.69045" lon="1.83219">
        <ele>127</ele>
        <time>2013-02-21T14:02:49Z</time>
      </trkpt>
      <trkpt lat="43.69051" lon="1.83214">
        <ele>128</ele>
        <time>2013-02-21T14:02:54Z</time>
      </trkpt>
      <trkpt lat="43.69058" lon="1.83207">
        <ele>130</ele>
        <time>2013-02-21T14:03:04Z</time>
      </trkpt>
      <trkpt lat="43.69063" lon="1.83203">
        <ele>130</ele>
        <time>2013-02-21T14:03:11Z</time>
      </trkpt>
      <trkpt lat="43.69067" lon="1.83201">
        <ele>130</ele>
        <time>2013-02-21T14:03:14Z</time>
      </trkpt>
      <trkpt lat="43.69072" lon="1.83199">
        <ele>129</ele>
        <time>2013-02-21T14:03:19Z</time>
      </trkpt>
      <trkpt lat="43.69075" lon="1.83195">
        <ele>131</ele>
        <time>2013-02-21T14:03:25Z</time>
      </trkpt>
      <trkpt lat="43.69081" lon="1.83191">
        <ele>131</ele>
        <time>2013-02-21T14:03:31Z</time>
      </trkpt>
      <trkpt lat="43.69084" lon="1.83187">
        <ele>130</ele>
        <time>2013-02-21T14:03:36Z</time>
      </trkpt>
      <trkpt lat="43.69087" lon="1.83181">
        <ele>128</ele>
        <time>2013-02-21T14:03:40Z</time>
      </trkpt>
      <trkpt lat="43.69091" lon="1.83173">
        <ele>127</ele>
        <time>2013-02-21T14:03:48Z</time>
      </trkpt>
      <trkpt lat="43.69095" lon="1.83166">
        <ele>127</ele>
        <time>2013-02-21T14:03:53Z</time>
      </trkpt>
      <trkpt lat="43.69097" lon="1.83159">
        <ele>127</ele>
        <time>2013-02-21T14:03:58Z</time>
      </trkpt>
      <trkpt lat="43.69103" lon="1.83148">
        <ele>129</ele>
        <time>2013-02-21T14:04:07Z</time>
      </trkpt>
      <trkpt lat="43.69111" lon="1.8314">
        <ele>131</ele>
        <time>2013-02-21T14:04:18Z</time>
      </trkpt>
      <trkpt lat="43.69114" lon="1.8313">
        <ele>132</ele>
        <time>2013-02-21T14:04:26Z</time>
      </trkpt>
      <trkpt lat="43.69116" lon="1.83124">
        <ele>131</ele>
        <time>2013-02-21T14:04:30Z</time>
      </trkpt>
      <trkpt lat="43.69119" lon="1.83119">
        <ele>130</ele>
        <time>2013-02-21T14:04:35Z</time>
      </trkpt>
      <trkpt lat="43.69123" lon="1.83114">
        <ele>129</ele>
        <time>2013-02-21T14:04:41Z</time>
      </trkpt>
      <trkpt lat="43.69128" lon="1.83106">
        <ele>130</ele>
        <time>2013-02-21T14:04:47Z</time>
      </trkpt>
      <trkpt lat="43.69134" lon="1.83095">
        <ele>130</ele>
        <time>2013-02-21T14:04:55Z</time>
      </trkpt>
      <trkpt lat="43.69141" lon="1.83084">
        <ele>131</ele>
        <time>2013-02-21T14:05:04Z</time>
      </trkpt>
      <trkpt lat="43.69148" lon="1.83076">
        <ele>132</ele>
        <time>2013-02-21T14:05:11Z</time>
      </trkpt>
      <trkpt lat="43.69157" lon="1.83072">
        <ele>131</ele>
        <time>2013-02-21T14:05:21Z</time>
      </trkpt>
      <trkpt lat="43.69165" lon="1.8307">
        <ele>127</ele>
        <time>2013-02-21T14:06:39Z</time>
      </trkpt>
      <trkpt lat="43.69174" lon="1.83066">
        <ele>127</ele>
        <time>2013-02-21T14:06:43Z</time>
      </trkpt>
      <trkpt lat="43.69182" lon="1.8306">
        <ele>127</ele>
        <time>2013-02-21T14:06:49Z</time>
      </trkpt>
      <trkpt lat="43.6919" lon="1.83052">
        <ele>126</ele>
        <time>2013-02-21T14:06:58Z</time>
      </trkpt>
      <trkpt lat="43.69198" lon="1.83046">
        <ele>125</ele>
        <time>2013-02-21T14:07:05Z</time>
      </trkpt>
      <trkpt lat="43.69205" lon="1.83038">
        <ele>122</ele>
        <time>2013-02-21T14:07:16Z</time>
      </trkpt>
      <trkpt lat="43.69213" lon="1.8303">
        <ele>123</ele>
        <time>2013-02-21T14:07:25Z</time>
      </trkpt>
      <trkpt lat="43.69222" lon="1.83025">
        <ele>123</ele>
        <time>2013-02-21T14:07:32Z</time>
      </trkpt>
      <trkpt lat="43.69229" lon="1.83018">
        <ele>126</ele>
        <time>2013-02-21T14:07:41Z</time>
      </trkpt>
      <trkpt lat="43.69239" lon="1.8301">
        <ele>127</ele>
        <time>2013-02-21T14:07:57Z</time>
      </trkpt>
      <trkpt lat="43.69248" lon="1.83004">
        <ele>128</ele>
        <time>2013-02-21T14:08:04Z</time>
      </trkpt>
      <trkpt lat="43.69257" lon="1.82999">
        <ele>129</ele>
        <time>2013-02-21T14:08:12Z</time>
      </trkpt>
      <trkpt lat="43.69261" lon="1.82996">
        <ele>129</ele>
        <time>2013-02-21T14:08:16Z</time>
      </trkpt>
      <trkpt lat="43.69268" lon="1.82986">
        <ele>131</ele>
        <time>2013-02-21T14:08:27Z</time>
      </trkpt>
      <trkpt lat="43.69274" lon="1.82977">
        <ele>132</ele>
        <time>2013-02-21T14:08:35Z</time>
      </trkpt>
      <trkpt lat="43.6928" lon="1.82965">
        <ele>133</ele>
        <time>2013-02-21T14:08:43Z</time>
      </trkpt>
      <trkpt lat="43.69287" lon="1.82956">
        <ele>131</ele>
        <time>2013-02-21T14:08:51Z</time>
      </trkpt>
      <trkpt lat="43.69292" lon="1.82944">
        <ele>127</ele>
        <time>2013-02-21T14:08:59Z</time>
      </trkpt>
      <trkpt lat="43.69295" lon="1.82932">
        <ele>126</ele>
        <time>2013-02-21T14:09:07Z</time>
      </trkpt>
      <trkpt lat="43.69299" lon="1.8292">
        <ele>126</ele>
        <time>2013-02-21T14:09:17Z</time>
      </trkpt>
      <trkpt lat="43.693" lon="1.82908">
        <ele>126</ele>
        <time>2013-02-21T14:09:28Z</time>
      </trkpt>
      <trkpt lat="43.69301" lon="1.82892">
        <ele>127</ele>
        <time>2013-02-21T14:09:37Z</time>
      </trkpt>
      <trkpt lat="43.69302" lon="1.82879">
        <ele>127</ele>
        <time>2013-02-21T14:09:47Z</time>
      </trkpt>
      <trkpt lat="43.69304" lon="1.82866">
        <ele>127</ele>
        <time>2013-02-21T14:09:57Z</time>
      </trkpt>
      <trkpt lat="43.69307" lon="1.82852">
        <ele>127</ele>
        <time>2013-02-21T14:10:06Z</time>
      </trkpt>
      <trkpt lat="43.6931" lon="1.82839">
        <ele>125</ele>
        <time>2013-02-21T14:10:16Z</time>
      </trkpt>
      <trkpt lat="43.69313" lon="1.82826">
        <ele>126</ele>
        <time>2013-02-21T14:10:24Z</time>
      </trkpt>
      <trkpt lat="43.69314" lon="1.82813">
        <ele>127</ele>
        <time>2013-02-21T14:10:34Z</time>
      </trkpt>
      <trkpt lat="43.69315" lon="1.828">
        <ele>129</ele>
        <time>2013-02-21T14:10:43Z</time>
      </trkpt>
      <trkpt lat="43.69317" lon="1.82791">
        <ele>130</ele>
        <time>2013-02-21T14:10:48Z</time>
      </trkpt>
      <trkpt lat="43.69319" lon="1.82782">
        <ele>130</ele>
        <time>2013-02-21T14:10:54Z</time>
      </trkpt>
      <trkpt lat="43.69322" lon="1.82776">
        <ele>130</ele>
        <time>2013-02-21T14:11:00Z</time>
      </trkpt>
      <trkpt lat="43.69324" lon="1.82763">
        <ele>130</ele>
        <time>2013-02-21T14:11:07Z</time>
      </trkpt>
      <trkpt lat="43.69328" lon="1.82751">
        <ele>127</ele>
        <time>2013-02-21T14:11:19Z</time>
      </trkpt>
      <trkpt lat="43.69331" lon="1.82738">
        <ele>126</ele>
        <time>2013-02-21T14:11:27Z</time>
      </trkpt>
      <trkpt lat="43.69335" lon="1.82724">
        <ele>126</ele>
        <time>2013-02-21T14:11:36Z</time>
      </trkpt>
      <trkpt lat="43.69339" lon="1.82713">
        <ele>125</ele>
        <time>2013-02-21T14:11:45Z</time>
      </trkpt>
      <trkpt lat="43.69344" lon="1.82702">
        <ele>125</ele>
        <time>2013-02-21T14:11:53Z</time>
      </trkpt>
      <trkpt lat="43.6935" lon="1.82685">
        <ele>121</ele>
        <time>2013-02-21T14:12:05Z</time>
      </trkpt>
      <trkpt lat="43.69353" lon="1.82673">
        <ele>120</ele>
        <time>2013-02-21T14:12:11Z</time>
      </trkpt>
      <trkpt lat="43.69359" lon="1.8266">
        <ele>120</ele>
        <time>2013-02-21T14:12:21Z</time>
      </trkpt>
      <trkpt lat="43.69362" lon="1.82648">
        <ele>120</ele>
        <time>2013-02-21T14:12:29Z</time>
      </trkpt>
      <trkpt lat="43.69363" lon="1.82641">
        <ele>122</ele>
        <time>2013-02-21T14:12:34Z</time>
      </trkpt>
      <trkpt lat="43.69368" lon="1.8263">
        <ele>124</ele>
        <time>2013-02-21T14:12:43Z</time>
      </trkpt>
      <trkpt lat="43.69373" lon="1.82617">
        <ele>125</ele>
        <time>2013-02-21T14:12:52Z</time>
      </trkpt>
      <trkpt lat="43.69378" lon="1.82605">
        <ele>126</ele>
        <time>2013-02-21T14:13:01Z</time>
      </trkpt>
      <trkpt lat="43.69383" lon="1.82593">
        <ele>125</ele>
        <time>2013-02-21T14:13:10Z</time>
      </trkpt>
      <trkpt lat="43.69391" lon="1.82575">
        <ele>125</ele>
        <time>2013-02-21T14:13:27Z</time>
      </trkpt>
      <trkpt lat="43.69394" lon="1.82563">
        <ele>124</ele>
        <time>2013-02-21T14:13:35Z</time>
      </trkpt>
      <trkpt lat="43.69397" lon="1.82551">
        <ele>124</ele>
        <time>2013-02-21T14:13:42Z</time>
      </trkpt>
      <trkpt lat="43.69406" lon="1.82538">
        <ele>122</ele>
        <time>2013-02-21T14:13:57Z</time>
      </trkpt>
      <trkpt lat="43.69411" lon="1.82528">
        <ele>123</ele>
        <time>2013-02-21T14:14:06Z</time>
      </trkpt>
      <trkpt lat="43.69416" lon="1.82516">
        <ele>124</ele>
        <time>2013-02-21T14:14:12Z</time>
      </trkpt>
      <trkpt lat="43.6942" lon="1.82504">
        <ele>124</ele>
        <time>2013-02-21T14:14:22Z</time>
      </trkpt>
      <trkpt lat="43.69427" lon="1.82495">
        <ele>124</ele>
        <time>2013-02-21T14:14:30Z</time>
      </trkpt>
      <trkpt lat="43.69434" lon="1.82485">
        <ele>124</ele>
        <time>2013-02-21T14:14:40Z</time>
      </trkpt>
      <trkpt lat="43.6944" lon="1.82475">
        <ele>123</ele>
        <time>2013-02-21T14:14:49Z</time>
      </trkpt>
      <trkpt lat="43.69447" lon="1.82467">
        <ele>120</ele>
        <time>2013-02-21T14:14:57Z</time>
      </trkpt>
      <trkpt lat="43.69457" lon="1.82455">
        <ele>118</ele>
        <time>2013-02-21T14:15:10Z</time>
      </trkpt>
      <trkpt lat="43.69461" lon="1.82444">
        <ele>117</ele>
        <time>2013-02-21T14:15:19Z</time>
      </trkpt>
      <trkpt lat="43.69469" lon="1.82434">
        <ele>116</ele>
        <time>2013-02-21T14:15:29Z</time>
      </trkpt>
      <trkpt lat="43.69473" lon="1.82419">
        <ele>115</ele>
        <time>2013-02-21T14:15:39Z</time>
      </trkpt>
      <trkpt lat="43.69476" lon="1.82406">
        <ele>117</ele>
        <time>2013-02-21T14:15:48Z</time>
      </trkpt>
      <trkpt lat="43.69477" lon="1.82393">
        <ele>117</ele>
        <time>2013-02-21T14:16:00Z</time>
      </trkpt>
      <trkpt lat="43.69481" lon="1.8238">
        <ele>115</ele>
        <time>2013-02-21T14:16:09Z</time>
      </trkpt>
      <trkpt lat="43.69486" lon="1.82365">
        <ele>112</ele>
        <time>2013-02-21T14:16:24Z</time>
      </trkpt>
      <trkpt lat="43.69487" lon="1.82352">
        <ele>111</ele>
        <time>2013-02-21T14:16:30Z</time>
      </trkpt>
      <trkpt lat="43.69496" lon="1.8234">
        <ele>111</ele>
        <time>2013-02-21T14:16:41Z</time>
      </trkpt>
      <trkpt lat="43.69503" lon="1.82326">
        <ele>115</ele>
        <time>2013-02-21T14:16:51Z</time>
      </trkpt>
      <trkpt lat="43.69505" lon="1.82311">
        <ele>117</ele>
        <time>2013-02-21T14:16:58Z</time>
      </trkpt>
      <trkpt lat="43.69509" lon="1.82297">
        <ele>113</ele>
        <time>2013-02-21T14:17:37Z</time>
      </trkpt>
      <trkpt lat="43.69515" lon="1.82287">
        <ele>112</ele>
        <time>2013-02-21T14:17:46Z</time>
      </trkpt>
      <trkpt lat="43.69523" lon="1.82273">
        <ele>109</ele>
        <time>2013-02-21T14:18:09Z</time>
      </trkpt>
      <trkpt lat="43.69532" lon="1.82261">
        <ele>108</ele>
        <time>2013-02-21T14:18:19Z</time>
      </trkpt>
      <trkpt lat="43.69533" lon="1.82246">
        <ele>108</ele>
        <time>2013-02-21T14:18:27Z</time>
      </trkpt>
      <trkpt lat="43.69537" lon="1.82234">
        <ele>108</ele>
        <time>2013-02-21T14:18:35Z</time>
      </trkpt>
      <trkpt lat="43.69544" lon="1.82224">
        <ele>111</ele>
        <time>2013-02-21T14:18:45Z</time>
      </trkpt>
      <trkpt lat="43.69552" lon="1.82216">
        <ele>112</ele>
        <time>2013-02-21T14:18:55Z</time>
      </trkpt>
      <trkpt lat="43.69556" lon="1.82209">
        <ele>113</ele>
        <time>2013-02-21T14:19:45Z</time>
      </trkpt>
      <trkpt lat="43.69559" lon="1.82197">
        <ele>113</ele>
        <time>2013-02-21T14:19:52Z</time>
      </trkpt>
      <trkpt lat="43.69561" lon="1.82185">
        <ele>114</ele>
        <time>2013-02-21T14:20:00Z</time>
      </trkpt>
      <trkpt lat="43.69565" lon="1.82171">
        <ele>116</ele>
        <time>2013-02-21T14:20:07Z</time>
      </trkpt>
      <trkpt lat="43.69567" lon="1.82157">
        <ele>118</ele>
        <time>2013-02-21T14:20:18Z</time>
      </trkpt>
      <trkpt lat="43.69569" lon="1.82143">
        <ele>120</ele>
        <time>2013-02-21T14:20:33Z</time>
      </trkpt>
      <trkpt lat="43.69578" lon="1.82138">
        <ele>120</ele>
        <time>2013-02-21T14:20:53Z</time>
      </trkpt>
      <trkpt lat="43.69583" lon="1.82128">
        <ele>119</ele>
        <time>2013-02-21T14:21:25Z</time>
      </trkpt>
      <trkpt lat="43.69592" lon="1.82124">
        <ele>115</ele>
        <time>2013-02-21T14:21:49Z</time>
      </trkpt>
      <trkpt lat="43.69596" lon="1.8212">
        <ele>113</ele>
        <time>2013-02-21T14:22:02Z</time>
      </trkpt>
      <trkpt lat="43.696" lon="1.82108">
        <ele>112</ele>
        <time>2013-02-21T14:22:13Z</time>
      </trkpt>
      <trkpt lat="43.69596" lon="1.82094">
        <ele>115</ele>
        <time>2013-02-21T14:22:46Z</time>
      </trkpt>
    </trkseg>
  </trk>
</gpx>